GFSCGP_con_mucape_000.txt.gz
CAPE
0 0 0 0 0 0 0 0 0 0 0 104 79 233 248 291 305 386 518 504 470 425 507 493 750 480 488 634 834 851 1007 1624 2212 1869 1948 2189 2164 1790 1347 1110 1071 1313 1143 1086
0 0 0 0 0 0 0 0 0 1 11 7 175 196 196 299 440 542 660 638 687 823 722 748 837 679 670 705 828 1177 1095 1763 1879 1759 1771 1701 1766 1525 1415 1608 1755 1400 1062 1043
0 0 0 0 0 0 0 0 0 7 23 27 140 165 232 296 414 579 665 721 855 913 910 926 848 719 858 833 1181 1301 1460 1819 1674 1756 1736 1919 2033 1774 1615 1761 1734 1194 1041 721
0 0 0 0 0 0 0 0 1 17 31 15 73 64 171 225 229 304 396 658 764 791 920 851 902 682 867 1134 1596 1615 1914 2044 2099 2149 1974 1910 1074 716 275 1163 1332 531 0 0
0 0 0 0 0 0 0 0 0 44 46 38 23 26 47 65 131 162 234 446 505 640 890 964 971 727 991 1388 1934 1841 2112 2351 2320 2051 1932 2111 742 21 185 386 0 0 0 0
0 0 0 0 0 0 0 0 0 50 51 40 28 29 23 33 78 68 114 309 489 418 815 1041 1110 915 1267 1566 1982 2153 2225 2087 2223 2307 2067 1480 0 0 48 2 0 0 0 19
0 0 0 0 0 0 0 0 0 0 6 1 11 49 0 13 45 52 28 166 400 396 397 853 957 952 1507 1760 1797 2122 2169 1633 1848 1975 1120 0 0 0 0 0 0 0 0 6
0 0 0 0 0 0 0 0 0 0 0 0 0 0 0 10 30 43 19 113 260 366 337 556 410 490 1302 1654 1722 1799 2024 1760 2097 1840 1453 0 0 0 0 0 0 0 0 0
0 0 0 0 0 0 0 0 0 0 0 0 0 0 0 3 20 21 8 40 149 348 292 419 297 485 960 1354 1572 1710 1678 1883 1645 1193 51 0 6 1 26 43 48 0 0 0
0 0 0 0 0 0 0 0 0 0 0 0 0 0 0 38 38 44 30 27 35 132 233 299 308 501 1080 1211 1585 1740 1497 1690 1577 1046 39 0 17 25 41 10 0 0 0 0
0 0 0 0 0 0 0 0 0 0 0 0 0 0 0 49 55 57 73 61 38 56 98 313 354 449 1115 1238 1477 1772 1659 1725 1753 1292 116 121 248 130 23 6 0 0 0 0
0 0 0 0 0 0 0 0 0 0 0 0 0 0 0 25 40 58 82 57 74 69 100 171 300 370 843 1161 1498 1704 1728 1795 1833 1197 325 308 445 417 200 57 29 5 16 12
0 0 0 0 0 0 0 0 0 0 0 0 0 0 0 0 7 53 54 59 46 27 31 126 217 249 519 962 1405 1564 1675 1829 1817 1252 532 415 559 552 166 97 46 14 8 5
0 0 0 0 0 0 0 0 0 0 0 0 0 0 0 0 0 0 0 0 5 19 30 56 188 270 390 863 1221 1485 1599 1753 1706 1060 714 702 469 187 97 75 39 19 20 15
0 0 0 0 0 0 0 0 0 0 0 0 0 0 0 0 0 0 8 12 32 118 137 124 232 293 549 849 1077 1402 1504 1630 1490 1037 881 827 464 376 75 31 31 24 40 39
0 0 0 7 0 0 0 0 0 0 2 5 0 0 0 3 8 26 29 29 0 54 571 268 278 621 894 993 1172 1280 1413 1571 1384 1196 1112 885 431 381 115 92 91 128 120 220
0 0 1 16 2 0 28 0 3 2 0 1 0 0 36 27 60 49 36 3 9 15 56 792 951 948 1154 1287 1269 1282 1333 1410 1456 1462 1108 567 468 277 213 229 267 279 251 216
20 1 11 19 13 17 5 5 20 29 38 48 0 0 0 23 117 102 43 11 8 5 0 1 815 1423 1348 1660 1553 1406 1448 1527 1651 1357 944 472 515 352 340 342 339 323 336 370
123 8 13 18 23 8 31 60 55 55 31 118 90 69 83 91 97 94 47 30 0 0 0 2 156 423 1068 1579 1855 1774 1754 1808 1754 1214 505 486 573 619 455 410 368 418 425 514
132 114 56 46 15 6 62 196 150 129 91 140 181 119 89 112 75 84 38 29 4 165 228 338 528 1298 1465 1619 1871 1971 1967 2039 1649 1217 770 469 543 525 408 396 461 489 609 746
155 208 107 101 28 3 150 224 154 135 143 92 113 148 189 193 208 241 226 250 293 364 462 613 1447 1674 1776 1784 1826 1914 1971 1998 1619 1094 568 371 646 604 481 553 732 846 906 842
194 234 164 100 103 102 170 256 295 150 119 78 63 105 83 132 204 178 106 53 80 215 405 652 1465 1803 1835 1790 1824 1857 1828 1493 1150 659 452 493 459 543 738 920 1226 1074 924 754
159 37 190 211 66 69 182 207 184 155 142 132 103 80 89 90 148 109 50 43 16 3 11 328 879 1861 1903 1849 1822 1869 1529 1102 777 630 707 513 209 61 39 661 1196 1038 698 434
66 201 87 13 11 27 25 109 149 169 186 194 140 63 114 101 193 138 338 817 987 993 935 1404 1660 1884 2040 1931 1804 1543 1105 1018 814 773 509 139 18 0 70 715 661 461 455 303
264 396 261 173 85 21 10 40 68 41 166 200 68 59 34 132 1283 1528 1198 1134 1096 1052 1203 1531 1866 2009 2023 1864 1469 1101 790 602 382 163 69 2 14 130 455 442 580 466 370 195
151 545 339 175 84 3 18 135 162 96 150 54 36 0 0 0 1090 1544 1229 1196 1202 1244 1391 1689 1951 1820 1416 950 620 506 297 129 100 32 27 3 166 358 586 665 400 355 178 102

GFSCGP_con_mucape_003.txt.gz
CAPE
0 0 0 0 0 0 0 0 3 0 7 11 55 125 219 319 220 163 208 206 201 244 347 332 522 626 676 493 1151 1582 1804 1984 1929 1888 1934 1937 1803 1665 1638 1527 1353 1175 1087 1071
0 0 0 0 0 0 0 1 0 0 0 32 59 113 91 162 167 115 149 214 250 269 309 333 319 569 523 505 844 1266 1587 1695 2037 2031 1884 1811 1927 1900 1639 1172 1077 1398 1118 901
0 0 0 0 0 0 0 0 0 0 0 48 78 103 118 88 105 114 143 245 271 342 327 351 322 645 487 384 528 753 1104 1116 1618 2119 1854 1666 1680 1804 1818 1787 1878 1553 1166 1007
0 0 0 0 0 0 0 0 0 0 0 1 63 22 131 172 187 218 276 432 509 412 453 561 424 720 653 360 539 789 866 1204 1586 1835 1659 1630 1780 1750 1104 941 1701 1502 1386 583
0 0 0 0 0 0 0 0 0 0 0 7 49 9 94 124 172 231 328 490 616 546 552 756 560 761 714 503 837 903 1159 1500 1767 1799 1754 1736 1699 934 344 348 1337 1453 20 0
0 0 0 0 0 0 0 0 0 0 0 0 9 10 0 93 147 178 276 457 544 706 689 832 726 766 762 738 1132 1428 1484 1691 1896 1932 2220 1944 1889 1137 40 613 816 9 0 0
0 0 0 0 0 0 0 0 0 0 0 0 0 11 0 23 78 105 124 270 423 603 759 833 798 752 798 991 1306 1636 1711 1802 2069 2366 2419 2055 2424 850 112 213 1 0 0 0
0 0 0 0 0 0 0 0 0 0 0 0 0 0 0 6 24 52 69 93 241 442 667 727 791 820 842 1168 1409 1714 1819 1800 1933 2309 2372 2542 1448 0 6 18 0 0 0 0
0 0 0 0 0 0 0 0 0 0 0 0 0 0 0 4 2 11 39 46 105 235 401 706 859 910 922 1179 1464 1698 1876 1835 1905 1870 2107 1992 111 0 0 0 1 0 0 0
0 0 0 0 0 0 0 0 0 0 0 0 0 0 0 0 0 5 10 43 31 148 278 483 847 892 972 1198 1471 1584 1780 1867 1847 1713 1759 1686 901 0 0 8 16 18 0 0
0 0 0 0 0 0 0 0 0 0 0 0 0 0 0 0 0 0 16 21 28 119 220 340 587 729 858 1174 1458 1567 1665 1825 1775 1704 1821 1401 999 0 11 44 40 21 0 0
0 0 0 0 0 0 0 0 0 0 0 0 0 0 0 0 0 3 11 34 36 69 143 241 397 556 700 744 1161 1442 1536 1587 1564 1659 1738 1333 435 17 133 47 10 0 0 0
0 0 0 0 0 0 0 0 0 0 0 0 0 0 0 0 0 9 0 8 37 47 70 189 313 456 569 679 992 1218 1504 1511 1465 1497 1618 1300 689 125 162 201 24 1 0 0
0 0 0 0 0 0 0 0 0 0 0 0 0 0 0 0 0 15 52 53 43 53 72 71 278 402 488 532 954 1190 1550 1605 1520 1533 1595 1454 1033 270 463 459 256 31 22 8
0 0 0 0 0 0 0 0 0 0 0 0 0 0 0 1 15 24 62 62 22 63 127 116 74 233 374 486 807 1160 1513 1657 1645 1560 1639 1636 1246 629 630 622 273 62 29 17
0 0 0 0 0 0 0 0 0 0 0 0 0 0 0 0 0 0 10 19 1 0 0 7 8 89 202 321 669 1007 1422 1669 1629 1493 1687 1735 1343 620 791 434 100 22 26 31
56 7 0 0 0 1 9 0 0 0 0 0 0 0 0 0 0 0 5 7 0 2 42 77 73 83 155 237 598 869 1257 1540 1626 1578 1596 1707 951 487 664 318 210 22 44 49
48 30 0 0 0 23 5 7 1 11 26 30 0 0 0 0 0 13 6 12 17 41 116 323 329 377 385 530 764 894 1199 1484 1559 1540 1535 1580 1029 523 581 347 345 161 183 158
56 65 8 0 0 0 45 61 77 46 46 44 36 13 13 3 0 18 43 78 125 137 116 173 635 741 699 880 1145 1111 1157 1345 1436 1371 1382 1069 603 701 458 465 317 329 354 390
71 90 41 8 1 13 58 93 61 28 53 49 43 17 28 6 43 131 196 227 178 131 103 38 118 318 524 652 1368 1525 1492 1494 1506 1402 1334 1274 749 514 446 534 369 452 471 496
53 104 59 33 29 121 90 104 110 110 33 36 33 58 144 150 149 229 264 195 135 167 227 246 501 894 875 1070 1371 1652 1651 1673 1755 1810 1621 1339 874 503 418 429 381 435 280 405
64 221 122 172 60 110 191 191 100 98 85 58 67 137 158 199 231 329 288 306 375 307 194 192 398 1161 1137 1255 1389 1482 1586 1670 1823 1791 1548 1308 705 544 459 341 308 193 6 68
102 113 106 19 102 78 104 110 136 78 87 128 105 165 181 217 145 298 331 358 322 344 271 346 455 1024 1333 1453 1407 1473 1554 1700 1710 1488 1317 828 573 434 327 175 45 68 25 0
173 123 51 49 57 138 162 176 117 104 91 104 149 200 236 240 320 351 429 531 479 331 407 684 865 976 1160 1470 1552 1529 1727 1493 1376 1045 943 646 583 526 255 6 54 185 218 351
74 120 40 18 20 50 71 67 87 88 89 103 121 116 127 97 174 709 489 515 321 714 767 831 931 1097 1322 1419 1422 1337 1092 844 678 541 398 228 170 96 44 44 342 572 433 197
354 520 84 6 3 10 10 8 0 0 0 4 0 1 0 12 31 243 802 1091 916 988 1022 1092 1223 1435 1522 1328 1161 811 170 310 125 124 126 70 11 38 19 2 330 534 429 252

GFSCGP_con_mucape_006.txt.gz
CAPE
0 0 0 0 0 0 0 27 25 15 33 52 86 92 330 242 252 256 283 343 452 607 622 741 808 929 803 906 1052 1274 1441 1688 1828 1667 1718 1847 1502 1476 1514 1362 1161 1166 939 893
0 0 0 0 0 0 0 1 11 14 4 66 58 69 246 240 172 163 170 198 236 364 476 526 581 737 551 572 891 1097 1495 1792 1845 1807 1719 1648 1672 1667 1661 1519 1384 1131 938 1001
0 0 0 0 0 0 0 0 0 0 0 10 36 47 92 233 230 177 117 90 88 114 187 230 274 312 578 461 724 861 1325 1646 1725 1716 1683 1756 1605 1570 1447 1435 1154 1290 1149 916
0 0 0 0 0 0 0 0 0 0 7 2 48 0 58 105 187 184 147 101 84 102 105 145 179 236 372 416 562 491 874 1277 1457 1537 1793 1823 1570 1420 1361 1316 1456 1549 1163 911
0 0 0 0 0 0 0 0 0 0 2 5 36 3 0 63 67 119 124 125 108 102 138 203 228 244 290 459 407 390 585 851 1087 1220 1514 1895 1622 1358 946 586 622 1454 1093 1004
0 0 0 0 0 0 0 0 1 2 0 0 0 0 0 14 88 113 132 137 138 135 243 251 300 335 284 570 458 352 464 588 868 1134 1389 1681 1571 1350 1005 356 485 1305 1233 6
0 0 0 0 0 0 0 0 0 0 0 0 0 0 0 1 61 95 111 147 184 190 313 478 413 533 446 566 597 567 576 711 1055 1285 1517 1652 1659 1400 1172 114 587 1088 221 0
0 0 0 0 0 0 0 0 0 0 0 0 0 0 3 6 5 55 61 107 138 221 360 503 609 543 674 584 671 693 800 846 1157 1450 1628 1754 1964 1693 1749 237 312 353 0 0
0 0 0 0 0 0 0 0 0 0 0 0 0 0 0 0 0 4 25 87 119 141 329 483 616 691 836 731 736 783 1015 1068 1197 1461 1676 1877 2175 1898 2014 9 110 26 0 0
0 0 0 0 0 0 0 0 0 0 0 0 0 0 0 0 0 0 0 28 83 98 295 401 550 690 899 871 802 843 1084 1235 1265 1432 1618 1828 2060 2215 536 2 21 7 0 0
0 0 0 0 0 0 0 0 0 0 0 0 0 0 0 0 0 0 0 12 17 65 156 350 608 751 918 908 834 897 1178 1397 1454 1409 1536 1578 1921 1830 135 0 0 0 0 0
0 0 0 0 0 0 0 0 0 0 0 0 0 0 0 0 0 0 0 1 0 36 109 229 576 755 856 863 857 984 1231 1448 1572 1506 1607 1498 1649 1549 736 0 0 3 15 0
1 0 0 0 0 0 0 0 0 0 0 0 0 0 0 0 0 0 4 4 3 20 72 159 378 692 842 865 936 1093 1321 1417 1558 1560 1553 1684 1453 1427 989 95 18 18 72 0
50 2 0 0 0 0 0 0 0 0 0 0 0 0 0 0 0 0 1 12 10 20 44 148 252 428 617 747 819 1120 1352 1395 1431 1473 1547 1667 1578 1460 1108 398 59 80 13 0
10 0 0 0 0 0 0 0 0 0 0 0 0 0 0 0 0 0 0 22 13 19 75 109 244 335 448 553 646 754 1076 1305 1415 1412 1366 1540 1602 1521 1289 811 142 119 6 0
64 0 0 0 0 0 0 0 0 0 0 0 0 0 0 0 0 0 0 15 37 60 124 172 196 231 333 395 480 593 921 1095 1397 1391 1323 1347 1407 1528 1391 621 294 266 199 141
92 12 0 0 0 0 0 0 0 0 0 0 0 0 0 0 0 0 0 27 111 180 166 193 211 189 148 205 340 471 817 1060 1374 1412 1380 1345 1328 1371 1069 154 46 576 561 363
66 74 42 0 0 0 0 0 0 0 0 0 0 0 0 0 0 1 0 1 56 144 158 185 150 111 72 71 145 332 677 1034 1346 1443 1449 1424 1415 1313 1058 292 10 369 475 104
41 57 71 14 0 0 4 0 0 29 27 28 8 0 3 1 0 2 1 4 10 73 86 65 123 207 132 146 216 418 650 1003 1307 1412 1490 1495 1432 1415 899 280 18 121 508 250
58 23 54 51 36 1 1 18 30 36 28 27 19 10 2 0 2 0 0 4 66 85 149 182 387 345 359 394 566 694 788 975 1205 1315 1428 1504 1560 1515 965 557 99 65 359 444
48 38 15 53 53 31 66 68 68 63 3 34 23 16 23 19 25 45 118 152 170 183 160 192 283 518 518 547 681 905 1019 1086 1053 1188 1337 1559 1478 1605 1052 436 264 236 390 459
16 81 60 55 58 154 136 152 130 25 24 39 45 68 65 49 82 166 223 253 242 244 246 163 113 340 627 749 785 878 909 865 1010 1220 1455 1411 1322 1300 759 441 346 397 356 241
84 160 121 25 35 64 213 164 109 78 37 46 81 145 162 143 149 215 250 315 314 341 263 373 410 501 541 704 863 946 862 918 1220 1405 1384 1152 1090 865 536 413 273 190 34 29
141 49 14 40 52 160 189 171 146 138 104 82 89 134 187 206 186 177 332 331 171 183 310 479 547 603 683 761 806 985 1205 1276 1300 1105 902 855 767 571 414 278 148 89 30 0
64 53 3 8 29 57 119 106 84 97 147 101 98 91 116 156 105 177 142 484 571 597 508 573 559 665 832 978 1056 1134 1303 1104 763 597 575 527 591 506 341 217 175 3 1 64
161 58 0 1 3 12 1 18 58 60 26 31 2 1 3 5 0 0 7 175 462 543 655 704 669 687 917 955 999 1076 960 685 442 212 134 136 152 150 63 13 51 11 87 133

GFSCGP_con_mucape_009.txt.gz
CAPE
0 0 0 0 0 0 0 44 77 52 33 49 91 88 438 520 555 691 1004 1071 1058 1022 1051 1282 1482 1473 1584 1707 1818 2050 2173 2478 2596 2422 2477 2431 2273 2525 2228 2420 2100 1799 1848 1785
0 0 0 0 0 0 0 23 68 21 34 57 53 57 203 527 500 522 662 847 904 977 1084 1201 1317 1216 1253 1541 1680 2002 2274 2534 2805 2474 2596 2457 2484 2430 2247 2298 2290 2083 1889 1962
0 0 0 0 0 0 0 7 23 23 8 38 75 35 100 448 487 419 422 475 533 615 785 852 963 1077 1089 1247 1496 1802 2428 2705 2684 2728 2607 2494 2356 2283 2311 2291 2222 2094 2001 1927
0 0 0 0 0 0 0 0 19 45 30 11 48 23 54 197 528 515 477 404 391 409 507 563 693 859 1021 1090 1175 1642 2141 2631 2603 2790 2501 2566 2281 2242 2228 2096 2045 2114 2099 1800
0 0 0 0 0 0 0 0 0 8 43 1 37 2 0 131 287 571 560 494 400 367 385 462 566 647 788 993 1033 1225 1973 2486 2537 2702 2917 2613 2579 2369 2186 1611 1846 2350 2095 1770
0 0 0 0 0 0 0 0 0 0 10 0 0 4 0 112 197 253 364 414 429 377 395 446 496 503 611 783 911 1133 1889 2371 2242 2341 2641 2681 2646 2580 1949 1284 1017 1348 1548 1089
0 0 0 0 0 0 0 0 0 0 0 0 0 2 10 21 115 156 167 240 284 321 338 403 537 554 654 879 1003 1192 1916 2206 1797 2027 2318 2461 2585 2787 2345 1857 1050 1003 1145 807
0 0 0 0 0 0 0 0 0 0 0 0 0 0 3 47 43 64 121 155 182 218 268 380 532 864 869 911 1065 1210 1767 2178 1823 1881 2507 2649 2770 2438 2095 1660 1002 906 934 637
0 0 0 0 0 0 0 0 0 0 0 0 0 0 0 0 2 3 51 109 229 307 476 528 605 693 1070 1171 1521 1704 1985 2183 1887 1858 2448 2457 2596 2406 2059 1342 1169 821 793 244
0 0 0 0 0 0 0 0 0 0 0 0 0 0 0 7 11 54 22 134 258 448 606 661 969 891 1146 1157 1383 1516 1913 2172 2138 1882 2244 2368 2462 2266 2119 1494 1411 487 438 230
0 0 0 0 0 0 0 0 0 0 0 0 0 0 0 4 150 74 59 93 253 464 748 993 1076 1044 1166 1218 1321 1593 1621 1992 1980 2082 2552 2518 2250 1925 1821 1702 1625 274 334 275
0 0 0 0 0 0 0 0 0 0 0 0 0 0 0 0 0 2 41 24 77 520 872 862 1027 1107 1106 1329 1210 1420 1521 1625 2266 2435 2502 2125 1902 1710 1526 1656 1281 356 26 210
0 0 0 0 0 0 0 0 0 0 0 0 0 0 0 0 0 0 1 43 98 289 515 848 972 1408 1296 1372 1769 1506 1806 1750 1846 2296 2036 1893 1374 1117 1538 1462 862 136 205 168
21 4 0 0 0 0 0 0 0 0 0 0 0 0 0 0 5 25 24 85 114 144 628 779 952 1650 1825 1992 2098 2052 1929 1847 1889 1979 2062 1845 1358 1381 1113 1282 946 169 150 336
117 4 4 0 0 0 0 0 0 0 0 0 0 0 0 20 114 223 197 240 108 169 383 799 1025 1743 2044 2149 2036 1991 1846 2162 2251 2388 2189 1973 1365 1028 1242 1313 1011 284 0 57
119 40 7 0 0 0 0 0 0 0 0 0 0 0 0 0 39 131 137 265 191 202 351 657 907 1065 1331 1644 1628 1556 1855 2149 2357 2562 2276 1925 1572 1147 1120 1237 1031 453 198 2
319 90 66 0 0 0 0 0 0 0 0 0 0 0 0 0 3 96 270 358 494 470 409 600 992 1252 1121 1145 1298 1313 1560 1764 2155 2434 2204 1881 1594 1152 1172 1231 1044 732 289 109
472 274 67 16 27 2 0 0 0 0 0 0 0 0 0 28 173 93 85 306 542 694 678 560 382 609 795 828 914 1150 1437 1998 2252 2298 2212 1924 1571 1091 1053 1085 1111 874 336 222
299 59 7 1 35 8 0 0 0 0 0 0 0 0 0 0 25 56 0 2 154 204 343 501 379 361 527 538 800 1135 1424 1746 2018 2227 2302 2128 1654 1151 1168 1223 1176 730 475 167
145 164 120 15 9 0 19 0 0 0 0 0 0 1 24 6 26 170 0 9 83 226 482 717 541 554 641 807 904 1247 1483 1721 2006 2155 2285 2225 1627 1386 1321 1390 1400 715 287 38
422 206 183 326 133 8 2 27 37 50 32 0 0 0 19 99 125 45 99 285 457 528 682 1067 1181 1180 1229 1172 1548 1778 1766 1846 2053 2219 2242 1951 1513 1433 1464 1461 1297 810 296 124
223 253 216 299 238 113 2 84 211 136 26 45 64 50 66 74 99 165 228 315 450 477 475 680 1030 1207 1394 1534 1828 1963 1795 1535 1850 1919 1824 1392 1455 1416 1296 1388 1232 655 362 193
184 151 217 137 14 0 2 153 108 134 121 117 209 173 290 306 391 430 456 495 601 795 923 1047 1231 1241 1225 1380 1614 1592 1408 1309 1506 1612 1274 1306 1274 1191 1277 1330 719 301 187 49
258 83 35 14 0 5 79 126 140 143 149 114 114 103 91 109 427 645 669 655 712 865 959 993 1154 1198 980 930 927 1095 787 1104 1115 1082 1188 1019 972 912 734 439 333 376 143 56
48 13 17 37 4 33 28 47 41 93 96 85 81 126 133 63 44 276 499 594 668 745 756 930 1251 1176 891 896 894 868 925 1056 1099 912 720 645 635 551 338 249 143 93 91 81
101 46 13 15 13 34 61 37 23 32 59 47 66 66 57 46 16 127 113 114 159 453 815 921 982 918 674 776 704 710 760 740 703 601 402 212 90 156 204 160 72 45 46 82

GFSCGP_con_mucape_012.txt.gz
CAPE
0 0 0 0 0 0 2 19 46 53 178 271 184 152 409 792 773 714 990 927 641 469 556 954 1326 1418 1456 1773 2024 2317 2327 2500 3170 1872 1703 1902 1763 1749 1844 1952 2177 2264 2149 1971
0 0 0 0 0 0 0 3 40 88 154 179 140 198 211 441 810 680 794 987 1039 654 555 967 1331 1362 1395 1757 2132 2421 2616 2778 3006 2132 2923 2108 2023 1678 1973 2019 2159 2279 2176 2215
0 0 0 0 0 0 0 0 18 99 144 180 106 187 170 125 491 662 689 674 1003 877 719 794 985 1236 1320 1541 2085 2427 2770 2950 3081 2717 2701 2840 2644 2642 2220 2060 2150 2323 2430 2386
0 0 0 0 0 0 0 0 4 75 109 114 137 108 55 97 315 567 756 684 535 888 923 861 906 1048 1264 1445 1774 2375 2759 3069 3122 3316 3351 3277 2197 1466 1050 1153 944 1112 1734 1868
0 0 0 0 0 0 0 0 0 26 77 93 123 135 31 38 127 379 694 768 537 303 627 852 878 858 1117 1303 1583 2049 2734 3268 3227 3301 3808 2905 2904 1531 1336 1260 1286 1377 1652 1448
0 0 0 0 0 0 0 0 9 29 44 83 89 74 4 11 133 87 300 605 673 232 213 433 621 730 996 1172 1404 1669 2739 3672 3255 3276 3388 3356 2719 2198 1371 1648 1280 790 876 1304
0 0 0 0 0 0 0 0 21 42 45 43 41 47 0 0 10 29 36 273 678 321 216 296 487 724 1008 1201 1354 1584 2372 3316 3058 3118 3106 3320 3293 3039 2695 2398 1476 672 597 545
0 0 0 0 0 0 0 0 7 29 29 32 15 4 0 27 9 0 20 67 493 485 170 271 468 694 1002 1131 1359 1610 2224 3230 2908 2846 3118 3659 3509 3058 2758 2681 1019 701 304 338
0 0 0 0 0 0 0 0 0 34 46 41 6 1 0 4 5 10 29 83 325 585 235 252 457 680 932 1196 1882 2409 3028 2838 2738 2597 2946 3399 3489 3215 2816 2665 2269 1264 920 335
0 0 0 0 0 0 0 0 0 8 70 0 7 18 0 18 0 0 45 117 257 549 575 225 492 677 938 1166 1416 1739 2071 2586 2481 2508 2648 2777 2961 3222 3134 2890 2516 2063 1078 865
0 0 0 0 0 0 0 0 0 1 4 23 37 2 0 0 0 0 3 109 144 472 735 665 467 696 1003 1095 1256 1621 1940 2302 2421 2449 3018 2941 2715 2845 3153 3158 2857 2293 1603 1191
0 1 0 0 0 0 0 0 0 0 1 9 14 2 1 0 0 0 0 3 43 241 735 912 835 856 1000 1260 1233 1413 1647 1872 2219 2984 3207 2837 2943 2890 2852 3601 2886 2746 1871 1007
2 1 13 0 0 0 0 0 0 0 0 84 23 0 0 0 0 9 29 54 77 336 734 1020 1098 1275 1275 1285 1798 1528 1754 1744 1754 2669 2366 2461 2770 2801 3175 3108 2759 1537 1297 788
0 1 0 0 0 0 0 0 0 0 0 0 4 33 12 0 0 0 0 51 88 567 788 1109 1208 1487 1598 1992 2643 2704 1908 1937 1979 1988 2368 3066 2930 2897 2805 3006 2392 1090 775 464
0 6 41 3 0 4 0 0 0 0 0 0 0 4 13 0 0 0 0 0 130 662 824 1127 1386 2368 2734 2785 3024 2687 2264 2419 2395 2635 2424 2877 3193 2853 2530 3017 1927 1003 820 529
0 79 110 70 21 23 33 18 0 0 0 0 0 0 0 0 0 0 0 0 53 857 973 1226 1523 1793 2238 2388 2502 2491 2568 2428 2570 2991 2760 3206 3658 3174 2733 2972 1661 749 776 601
3 38 283 119 76 108 81 6 7 3 0 0 0 0 0 0 0 0 0 26 191 782 1053 1215 1508 1778 2235 2316 2533 2529 2617 2567 2668 2923 2969 3109 3413 3262 2992 2815 1746 1152 891 879
209 375 365 327 308 205 8 0 8 4 0 0 0 0 0 0 0 0 20 14 44 852 1096 1280 1335 1651 1987 2001 2182 2239 2423 2728 2967 3049 3088 3145 3180 3059 2676 2170 1842 1436 1155 1192
73 302 406 301 212 142 64 279 98 42 0 0 0 0 0 0 0 51 293 284 451 874 1334 1417 1389 1712 1957 1765 1939 2123 2152 2462 2610 2781 3003 3001 2957 2824 2516 1917 1166 1139 1112 1218
215 306 429 301 185 189 473 105 77 188 67 0 0 0 0 0 0 1 456 178 238 624 1200 1366 1138 1362 1682 1616 1715 1965 1924 2191 2458 2619 2922 3021 3021 2835 2272 1996 1715 1294 1186 1172
567 532 273 404 345 303 140 41 295 316 84 248 0 0 0 0 158 530 467 543 608 805 1092 1224 1356 1480 1578 1451 1523 1853 1888 2139 2288 2526 2903 3169 3172 2776 2426 2280 1541 1363 1378 1020
536 527 330 358 530 431 35 187 508 525 536 402 360 164 230 481 584 745 888 1093 1354 1561 1575 1548 1671 1766 1788 1848 2140 2303 2430 2591 2801 2992 3020 3195 2624 2147 1933 1833 1388 1596 1360 1052
544 357 410 460 434 63 136 96 24 351 661 619 575 539 601 614 727 818 824 820 849 868 764 941 1378 1782 1958 2104 2157 2505 2887 2685 2852 2895 2938 2024 1924 1543 1547 1395 1369 1618 1169 1146
567 556 625 531 209 34 1 16 44 167 491 525 574 568 611 614 674 837 985 1099 1046 983 965 1055 1237 1571 2047 2246 2463 2646 2459 2413 2536 2162 1584 1468 1552 1403 1324 1184 1107 1254 819 782
253 499 511 242 34 1 0 2 28 62 86 84 109 186 533 846 980 1004 1171 1232 1160 1185 1237 1189 1251 1669 2148 2260 2309 2143 2022 2109 2189 1646 1843 1520 1200 1239 1059 712 621 741 693 430
101 355 554 248 25 60 0 4 2 7 29 35 49 56 86 105 93 39 63 143 525 1285 1547 1620 1582 1688 1926 2012 2145 2083 2029 2140 1931 1558 1507 1349 1208 1113 821 409 340 260 41 73

GFSCGP_con_mucape_015.txt.gz
CAPE
0 0 0 0 0 0 19 66 12 70 31 94 158 183 258 506 474 266 255 148 172 227 475 587 899 896 951 1175 1564 1937 2460 3670 2634 1982 2686 2118 1906 2163 1524 1369 2007 2571 2308 2338
0 0 0 0 0 0 0 36 65 39 40 63 150 200 296 597 508 537 458 325 223 179 228 478 830 881 1122 1283 2042 3020 3252 4003 3521 2480 2875 2565 2083 1415 1364 1221 2150 2007 2195 2546
0 0 0 0 0 0 0 11 47 74 146 110 129 148 194 220 532 549 438 544 411 208 68 347 620 920 1089 1431 2121 3206 4019 4280 3988 3735 3138 2831 3269 2326 1745 1284 1988 2097 2085 2041
0 0 0 0 0 0 0 0 14 63 57 149 29 160 185 121 194 439 671 553 607 341 189 170 617 954 992 1426 1814 3184 4014 4325 4024 4221 3026 3582 2234 1478 877 1110 901 1588 1557 1450
0 0 0 0 0 0 0 0 14 37 142 202 77 106 58 75 133 174 434 666 638 446 372 257 445 742 909 1159 1441 2529 4175 4430 4485 4462 3650 2669 2904 1146 1007 811 1960 1808 2312 1216
0 0 0 0 0 0 0 0 26 37 73 111 160 125 193 55 126 167 166 433 753 697 364 577 472 651 772 965 1323 2316 4154 4608 4573 4535 4404 4413 4341 2713 1483 1686 1416 835 781 1118
0 0 0 0 0 0 0 0 22 62 72 49 108 140 216 125 89 75 67 115 472 816 571 349 768 644 1116 1528 1894 2453 3952 4599 4578 4107 4090 4077 4339 4269 3348 2656 1401 1419 642 815
0 0 0 0 0 0 0 0 1 30 52 51 53 84 84 110 53 65 43 32 90 540 719 283 395 900 1346 1376 2331 2589 3494 4413 4544 4256 4532 4568 4641 2714 2328 2773 1582 771 633 856
0 0 0 0 0 0 0 0 0 23 71 90 73 62 41 53 108 78 40 20 24 362 666 449 267 379 982 1342 2195 2641 3483 4139 4334 3238 4648 4682 4617 4462 2654 3201 3465 1702 1741 703
0 0 0 0 0 0 0 0 0 15 132 137 80 84 67 67 49 27 29 6 10 130 633 531 332 354 897 882 1501 2422 3071 3942 3641 3764 4137 3927 4284 4659 4431 4495 4161 2856 2343 1931
0 0 0 0 0 0 0 0 0 2 45 80 100 102 80 116 56 23 15 11 18 61 501 651 395 399 634 679 1041 1654 2295 3220 3457 3581 3696 3833 3711 3851 4517 4317 4078 3805 2606 2670
0 0 0 0 0 0 0 0 0 24 28 29 119 88 35 21 21 17 27 25 50 44 261 608 541 500 576 899 769 1037 1522 1582 2649 3060 3814 3886 4009 3961 3808 4364 4249 4189 3441 2714
0 0 0 0 0 0 0 0 0 0 11 164 99 16 19 33 55 61 40 6 32 67 84 518 666 695 761 879 1170 865 1374 1084 1462 2811 3043 3697 3691 4136 3873 4406 4276 4181 3661 3144
0 2 0 0 0 0 0 0 0 0 0 11 14 68 91 69 31 10 8 18 0 3 484 375 774 1326 1436 1667 1856 1737 1423 1058 1345 1798 2101 3089 3737 3765 3893 4382 4290 4343 4014 3034
0 0 0 0 3 7 0 0 0 0 0 3 4 53 62 96 94 33 7 5 0 0 195 866 1099 2330 2724 2519 2651 2527 2100 2269 1811 2401 2431 2942 3741 3980 4128 4119 4437 4395 3657 2711
0 0 0 2 2 1 6 10 0 0 0 0 0 0 23 36 163 57 0 0 0 3 21 937 1220 1703 3066 3016 3326 3262 3071 3059 2789 3370 3204 3519 4338 4131 4172 4404 4527 4369 3764 2785
0 14 8 5 24 77 77 1 2 7 8 0 0 0 0 9 53 57 16 7 0 1 67 250 1117 1533 2412 2500 3635 3523 3828 3418 3640 3969 4528 4299 4818 4753 4784 4624 4542 4130 3722 2411
3 49 45 61 174 215 0 78 31 20 32 35 24 2 0 9 11 24 0 1 59 187 235 176 963 1521 2558 2276 2394 3080 3080 4214 4333 4608 4476 4761 4835 5073 4932 4553 4347 3739 2676 1829
38 34 56 115 120 115 160 277 330 367 213 40 31 65 15 0 0 4 0 6 42 38 166 170 1198 1483 3009 2948 3527 3654 3475 3969 4236 4439 4584 4673 4739 4768 4779 4271 3805 2849 2164 1815
34 121 269 262 139 241 302 495 224 384 161 67 209 217 51 11 10 0 0 0 7 255 233 362 1421 1681 2672 3228 2600 3233 2973 3309 3641 3906 3859 4359 4452 4606 4203 3782 3163 2827 2245 1552
2 72 53 188 239 180 661 275 282 384 311 960 774 747 509 196 6 3 404 10 66 471 456 1544 1925 2759 3292 2861 2643 3613 3404 3197 3024 2911 3007 3634 3816 4184 4108 3652 2891 2463 2136 1409
11 85 80 243 177 193 432 469 468 845 893 969 975 854 812 791 20 571 847 851 909 897 1233 1825 2308 2468 2829 2986 3299 3752 3564 3535 3709 3708 3664 3754 4074 3356 3115 3084 2569 2033 1496 1301
160 77 129 377 475 666 452 555 635 732 1067 1055 1080 1044 964 652 922 1027 1349 1596 1757 1804 1699 1759 2036 2295 2691 3120 3176 3710 4618 4303 4160 3959 4254 3999 3467 2721 2650 2413 2055 1391 1239 1255
269 283 608 951 697 380 313 417 644 898 933 1191 1379 1171 1084 1253 1220 1291 1323 1368 1557 1756 1849 1921 2077 2249 3248 3616 3475 3606 3349 3481 3520 3739 2958 2683 2563 2098 1721 1652 1500 1205 1196 893
17 265 987 1009 517 408 218 240 352 337 435 724 968 928 1352 1356 1474 1452 1604 1312 1091 1064 1135 1471 1831 2059 2420 2687 2689 2731 2937 3178 3075 2265 1761 2159 1951 1446 1015 937 855 853 726 801
15 231 526 730 508 528 57 5 1 19 10 72 173 593 861 1197 1183 1004 1049 1326 1276 1137 1151 1271 1580 1969 2418 2587 2684 2769 2915 2721 2375 2120 1764 1574 1412 991 801 671 556 606 346 497

GFSCGP_con_mucape_018.txt.gz
CAPE
0 0 0 0 0 0 0 0 1 7 19 5 320 119 14 29 163 51 73 62 135 262 408 648 669 701 838 1449 2222 2379 2739 3512 3724 3399 2285 2568 2616 3007 2685 3066 2856 2564 3121 3213
0 0 0 0 0 0 0 0 8 30 40 62 143 416 189 211 235 118 65 27 23 38 224 615 821 716 876 1534 1945 2589 2763 3927 3340 3162 3031 2688 2425 2326 2545 1164 2885 2964 2960 3361
0 0 0 0 0 0 0 0 0 1 24 35 46 60 219 202 194 202 111 108 28 30 41 579 788 795 1051 1458 2155 2780 3083 3438 3059 3429 2922 3304 3083 2588 2500 2557 3078 2382 3210 3000
0 0 0 0 0 0 0 0 0 3 31 20 22 39 367 125 453 284 227 250 251 96 81 281 699 1061 1035 1520 2261 2909 3212 3317 3617 3110 3136 3110 2193 2454 2655 3014 2581 3151 2708 2728
0 0 0 0 0 0 0 0 0 0 5 80 191 76 240 315 395 558 328 295 277 552 178 129 561 885 1019 1531 1990 2799 3511 3768 3555 3754 3084 3158 2830 2392 2081 1886 3295 2906 3634 2511
0 0 0 0 0 0 0 0 0 0 1 25 43 56 141 270 104 18 258 371 503 496 569 336 429 751 1054 1340 2064 2228 3703 3747 3639 3884 3479 3721 2712 2310 2355 3099 2536 2578 2097 2078
0 0 0 0 0 0 0 0 0 1 27 8 51 119 109 154 142 44 0 157 583 701 743 606 520 833 1173 1368 1812 2457 3498 3711 3700 3910 3825 3395 3918 3421 3724 3973 2589 1785 945 1546
0 0 0 0 0 0 0 0 0 0 1 4 16 34 114 345 93 41 41 152 368 713 638 714 786 748 1274 1276 1866 2284 3407 3683 3976 3569 4179 3927 3808 3862 3033 3513 2655 2236 1786 1833
0 0 0 0 0 0 0 0 0 0 0 23 21 33 23 102 171 6 9 67 76 546 721 776 880 985 1403 1379 1611 2241 3391 3757 4022 3952 3842 4215 3663 3705 3251 3121 3133 2439 2180 2863
0 0 0 0 0 0 0 0 0 0 1 15 22 77 103 173 291 188 13 57 64 44 829 883 773 1083 1265 1549 1647 2266 2870 3649 4056 4015 3907 3870 3929 3594 3337 3322 3448 2300 2706 2169
0 0 0 0 0 0 0 0 0 0 0 2 26 30 156 393 593 436 120 49 49 21 593 715 877 706 1269 1466 1686 2026 2438 3442 3918 3887 3803 3954 3945 3965 3565 3886 3275 2995 3075 2296
0 0 0 0 0 0 0 0 0 0 0 0 0 20 73 199 163 303 127 124 69 71 216 640 970 724 858 1115 1377 1917 2310 2862 3473 3681 3550 3837 3983 3965 4038 3502 3988 3593 3121 3153
0 0 0 0 0 0 0 0 0 0 0 1 2 0 12 168 0 96 155 76 208 463 726 776 902 812 830 945 1318 1714 2094 2386 3155 3340 3286 3534 3473 3695 3672 4042 3458 3983 3422 2681
14 0 0 0 0 0 0 0 0 0 0 0 1 6 72 313 204 61 194 98 199 638 1486 933 811 1130 947 1124 1338 1483 1773 1964 2386 3023 3061 3154 3302 3370 3366 3607 3977 3797 3699 2975
0 1 0 0 0 3 0 0 0 0 0 0 0 0 80 167 470 242 390 52 223 666 857 1234 1264 2068 1613 1545 1530 1449 1469 1579 1711 2394 2673 2982 3276 3367 3481 3519 3873 3779 3930 3500
0 7 0 0 0 0 6 1 0 0 0 0 0 0 0 58 226 556 9 133 316 416 606 1415 1672 2757 3021 2056 1883 1556 1451 1544 1677 1857 2407 2758 3065 3444 3384 3781 3580 4121 3973 3830
12 2 39 0 0 4 54 0 1 0 0 0 0 0 4 43 75 295 592 219 377 257 330 888 1847 2006 2339 3174 2420 1856 1702 1904 1774 2330 2462 2567 3025 3393 3590 3598 3878 3835 3987 3940
91 17 5 6 27 67 0 3 0 3 8 2 0 0 0 0 0 4 21 164 255 404 322 659 378 1908 2411 1984 2546 2688 2400 2382 2702 2697 3023 3056 3386 3657 3779 3748 3806 4047 4085 3995
38 51 68 91 13 0 0 0 51 68 16 22 42 170 34 10 0 17 0 0 2 95 946 796 173 380 2611 2310 2929 3064 3367 2925 3128 3440 3950 3913 4544 4447 4301 4234 4309 4285 4290 3974
2 143 100 88 32 18 47 127 391 241 131 413 569 336 295 305 351 158 2 8 6 0 67 401 725 1215 2754 3104 2996 3534 3277 3741 3333 3597 4157 4576 4929 5096 4906 4903 4765 4640 3630 3189
54 112 100 57 22 1 277 511 302 284 290 945 885 779 633 623 896 1176 888 375 1087 324 44 253 2437 2538 3034 3577 3229 3665 3483 4005 3986 4103 4760 4741 4978 4992 5082 5068 4172 3283 3415 3304
58 7 97 244 161 184 598 175 158 851 941 685 786 732 922 1089 929 948 1117 1173 941 1428 536 1305 3833 4000 3991 3772 4190 4093 4171 4470 4580 4683 4592 4756 4925 4372 4515 4242 3337 2522 2961 3146
36 61 31 113 103 1672 648 1012 895 783 976 1536 1720 1324 766 724 957 899 1677 1355 1136 1979 2152 2091 3614 4332 4357 4307 4684 4350 4833 4303 4260 4150 4445 4607 4606 4179 3460 3205 2709 2717 2246 2522
198 327 332 289 767 891 777 786 957 1027 1388 1315 1682 1915 1930 1337 1483 1624 1688 1827 2509 2571 2335 3285 3401 3671 4205 4533 4533 4391 4008 4373 4213 4600 4426 3536 3349 3111 2855 2434 2623 2397 2553 1850
191 110 500 949 1189 681 686 691 710 775 851 699 809 1005 1277 1285 1279 1757 1998 2367 2608 2831 3174 3480 3526 3713 4501 4557 4250 4239 4305 4415 3944 3353 3089 3169 2994 2743 2303 2016 2415 1950 1637 972
18 119 439 987 390 529 531 280 102 31 169 236 631 658 672 616 584 782 830 1238 2005 2224 2552 2334 2398 2686 3273 3512 3651 4000 4007 3230 2911 2628 2726 2121 1692 1632 2040 1866 1277 893 635 633

GFSCGP_con_mucape_021.txt.gz
CAPE
0 0 0 0 0 0 0 0 0 0 22 49 17 16 20 32 3 17 69 31 98 101 149 318 259 442 714 1265 1081 1238 1329 1492 1280 1804 1776 2052 1688 1737 1412 1130 1475 1578 1555 1735
0 0 0 0 0 0 0 0 0 0 40 44 106 18 0 0 19 5 22 27 72 100 97 219 238 274 539 1107 1068 986 1393 2439 1577 1581 1793 1784 1567 1644 1720 1789 2050 1831 1761 1787
0 0 0 0 0 0 0 0 0 0 0 59 116 56 16 0 31 14 9 8 46 55 84 213 200 234 361 829 1201 1203 1303 2311 2184 1913 1694 1586 1566 1701 1576 1668 1607 1832 1871 1941
0 0 0 0 0 0 0 0 0 0 0 0 86 43 39 43 54 19 25 19 19 58 80 161 219 269 252 768 1305 1277 1486 2355 1800 1895 1570 1603 1309 1301 1398 1530 1817 1954 1831 1634
0 0 0 0 0 0 0 0 0 1 0 10 0 1 57 83 44 40 26 45 32 34 82 89 305 218 354 805 1089 1555 1574 1747 1811 2120 1498 1402 1351 1010 1336 1483 1468 2194 1882 1740
0 0 0 0 0 0 0 0 0 0 0 1 0 0 4 74 29 81 100 71 65 69 156 192 201 326 306 860 1219 1825 1789 1763 2202 1484 2031 1712 1920 1552 1424 1266 1841 2070 1601 1353
0 0 0 0 0 0 0 0 0 0 0 0 0 0 0 36 35 138 151 147 129 166 208 262 264 375 399 917 1462 1876 1884 1984 2160 2200 1809 1931 1980 1498 1269 1763 1577 1742 1420 821
0 0 0 0 0 0 0 0 0 0 0 0 0 0 0 59 56 217 199 47 151 113 210 282 316 246 540 724 1334 2054 2159 2108 2473 2363 2422 2031 2261 1840 1477 1877 1362 1128 944 807
0 0 0 0 0 0 0 0 0 0 0 0 0 0 0 22 65 101 77 40 26 2 299 348 337 268 476 639 1455 1545 2495 2319 2430 2649 2595 2290 2032 2526 2633 2328 1950 1147 639 910
0 0 0 0 0 0 0 0 0 0 0 0 0 0 0 0 36 87 35 32 40 22 191 426 356 288 485 662 1242 1566 2601 2504 2580 2122 2752 2834 2502 2203 2521 2702 1853 1772 1194 1546
0 0 0 0 0 0 0 0 0 0 0 0 0 0 0 0 109 91 36 27 54 6 82 430 339 343 621 746 1080 1582 2334 2538 2701 2651 2319 2794 3035 2556 2335 2684 2031 1682 1491 1009
0 0 0 0 0 0 0 0 0 0 0 0 0 0 0 0 97 122 94 52 26 3 185 420 493 414 830 850 887 1554 2636 2687 2817 2959 2752 2492 2866 2958 2496 2181 2291 2014 1507 1413
0 0 0 0 0 0 0 0 0 0 0 0 0 0 0 0 33 45 95 20 20 24 440 547 513 685 927 975 888 1406 2244 2842 2964 3044 3035 2892 2648 3003 2859 2375 2327 2613 1976 1741
38 0 0 0 0 0 0 0 0 0 0 0 0 0 0 10 40 0 57 21 22 52 113 580 615 637 866 1121 1168 1164 1723 2591 2918 3162 3049 2960 2902 2888 2960 2967 2387 2625 2858 2115
0 0 0 0 0 0 0 0 0 0 0 0 0 0 0 0 122 81 77 32 23 108 607 479 702 606 846 985 1132 1275 1487 1733 2643 2944 3050 2826 2887 2969 2998 2963 3144 2582 2711 2887
0 0 0 0 0 0 0 0 0 0 0 0 0 0 0 0 152 165 90 145 35 0 670 641 830 676 541 720 942 1162 1452 1645 1831 2693 2825 2814 2654 2855 2838 2979 2971 3292 2860 2939
0 0 0 0 0 0 0 0 0 0 0 0 0 0 0 0 0 212 312 103 20 15 505 529 635 940 601 712 857 1067 1335 1545 1735 1994 2616 2677 2642 2700 2755 2809 2887 3149 3336 3122
0 0 0 0 3 0 0 0 0 0 1 0 0 0 0 0 0 0 0 8 0 36 220 770 989 1445 1539 1018 923 1061 1183 1476 1590 1696 2155 2453 2531 2556 2715 2837 2998 2956 3359 3261
0 0 0 0 0 0 0 0 0 1 0 6 76 17 52 14 0 0 0 0 0 1 17 52 824 1114 1457 1827 1259 1063 1103 1288 1380 1408 1572 2092 2301 2546 2606 2896 2881 3137 3058 3365
0 0 0 0 0 0 0 0 4 266 127 697 488 384 246 90 32 97 631 473 278 9 0 3 26 424 1499 1503 2167 1832 1494 1301 1304 1281 1762 1933 2131 2378 2761 2940 3027 3135 3297 3542
4 59 25 1 0 0 0 0 271 251 198 718 636 606 588 503 525 449 482 343 518 540 54 0 0 270 1378 1651 2349 2150 1989 1750 1734 1836 2072 2391 2725 2808 3120 3142 3286 3621 3700 3681
38 0 0 14 0 0 421 226 297 381 952 973 595 516 479 513 389 286 384 542 362 1090 1001 327 0 1004 1810 1968 2475 2593 2698 2303 2079 3665 3194 4407 4111 4105 4125 3922 3975 3753 3290 3650
1 2 41 78 664 575 947 941 877 1484 1464 1663 1680 1735 1782 1730 1757 1952 2295 2282 2217 2116 3083 3192 3203 3267 3179 2804 2901 3055 3791 3775 3852 3807 4131 4425 4463 4580 4374 4275 3761 3220 3741 3709
11 85 79 297 224 151 371 463 1361 1219 1117 1293 1281 1471 1437 1477 1666 1977 2286 2475 2748 2954 3174 3187 3216 3716 4110 4129 4031 4119 3915 3860 3905 3899 3938 3938 3906 3928 4039 4004 3212 3336 3106 2321
10 9 159 185 414 671 911 1116 855 966 822 558 857 1188 1451 1439 1544 1629 1584 1840 2296 2662 3153 3478 3893 3759 3803 3790 3851 3709 3690 3693 3687 3700 3703 3621 3525 3446 3381 3256 2998 2664 2074 1749
0 98 158 208 3 0 289 234 563 532 431 396 697 887 875 1154 1131 1077 1116 1339 1687 2035 1875 2458 3394 3517 3626 3691 3638 3593 3531 3436 3425 3325 2629 2840 3015 2987 2894 2750 2268 1817 1493 1382

GFSCGP_con_mucape_024.txt.gz
CAPE
0 0 0 0 0 0 0 0 0 0 0 5 22 24 2 403 461 491 514 470 414 337 312 274 531 523 471 512 876 846 883 908 1412 1261 1308 1255 934 963 1168 1173 926 1242 1426 1327
0 0 0 0 0 0 0 0 0 0 0 2 38 37 7 82 224 284 313 319 379 319 323 320 313 589 629 814 948 907 877 808 915 1057 1114 1251 1133 1092 1146 1285 1007 796 1064 1429
0 0 0 0 0 0 0 0 0 0 0 17 21 29 6 1 22 91 156 172 210 164 175 278 293 402 590 815 881 900 902 899 893 965 1266 1395 1272 1420 1423 1421 1476 1669 1421 1443
0 0 0 0 0 0 0 0 0 0 0 0 6 2 14 20 3 0 45 97 137 109 66 98 226 200 344 612 786 784 1046 1132 1007 1045 1340 1309 1363 1360 1186 1286 1378 1623 1458 1467
0 0 0 0 0 0 0 0 0 0 0 1 0 0 0 15 0 0 1 60 62 60 40 38 124 174 220 469 621 667 988 1605 1376 1228 1204 1318 1187 1053 936 1109 1262 1390 1606 1437
0 0 0 0 0 0 0 0 0 0 0 0 0 0 0 0 1 0 22 33 37 67 27 1 58 98 111 340 666 676 700 1512 1604 1426 1285 1227 1173 1016 817 962 1132 1481 1453 1427
0 0 0 0 0 0 0 0 0 0 0 0 0 0 0 0 0 0 1 16 21 85 54 20 48 65 101 220 631 803 803 1014 1456 1573 1468 1326 1162 1014 857 799 1123 1360 1570 1424
0 0 0 0 0 0 0 0 0 0 0 0 0 0 0 0 0 0 17 11 22 77 68 73 65 121 165 208 637 1005 957 894 1280 1379 1421 1275 1219 1080 1094 1253 1117 1297 1299 1352
0 0 0 0 0 0 0 0 0 0 0 0 0 0 0 0 0 0 14 33 27 117 93 114 96 127 217 273 742 1128 1146 1035 1383 1332 1174 1434 1561 1377 1366 1516 1349 1451 1292 1114
0 0 0 0 0 0 0 0 0 0 0 0 0 0 0 0 0 0 16 28 28 124 129 163 110 118 212 249 834 1099 1329 1235 1398 1659 1519 1355 1317 1722 1744 1673 1475 1371 1229 1007
0 0 0 0 0 0 0 0 0 0 0 0 0 0 0 0 0 0 13 40 70 166 178 199 164 129 191 295 872 1297 1505 1379 1666 1753 1752 1796 1639 1340 1722 1921 1887 1556 1370 1157
0 0 0 0 0 0 0 0 0 0 0 0 0 0 0 0 0 0 0 115 205 247 146 209 201 173 220 418 903 1319 1849 1638 1771 2031 2039 2032 1939 1830 1633 1779 2167 2222 1720 1383
0 0 0 0 0 0 0 0 0 0 0 0 0 0 0 0 0 0 31 14 71 190 145 76 269 343 378 424 706 1240 1895 1999 1976 2027 2064 2308 2350 2225 1901 1671 1752 2201 2310 1515
0 0 0 0 0 0 0 0 0 0 0 0 0 0 0 0 0 0 0 0 72 92 105 58 229 286 410 513 671 1207 1526 2183 2211 2284 2063 2041 2367 2610 2349 2025 1789 1829 2193 2038
0 0 0 0 0 0 0 0 0 0 0 0 0 0 0 0 0 0 0 0 91 110 61 70 279 341 567 616 694 1046 1622 2151 2310 2432 2474 2259 2183 2425 2657 2435 2119 1926 2137 2115
0 0 0 0 0 0 0 0 0 0 0 0 0 0 0 0 0 0 0 7 37 54 77 27 374 507 504 714 808 894 1443 2306 2429 2586 2630 2629 2536 2401 2441 2642 2581 2317 2064 2442
0 0 0 0 0 0 0 0 0 0 0 0 0 0 0 0 0 0 0 0 0 14 13 67 341 353 589 829 912 913 1317 2104 2526 2627 2752 2727 2703 2686 2650 2608 2695 2797 2590 2217
0 0 0 0 0 0 0 0 0 0 0 0 0 0 0 0 0 0 0 13 1 19 3 433 471 628 783 865 1001 1138 1158 1638 2364 2499 2713 2827 2721 2672 2714 2775 2761 2727 2905 2799
0 0 0 0 0 0 0 0 0 0 0 0 0 0 0 0 0 0 0 0 0 0 0 75 640 634 628 843 888 1058 1284 1504 1799 2193 2509 2716 2699 2592 2659 2693 2723 2732 2831 2981
0 0 0 0 0 0 0 0 0 0 0 153 0 0 0 0 0 6 81 76 0 0 0 19 709 1151 1021 715 817 869 1089 1400 1645 1885 1976 2514 2566 2521 2512 2619 2587 2660 2736 2953
0 0 0 0 0 0 0 0 27 2 22 300 158 30 1 22 54 135 184 75 142 22 215 179 20 414 1055 1251 916 806 883 1039 1481 1689 1820 1959 2476 2478 2472 2499 2641 2666 2751 2847
0 0 0 0 0 0 111 60 5 200 629 358 390 87 39 776 1807 2107 1726 1190 737 345 196 469 306 0 46 942 1466 1171 923 946 1144 1367 1550 1641 2008 2319 2331 2420 2647 2675 2824 2771
8 80 0 0 76 239 301 1085 1055 1212 1270 1088 1140 1063 1268 1598 1897 2244 2528 2653 2839 2765 2778 2652 857 157 2 671 1460 1388 1456 1283 1198 1220 1248 1565 1770 1996 2330 2557 2750 2735 2817 2735
141 185 46 0 166 400 731 1010 1136 1157 1041 1183 1197 1024 1439 1926 2069 2299 2492 2728 2914 3044 3085 3144 3086 2378 2316 1857 1156 1481 1516 1451 1498 1639 1819 2621 2860 3073 2903 2798 2722 2687 2777 2930
46 107 97 0 66 234 702 661 849 790 821 1136 1219 1240 1380 1688 1831 2112 2276 2386 2646 2877 3004 3158 3321 3200 3105 2865 2599 2777 2755 1990 2749 3059 3169 3327 3076 2979 2870 2731 2662 2708 2602 2371
37 166 16 85 11 143 419 376 377 458 459 673 1138 1287 1364 1370 1386 1443 1673 1841 1844 1829 2051 2178 2245 2351 2175 2567 2779 3137 3002 2719 2613 2773 3147 3265 3325 3454 3404 3129 2578 1906 1457 932

GFSCGP_con_mucape_027.txt.gz
CAPE
0 0 0 0 0 0 0 0 0 0 0 0 0 0 438 434 474 523 802 833 885 799 787 774 625 563 531 541 649 545 607 602 614 739 670 695 987 914 798 899 887 1063 1022 1181
0 0 0 0 0 0 0 0 0 0 0 0 0 0 16 428 441 439 475 593 715 785 658 692 656 650 575 487 477 487 569 541 529 724 741 892 985 642 652 979 1040 920 1090 1277
0 0 0 0 0 0 0 0 0 0 0 1 0 0 0 313 469 476 420 374 363 344 381 241 280 413 457 463 391 491 529 483 518 691 821 1008 947 832 864 862 1034 1047 918 1105
0 0 0 0 0 0 0 0 0 0 0 0 0 0 0 24 426 478 481 401 316 238 216 157 162 329 366 410 413 511 525 548 593 721 955 924 767 656 887 1055 1176 1188 1349 1021
0 0 0 0 0 0 0 0 0 0 0 0 0 0 0 0 43 220 319 318 311 261 216 169 111 234 352 341 416 577 587 585 636 707 781 812 699 669 927 1062 1222 1219 1325 1445
0 0 0 0 0 0 0 0 0 0 0 0 0 0 0 0 0 0 49 139 146 168 183 193 185 169 269 361 563 565 568 618 672 717 640 729 815 841 850 1002 1037 1050 1199 1419
0 0 0 0 0 0 0 0 0 0 0 0 0 0 0 0 0 0 0 0 8 50 94 111 103 109 202 282 587 638 601 775 771 714 730 876 919 870 754 786 797 844 1053 1292
0 0 0 0 0 0 0 0 0 0 0 0 0 0 0 0 0 0 0 0 4 0 26 74 63 48 80 149 379 559 605 838 1013 969 911 928 1006 988 870 900 938 729 1052 1352
0 0 0 0 0 0 0 0 0 0 0 0 0 0 0 0 0 0 0 0 0 24 20 57 91 65 60 81 200 475 519 688 1156 1146 1011 980 1031 1027 952 1050 973 679 929 1135
0 0 0 0 0 0 0 0 0 0 0 0 0 0 0 0 0 0 0 0 0 14 15 61 94 98 61 52 84 419 544 546 843 1205 1124 1000 1029 1047 1090 1048 934 849 1020 1110
0 0 0 0 0 0 0 0 0 0 0 0 0 0 0 0 0 0 0 0 0 0 5 50 103 147 117 66 42 320 596 616 639 952 1106 1123 1089 1096 1082 1051 929 1079 1330 1259
0 0 0 0 0 0 0 0 0 0 0 0 0 0 0 0 0 0 0 0 0 0 4 27 100 176 150 112 74 357 666 716 703 938 976 962 1024 1177 1305 1177 1118 1198 1441 1301
0 0 0 0 0 0 0 0 0 0 0 0 0 0 0 0 0 0 0 0 0 0 5 9 17 111 164 133 111 509 718 912 839 978 1132 1124 1105 1087 1123 1340 1471 1491 1575 1607
0 0 0 0 0 0 0 0 0 0 0 0 0 0 0 0 0 0 0 0 0 1 32 42 37 68 165 138 169 574 884 1049 1026 1170 1294 1338 1393 1394 1290 1170 1241 1469 1472 1635
0 0 0 0 0 0 0 0 0 0 0 0 0 0 0 0 0 0 0 0 0 0 0 45 64 146 218 243 233 554 964 1288 1209 1357 1536 1518 1547 1593 1553 1463 1365 1346 1479 1499
0 0 0 0 0 0 0 0 0 0 0 0 0 0 0 0 0 0 0 0 0 0 0 0 82 270 217 216 190 468 933 1547 1494 1534 1682 1708 1777 1857 1848 1775 1632 1525 1430 1489
0 0 0 0 0 0 0 0 0 0 0 0 0 0 0 0 0 0 0 0 0 0 0 2 40 116 96 150 252 450 918 1259 1813 1797 1800 1777 1736 1843 2069 2119 1993 1822 1697 1595
0 0 0 0 0 0 0 0 0 0 0 0 0 0 0 0 0 0 0 0 0 0 0 17 86 82 226 227 364 523 819 1326 1867 1953 2017 2072 1948 1906 1907 2065 2210 2126 1951 1839
0 0 0 0 0 0 0 0 0 0 0 0 0 0 0 0 0 0 0 0 0 0 0 0 56 70 234 369 595 724 836 1346 1915 2043 2111 2197 2282 2196 2116 2080 2138 2217 2214 2069
0 0 0 0 0 0 0 0 0 0 0 0 0 0 0 0 0 0 0 0 0 0 0 0 18 178 261 550 781 871 859 1199 1863 2125 2191 2307 2364 2320 2288 2275 2251 2256 2319 2422
0 0 0 0 0 0 0 0 4 0 0 0 0 0 0 0 0 0 0 0 0 0 0 0 0 311 495 621 850 983 981 985 1406 1979 2198 2252 2428 2409 2338 2319 2282 2359 2389 2459
32 0 2 0 0 0 0 26 74 48 0 0 0 0 0 0 359 309 282 694 745 786 1125 876 55 46 671 676 737 935 1046 1154 1199 1419 1712 2077 2222 2482 2423 2365 2460 2491 2554 2625
44 82 0 0 0 0 6 86 561 397 182 346 2 360 1142 1442 1494 1658 2005 2291 2515 2616 2720 2700 2468 2161 2008 32 900 797 961 1047 1140 1268 1392 1553 1845 2318 2391 2383 2408 2427 2489 2555
90 137 71 163 79 6 129 247 836 837 694 717 894 1160 1409 1711 1848 2054 2267 2495 2792 2976 2913 3047 3054 2826 2513 2434 2301 827 1043 940 874 997 1270 1370 1441 1939 2195 2305 2361 2491 2620 2618
57 161 36 125 90 18 188 330 416 779 942 960 1310 1478 1546 1749 1787 1832 1992 2177 2372 2533 2551 2670 2734 2736 2712 2543 2633 2695 2168 2022 1319 1024 941 1100 1249 1549 1930 2145 2341 2550 2662 2563
125 92 117 67 18 12 67 343 448 649 839 1022 1331 1584 1789 1818 1844 1817 1817 1806 1787 1781 1827 1981 1957 1983 1931 1731 1357 1064 2071 2443 1784 1877 1409 1669 1534 1656 1904 2051 2463 2610 2481 2300

GFSCGP_con_mucape_030.txt.gz
CAPE
0 0 0 0 0 0 0 0 0 0 0 0 0 6 185 244 391 554 562 588 545 529 423 416 367 416 508 496 496 606 569 548 515 375 349 369 519 705 1027 609 616 738 856 995
0 0 0 0 0 0 0 0 0 0 0 0 0 0 95 313 353 431 582 590 614 594 525 512 442 288 376 481 460 512 571 545 580 445 324 386 432 610 1049 733 731 748 846 954
0 0 0 0 0 0 0 0 0 0 0 0 0 0 0 230 299 385 534 544 569 602 648 579 525 424 283 336 406 432 487 547 552 516 417 495 535 584 844 784 702 889 810 1020
0 0 0 0 0 0 0 0 0 0 0 0 0 0 0 15 257 279 285 459 567 597 629 556 544 534 492 411 369 312 348 462 480 478 462 546 625 619 610 726 565 740 867 833
0 0 0 0 0 0 0 0 0 0 0 0 0 0 0 0 115 289 307 281 284 430 460 570 496 425 479 476 500 426 330 375 384 415 456 464 544 613 621 637 592 693 884 958
0 0 0 0 0 0 0 0 0 0 0 0 0 0 0 0 0 137 262 335 342 289 314 310 309 250 249 292 318 347 355 317 290 323 443 474 494 505 572 479 614 858 1035 1146
0 0 0 0 0 0 0 0 0 0 0 0 0 0 0 0 0 11 50 130 282 373 373 327 226 153 105 173 193 179 233 288 306 308 344 484 536 523 508 466 530 660 875 1007
0 0 0 0 0 0 0 0 0 0 0 0 0 0 0 0 0 0 2 9 7 30 175 272 288 166 103 145 178 201 265 341 359 359 336 393 552 555 515 547 598 553 612 705
0 0 0 0 0 0 0 0 0 0 0 0 0 0 0 0 0 0 0 0 0 0 1 38 87 147 130 85 130 298 341 339 375 421 394 389 501 600 548 619 730 657 646 678
0 0 0 0 0 0 0 0 0 0 0 0 0 0 0 0 0 0 0 0 0 0 0 2 0 19 52 85 86 247 411 406 457 552 561 563 592 663 626 667 818 830 770 841
0 0 0 0 0 0 0 0 0 0 0 0 0 0 0 0 0 0 0 0 0 0 0 0 0 7 26 49 39 102 340 435 496 806 787 762 743 753 718 743 826 884 867 950
0 0 0 0 0 0 0 0 0 0 0 0 0 0 0 0 0 0 0 0 0 0 0 0 0 2 21 37 60 47 271 377 451 849 969 912 824 801 777 776 830 874 957 956
0 0 0 0 0 0 0 0 0 0 0 0 0 0 0 0 0 0 0 0 0 0 0 0 0 0 0 4 41 66 162 404 434 605 975 1009 923 848 842 836 831 909 996 987
0 0 0 0 0 0 0 0 0 0 0 0 0 0 0 0 0 0 0 0 0 0 0 0 0 0 0 0 35 66 145 350 502 518 768 922 1009 977 1019 1020 981 927 978 1028
0 0 0 0 0 0 0 0 0 0 0 0 0 0 0 0 0 0 0 0 0 0 0 0 0 0 5 21 36 109 172 371 556 637 725 879 900 932 984 1068 1158 1190 1115 1081
0 0 0 0 0 0 0 0 0 0 0 0 0 0 0 0 0 0 0 0 0 0 0 0 0 0 85 185 190 171 340 556 775 789 859 971 1067 1067 1080 1059 1032 1123 1280 1259
0 0 0 0 0 0 0 0 0 0 0 0 0 0 0 0 0 0 0 0 0 0 0 0 0 0 60 222 397 347 471 788 939 955 1024 1164 1236 1308 1353 1365 1271 1141 1171 1313
0 0 0 0 0 0 0 0 0 0 0 0 0 0 0 0 0 0 0 0 0 0 0 0 0 0 0 90 411 442 441 907 1138 1148 1186 1428 1503 1490 1536 1580 1529 1424 1303 1282
0 0 0 0 0 0 0 0 0 0 0 0 0 0 0 0 0 0 0 0 0 0 0 0 0 0 2 139 414 494 437 840 1356 1409 1422 1598 1730 1716 1732 1822 1853 1759 1588 1442
0 0 0 0 0 0 0 0 0 0 0 0 0 0 0 0 0 0 0 0 0 0 0 0 0 0 3 130 278 227 458 922 1294 1727 1746 1802 1797 1714 1682 1810 1990 2053 1985 1835
0 0 0 0 0 0 0 0 5 0 0 0 0 0 0 0 0 0 0 0 0 0 0 0 0 0 0 11 150 330 452 853 1278 1655 1882 1951 1977 1949 1817 1792 1859 1951 2153 2155
0 0 0 0 0 0 0 0 4 0 0 0 0 0 0 0 0 0 0 1 81 748 1435 405 419 281 0 164 420 548 638 795 1064 1586 1821 1962 2118 2202 2159 2162 2125 2098 2180 2296
0 0 0 0 0 0 0 0 6 7 13 24 3 0 0 0 33 641 1386 1868 2123 2344 2184 1848 1758 2029 2162 153 394 684 816 873 901 1074 1645 1973 2142 2369 2395 2393 2248 2213 2332 2434
37 14 19 15 0 0 52 8 54 70 97 295 268 355 629 815 1314 1881 2313 2382 2283 2390 2321 2056 1890 1773 1842 2283 2190 1927 1689 1442 877 776 1091 1393 1968 2228 2457 2393 2321 2277 2381 2444
0 1 0 7 0 118 57 10 78 215 351 606 795 1163 1215 1550 1783 1893 1883 1836 1704 1547 1427 1244 1224 1270 997 1089 887 872 1395 1909 1934 1420 1047 951 1293 1641 2248 2463 2406 2367 2369 2364
0 0 0 0 0 99 76 66 186 415 670 902 1221 1391 1400 1483 1446 1355 1329 1286 1189 1134 1205 1070 912 869 575 315 119 65 372 801 1255 1985 1831 1319 1177 1346 1974 2258 2253 2314 2294 2332

GFSCGP_con_mucape_033.txt.gz
CAPE
0 0 0 0 0 0 0 0 0 0 0 0 0 0 26 514 717 826 808 654 617 584 518 537 604 717 732 863 1006 1147 1137 1537 1080 919 731 504 307 423 831 1269 1591 1700 1766 2015
0 0 0 0 0 0 0 0 0 0 0 0 0 0 2 408 713 793 872 852 786 706 580 585 634 737 827 973 1124 1399 1574 1655 1355 1075 1093 612 736 607 1226 1657 1740 1756 1919 2239
0 0 0 0 0 0 0 0 0 0 0 0 0 0 0 143 465 658 901 840 835 833 747 726 699 735 858 1123 1307 1670 1991 1960 1620 1529 1037 907 1032 1227 1370 1601 1766 1853 2034 2280
0 0 0 0 0 0 0 0 0 0 0 0 0 0 0 6 391 553 659 850 866 925 856 838 827 842 778 1280 1238 1730 1816 2079 1700 2004 1478 1639 954 837 1016 1500 1738 1803 2052 2176
0 0 0 0 0 0 0 0 0 0 0 0 0 0 0 0 107 427 588 734 805 861 908 915 951 1173 926 832 945 1164 1806 1993 2014 1987 1946 1627 1618 1099 1121 1357 2156 2703 2229 2081
0 0 0 0 0 0 0 0 0 0 0 0 0 0 0 0 0 91 400 562 706 854 865 972 1034 1075 992 866 771 839 1678 1896 1990 1956 2009 2163 2144 1959 1378 1479 1473 1470 1525 1693
0 0 0 0 0 0 0 0 0 0 0 0 0 0 0 0 0 0 105 477 560 636 902 969 1081 1064 1268 1381 1232 1200 1558 1723 1850 1789 1874 2024 2093 2298 2321 2059 1485 1793 1504 1573
0 0 0 0 0 0 0 0 0 0 0 0 0 0 0 0 0 0 0 83 466 634 608 704 1067 1327 1194 1131 1421 1257 1432 1639 1756 1701 1813 1988 2137 1641 1828 1864 1388 1440 1376 1639
0 0 0 0 0 0 0 0 0 0 0 0 0 0 0 0 0 0 0 0 100 411 623 707 831 1019 1032 1030 1273 1397 1391 1551 1677 1628 1753 1862 1997 2034 1885 2197 2273 1526 2175 1537
0 0 0 0 0 0 0 0 0 0 0 0 0 0 0 0 0 0 0 0 0 50 233 492 820 1044 1050 789 1180 1347 1345 1506 1629 1669 1678 1660 1760 1976 2062 2246 2224 2161 2212 2055
0 0 0 0 0 0 0 0 0 0 0 0 0 0 0 0 0 0 0 0 0 0 30 67 513 893 1123 842 900 1258 1409 1550 1705 1743 1757 1766 1737 1849 2021 2105 2207 2283 2380 2095
0 0 0 0 0 0 0 0 0 0 0 0 0 0 0 0 0 0 0 0 0 1 65 28 31 274 467 1031 984 923 1337 1477 1632 1727 1847 1883 1943 1959 2021 2121 2209 2316 2400 2279
0 0 0 0 0 0 0 0 0 0 0 0 0 0 0 0 0 0 0 0 0 0 0 17 2 52 548 823 975 905 1062 1174 1347 1740 1815 1934 1982 2077 2140 2261 2290 2331 2415 2461
0 0 0 0 0 0 0 0 0 0 0 0 0 0 0 0 0 0 0 0 0 0 1 26 63 418 599 804 1001 1018 1067 1139 1258 1486 1826 2078 2179 2174 2182 2333 2357 2347 2450 2488
0 0 0 0 0 0 0 0 0 0 0 0 0 0 0 0 0 0 0 0 0 0 0 26 142 822 977 1061 1173 1072 1067 1346 1406 1696 1784 2076 2293 2390 2352 2402 2421 2406 2447 2426
0 0 0 0 0 0 0 0 0 0 0 0 0 0 0 0 0 0 0 0 0 0 0 0 152 389 495 959 1147 1084 1189 1267 1597 1795 1766 2051 2405 2508 2438 2444 2449 2507 2490 2523
0 0 0 0 0 0 0 0 0 0 0 0 0 0 0 0 0 0 0 0 0 0 0 0 0 79 554 580 1057 1088 1238 1324 1607 1861 1935 2050 2302 2499 2534 2536 2598 2615 2600 2584
0 0 0 0 0 0 0 0 0 0 0 0 0 0 0 0 0 0 0 0 0 0 0 0 0 0 459 298 222 977 1182 1545 1711 1931 2069 2107 2212 2370 2402 2474 2514 2672 2701 2762
0 0 0 0 0 0 0 0 0 0 0 0 0 0 0 0 0 0 0 0 0 0 0 0 0 0 225 484 841 1133 1312 1702 1913 2099 2189 2237 2026 2059 2440 2497 2535 2541 2567 2670
0 0 0 0 0 0 0 0 0 0 0 0 0 0 0 0 0 0 0 0 0 0 0 0 0 0 0 293 408 1184 1208 1718 2114 2262 2285 2348 2407 2464 2603 2696 2727 2765 2729 2675
0 0 0 0 0 0 0 0 7 3 0 0 0 0 0 0 0 0 0 0 0 0 0 0 0 140 426 422 681 1435 1619 1996 2118 2001 2178 2576 2830 2791 2771 2976 3018 3064 2828 2783
0 0 0 0 0 0 0 0 0 17 1 0 0 0 0 0 0 76 0 0 1 428 201 0 0 22 149 727 1237 2023 2345 2119 2093 2419 2742 3206 3212 2602 2580 3125 2911 3093 2987 3434
0 0 0 0 0 0 0 0 0 2 0 0 10 0 0 0 0 122 0 1099 1712 2212 2132 2267 2280 1588 993 1140 1614 1889 1789 1870 2257 2565 2998 3023 3134 3194 3418 3263 2955 2879 3391 3244
4 42 17 0 0 0 0 0 0 62 56 64 39 21 3 38 273 114 1296 2542 2875 2179 2344 2437 2300 2001 1546 1589 1936 2167 2220 1989 2276 2572 3005 3172 3132 3175 3465 3141 2510 2912 2997 3122
0 26 0 0 0 0 0 0 0 0 0 3 42 96 378 576 868 1336 1976 1896 1668 1482 1285 955 612 505 496 518 442 505 1716 2645 2354 2123 2183 2467 2735 2835 3361 3588 3480 3202 3435 3166
0 0 0 0 0 56 0 0 40 130 22 29 30 882 1027 687 948 1280 1379 1352 1032 854 938 970 815 586 311 100 29 120 297 1100 2678 2669 2025 1655 1845 2234 2661 3096 2694 2757 2740 2705

GFSCGP_con_mucape_039.txt.gz
CAPE
0 0 0 0 0 0 0 6 11 91 22 25 53 77 50 85 317 595 1064 1202 1162 1023 733 647 719 598 578 717 992 1958 1980 2879 2092 1533 1319 1183 720 847 547 438 845 1307 1689 2031
0 0 0 0 0 0 0 5 29 43 23 6 61 54 72 106 330 569 923 1068 1140 1089 958 632 725 630 525 809 1574 2424 2758 3431 2973 1890 2176 1307 1407 435 394 305 1789 1514 2035 2462
0 0 0 0 0 0 0 0 0 17 33 3 11 33 81 83 161 583 787 886 1018 1161 1164 948 725 733 655 1012 1982 2344 3125 3444 3124 2824 2418 2254 1506 1241 364 454 871 1711 2129 2474
0 0 0 0 0 0 0 0 0 0 10 35 0 31 39 41 104 261 717 845 893 1063 1199 1215 843 742 706 1075 1346 2744 3452 3682 3459 3524 2149 2415 967 480 214 461 500 1672 2605 2437
0 0 0 0 0 0 0 0 0 0 0 7 12 47 46 47 57 93 177 582 777 923 1144 1238 1137 785 704 898 1036 2119 3733 3933 3708 3617 3095 2008 1935 445 386 384 1874 2622 3740 2725
0 0 0 0 0 0 0 0 0 0 0 0 0 0 9 18 62 77 82 109 438 776 993 1255 1267 976 697 623 865 1858 3520 4155 4213 4088 3756 4045 2643 2048 881 955 1077 1364 1533 2454
0 0 0 0 0 0 0 0 0 0 0 0 0 0 0 4 15 41 43 111 150 625 1079 1206 1255 1117 1032 1161 1538 2004 3438 4207 4295 4224 3873 3773 3709 3339 4059 3209 1279 1846 1276 1125
0 0 0 0 0 0 0 0 0 0 0 0 0 0 0 0 3 19 27 81 130 288 908 1194 1340 1307 1626 1498 1980 2020 3287 4203 4362 4177 4226 4220 4215 2671 2460 2814 1687 1520 1296 1233
0 0 0 0 0 0 0 0 0 0 0 0 0 0 0 0 0 0 0 13 32 164 796 1079 1274 1423 1879 1723 2230 2467 3198 4015 4277 4129 4239 4387 4314 3965 2768 3140 3566 2597 2796 1534
0 0 0 0 0 0 0 0 0 0 0 0 0 0 0 0 0 0 0 0 0 61 609 1089 1197 1409 1987 1698 1913 2543 3068 3941 4192 4046 4208 4245 4345 4357 3945 3916 3977 3200 3335 3723
0 0 0 0 0 0 0 0 0 0 0 0 0 0 0 0 0 0 0 0 0 0 376 996 1226 1333 1714 1785 1821 2215 2750 3673 4089 4189 4162 4170 4211 4119 4352 4092 4149 4112 4082 4442
0 0 0 0 0 0 0 0 0 0 0 0 0 0 0 0 0 0 0 0 0 0 154 838 928 1248 1394 1716 1918 2123 2528 2459 3573 3655 4175 4143 4197 4104 4164 4278 4157 4315 4402 4246
0 0 0 0 0 0 0 0 0 0 0 0 0 0 0 0 0 0 0 0 0 1 40 273 685 1045 1032 1302 2162 1950 2446 2318 2374 3264 3371 4040 4067 4156 4061 4253 4291 4371 4410 4447
0 0 0 0 0 0 0 0 0 0 0 0 0 0 0 0 0 0 0 0 0 0 0 49 208 453 634 1192 2260 2583 2033 2158 2325 2596 2918 3582 4060 4013 4031 4126 4387 4307 4481 4481
0 0 0 0 5 0 0 0 0 0 0 0 0 0 0 0 0 0 0 0 0 0 0 0 1 114 885 1678 2644 3040 2075 2457 2230 3057 3205 3556 4094 4250 4225 4180 4312 4339 4456 4471
0 0 0 0 0 0 0 0 0 0 0 0 0 0 0 0 0 0 0 0 0 0 0 0 0 43 336 743 1499 2354 3107 2658 2512 3368 3219 3611 4140 4340 4379 4413 4375 4547 4472 4532
0 0 0 0 0 0 0 0 0 0 0 0 0 0 0 0 0 0 0 0 0 0 0 0 0 0 95 652 1261 1579 2797 2854 2946 3194 3902 3758 4194 4308 4488 4576 4612 4536 4591 4614
0 0 0 0 0 0 0 0 0 0 0 0 0 0 0 0 0 0 0 0 0 0 0 0 0 0 73 66 44 1196 1399 3537 3524 3831 3544 4101 4101 4381 4505 4638 4660 4699 4688 4659
0 0 0 0 0 0 0 0 0 0 0 0 0 0 0 0 0 0 0 0 0 0 0 0 0 0 105 0 4 68 690 2641 3727 3777 4007 3834 4343 4402 4625 4653 4649 4705 4707 4711
0 0 0 0 0 0 1 0 0 0 0 0 0 0 0 0 0 0 20 21 202 147 68 135 3 0 0 4 0 5 67 638 3438 3799 4119 4295 4440 4534 4640 4720 4872 4837 4748 4670
0 0 0 0 0 0 0 21 6 0 147 20 1 0 11 21 145 285 157 84 135 355 549 422 329 44 372 380 99 968 1215 1259 2231 3395 3893 4437 4551 4690 4618 4733 4919 4907 4769 4364
0 0 0 0 0 0 0 0 6 8 48 9 6 11 5 1 0 1 36 99 193 360 704 676 468 639 558 596 830 2270 2840 2873 3580 3641 3892 4270 4578 4239 4042 4850 4917 5033 4877 4781
0 0 0 0 0 1 0 1 4 0 0 0 0 0 0 0 0 0 0 3 106 672 1368 1068 357 890 975 1072 1484 2988 4019 4640 4389 4355 4596 4623 4741 4717 4565 4774 4991 4591 4783 4222
28 19 1 0 0 0 0 0 0 0 0 0 0 0 0 0 0 0 0 0 114 876 1556 1456 1639 1698 1995 2155 2476 2908 3601 3756 4473 4630 4866 4792 4875 4801 4653 3952 3959 3861 3644 3723
45 41 34 11 0 0 1 0 0 0 0 0 0 0 0 0 0 0 0 1 177 1061 1986 2539 2796 2877 2653 3109 3256 3223 3406 3492 3428 3739 3654 3974 3762 3990 4462 4259 3620 3594 4062 3267
10 35 19 0 33 40 19 14 3 0 0 0 0 0 0 0 0 0 0 96 537 1905 2601 2495 2401 2451 2079 2383 2731 3254 3703 3414 3568 3576 3560 3485 3450 3879 3767 3972 3959 3249 3100 3090

GFSCGP_con_mucape_042.txt.gz
CAPE
0 0 0 0 0 0 12 10 0 46 109 22 22 19 52 21 32 682 608 940 744 706 722 837 667 596 764 1086 1635 1593 1965 2549 2078 1841 1701 1680 1175 1466 1758 1877 2214 3105 3129 3237
0 0 0 0 0 0 0 2 1 2 67 38 37 25 22 71 80 682 852 938 913 698 668 876 827 625 579 1006 1597 1948 1933 2600 2399 2017 1903 1685 1994 1314 1303 1591 2507 2571 2776 3094
0 0 0 0 0 0 0 0 0 13 19 4 18 40 71 33 2 214 728 830 928 1007 826 802 859 735 629 1224 1579 2002 2101 2847 2637 2262 2383 2700 2483 2680 1867 1294 1394 2207 2842 3252
0 0 0 0 0 0 0 0 0 10 62 58 51 56 104 46 90 247 461 545 993 1122 1136 908 962 905 781 1074 1463 2041 2242 2379 2724 2707 2103 2354 1409 1124 985 1263 1238 1855 2279 2721
0 0 0 0 0 0 0 0 0 0 0 6 18 23 77 55 88 278 407 558 646 1117 1091 1055 909 957 894 1032 1485 1953 2356 2541 2834 2167 2911 2026 1855 1168 1094 1338 1597 2417 2819 3243
0 0 0 0 0 0 0 0 0 0 0 1 0 16 46 35 32 59 205 705 703 974 1201 1346 1109 1047 974 1128 1631 1865 2582 2677 2955 2887 2318 3335 1995 1893 960 1047 1471 2127 2847 2756
0 0 0 0 0 0 0 0 0 0 0 0 0 0 0 22 65 39 235 206 806 933 1197 1523 1500 1222 1068 1196 1546 1891 2754 2810 2866 3138 2684 2311 3415 1991 2467 3258 1055 1508 1800 2402
0 0 0 0 0 0 0 0 0 0 0 0 0 0 0 0 3 25 111 102 233 615 1016 1337 1652 1460 1243 1172 1430 1813 2765 3005 3227 3080 3181 2633 2940 2833 1641 2592 1732 1281 1730 1898
0 0 0 0 0 0 0 0 0 0 0 0 0 0 0 0 0 4 33 129 155 413 696 1101 1745 1636 1429 1212 1405 1619 2308 3004 3233 3069 3292 3333 2495 3152 2289 1855 2735 2677 2099 2552
0 0 0 0 0 0 0 0 0 0 0 0 0 0 0 0 0 0 11 37 153 294 635 1282 1627 1725 1585 1313 1362 1661 2189 2784 3236 3341 3233 3422 3274 2928 2760 2410 2809 2339 3304 2694
0 0 0 0 0 0 0 0 0 0 0 0 0 5 23 22 0 2 2 0 38 365 613 1028 1564 1781 1831 1549 1464 1636 1900 2880 3354 3514 3569 3495 3565 3267 2972 2684 2913 3488 2859 4182
0 0 0 0 0 0 0 0 0 0 0 0 0 1 0 1 0 0 0 0 4 194 767 983 1438 1674 1979 1899 1693 1748 1962 2355 3228 3781 3784 3594 3600 3834 3562 3055 2945 3210 3788 3239
1 0 0 0 1 0 0 0 0 0 0 0 0 0 0 3 7 0 0 5 80 302 883 1089 1260 1551 1919 2096 2090 1909 1993 2096 3034 3590 3887 3882 3788 3779 3832 3694 3145 3264 3188 3812
0 0 0 0 0 0 0 0 0 0 0 0 0 0 0 0 0 4 13 72 142 650 736 1018 1107 1578 1769 2144 2343 2360 2232 2192 2328 3219 3624 3759 4005 3917 3908 3856 3924 3372 3617 3243
0 0 0 0 0 7 0 0 0 0 0 0 0 0 0 1 0 0 26 135 324 703 462 981 1089 1930 2013 2305 2549 2623 2524 2616 2534 2508 3239 3355 3640 3998 3909 3912 3998 4079 3725 3803
0 0 0 0 0 1 0 0 0 0 0 0 0 6 0 0 0 1 74 46 129 231 128 218 83 844 1670 3125 2828 2727 2696 2874 2800 2967 2946 3233 3523 3648 3995 3870 3862 4007 4165 4014
0 0 0 0 0 0 0 0 1 0 0 0 0 15 18 3 6 0 0 0 0 0 0 1 47 570 1245 1583 3020 3274 2892 2747 3197 3134 3480 3478 3672 3868 4002 4030 4024 3938 4126 4152
9 0 0 0 30 0 0 1 0 2 1 0 0 34 176 144 73 2 0 0 12 0 0 35 0 92 573 122 169 1633 3139 3472 3141 3994 3448 3937 4110 3949 4121 4145 4106 4164 4088 4218
0 0 0 0 43 0 0 0 0 0 0 9 26 2 5 1 2 3 0 0 0 0 22 14 39 25 1528 1193 1821 1763 2066 3425 3703 3299 4110 3523 4176 4076 4159 4243 4182 4177 4253 4214
0 0 0 0 31 2 0 0 0 0 0 36 3 2 0 0 0 311 621 250 218 344 697 1114 919 853 1029 1945 1053 2421 2120 2808 3377 3339 3312 4151 3549 4190 4209 4264 4341 4351 4346 4349
0 0 0 0 0 0 0 0 0 0 70 27 34 61 3 51 356 258 116 68 164 482 784 1057 1293 1424 1629 1563 1641 2418 2618 1611 2935 3557 3647 3790 4295 3871 4287 4360 4480 4443 4402 4387
0 0 0 0 0 1 0 0 0 21 78 0 1 0 0 0 0 1 10 10 63 281 517 1386 1552 1911 1876 1764 2089 3079 3058 4410 4108 3443 4155 4298 4512 4056 3934 4489 4625 4561 4537 4471
1 0 0 0 0 13 2 0 0 0 32 24 0 0 0 0 0 0 0 0 0 150 523 1203 2200 1892 2175 2053 3252 3742 3840 4942 4774 4908 5037 4547 4664 4561 4241 4597 4567 4609 4649 4534
2 15 4 0 0 0 0 0 0 0 0 1 1 0 0 0 0 0 0 0 0 140 569 1212 2139 3340 3864 4036 2698 4315 4641 4696 5213 4984 5401 4989 4826 4698 4562 4377 4442 4439 4424 4593
0 0 0 0 0 0 0 0 0 0 0 0 0 0 0 0 0 0 0 0 0 406 753 1982 2800 4224 4553 4719 4579 4609 4812 4847 4878 5129 4949 5009 4648 4534 4727 4347 4067 4329 4391 4211
9 0 0 0 2 0 0 0 0 0 0 0 0 0 0 0 0 0 0 0 29 390 767 2107 3408 3369 3554 3233 3769 4028 4374 4948 4861 4799 4522 4300 3946 4437 4296 4540 3988 3316 3612 3296

GFSCGP_con_mucape_045.txt.gz
CAPE
0 0 0 0 0 0 0 0 1 0 33 55 47 10 169 137 199 372 539 481 391 263 341 508 442 267 217 117 326 79 581 579 355 1246 1019 976 449 536 706 517 1642 1565 1573 1747
0 0 0 0 0 0 0 0 5 0 6 28 0 8 35 169 297 291 389 465 428 397 315 247 145 157 90 368 269 422 785 891 529 902 610 959 830 514 637 446 1356 1716 1773 1834
0 0 0 0 0 0 0 0 0 0 8 53 23 10 33 274 440 258 250 388 378 421 353 281 125 123 157 472 315 485 583 1217 771 912 855 811 888 792 767 504 319 1754 1533 1599
0 0 0 0 0 0 0 0 0 0 0 29 3 0 5 25 281 216 531 642 280 400 345 345 224 176 238 531 577 442 778 1566 1087 1235 1056 881 712 579 992 470 427 1041 1698 1749
0 0 0 0 0 0 0 0 0 0 2 7 1 0 8 21 6 330 689 407 123 474 425 355 291 309 154 383 798 681 756 1312 1368 1145 1058 1092 877 906 478 602 379 958 1008 1312
0 0 0 0 0 0 0 0 0 0 0 0 0 0 0 12 1 560 582 428 504 671 462 465 414 360 270 556 857 986 842 1127 1389 1306 1296 944 1168 823 682 249 310 797 1386 1546
0 0 0 0 0 0 0 0 0 0 0 0 0 0 0 0 3 68 303 419 584 488 521 558 571 532 487 619 727 1090 1041 945 1417 1305 1001 1675 968 1013 490 465 160 610 1832 1673
0 0 0 0 0 0 0 0 0 0 0 0 0 0 0 0 0 8 181 509 485 419 642 720 631 670 632 516 765 1160 1143 1131 1157 1636 1209 802 1816 1119 810 963 900 209 1245 1648
0 0 0 0 0 0 0 0 0 0 0 0 0 0 0 0 0 0 1 472 444 349 674 774 691 755 746 694 884 979 1367 1184 1415 1550 1651 1209 954 2157 1179 447 1020 1622 800 1323
0 0 0 0 0 0 0 0 0 0 0 0 0 0 0 0 0 0 0 7 372 525 858 886 810 822 806 775 871 1042 1406 1469 1531 1632 1803 1793 1266 949 2196 1383 632 1566 1540 774
0 0 0 0 2 0 0 0 0 0 0 0 0 0 0 0 0 0 0 0 28 505 913 1144 971 869 852 846 829 1055 1336 1818 1852 1887 1720 2064 1954 1545 1349 2166 1279 1279 1732 1944
0 0 0 0 0 0 0 0 0 0 0 0 0 0 0 0 0 0 0 0 1 322 822 1286 1185 1077 960 923 899 959 1223 1884 2056 2179 2162 2042 2334 2292 1613 1579 2214 1081 1859 1716
0 0 0 0 0 0 0 0 0 0 0 0 0 0 0 0 0 0 0 0 6 191 661 1225 1326 1244 1158 998 931 908 993 1621 2016 2308 2337 2356 2295 2518 2427 1897 1540 2250 1332 2245
0 0 0 0 0 0 0 0 0 0 0 0 0 0 0 0 0 0 0 0 0 375 763 1057 1406 1370 1379 1161 1025 958 987 1209 2065 2268 2564 2635 2642 2591 2628 2536 2237 1484 2182 1984
0 0 0 0 0 0 3 2 0 0 0 0 0 0 0 4 39 4 2 14 43 101 591 1162 1342 1426 1514 1381 1201 1093 1034 1261 1442 2436 2688 2790 2894 2750 2720 2714 2852 2662 1938 2376
0 0 0 0 0 1 16 0 0 0 0 0 0 0 0 0 25 4 4 34 162 222 752 890 1222 1382 1594 1637 1439 1295 1225 1286 1427 1945 2558 2852 2999 3077 2919 3003 2913 3063 2976 2363
0 0 0 0 7 30 0 0 0 0 0 0 0 0 0 0 12 2 5 9 33 73 238 555 672 1098 1656 1697 1776 1737 1666 1541 1546 1664 1948 2655 2977 3100 3170 3187 3247 3193 3251 3279
0 0 0 4 39 2 0 10 9 1 0 0 0 15 0 13 84 28 0 0 29 75 73 338 328 404 950 1740 1947 1862 1949 2062 1936 1851 1927 1987 2779 2967 3090 3195 3243 3267 3272 3375
0 0 0 15 28 3 9 2 5 15 3 13 155 103 57 149 187 156 134 189 275 342 470 478 416 403 302 423 556 2340 2293 2308 2580 2396 2535 2370 2705 2880 3029 3097 3282 3289 3266 3267
0 0 0 0 10 28 66 4 0 0 5 5 191 331 119 179 108 79 14 82 164 173 244 727 638 538 466 355 525 1195 2581 2489 2379 2612 2898 3128 2966 3133 3100 3278 3303 3421 3388 3380
0 0 8 0 16 15 21 0 0 1 0 2 190 197 349 21 2 0 0 12 53 84 245 682 940 1227 1116 850 526 893 1083 1890 2753 2493 2545 3239 3344 3370 3476 3347 3540 3556 3592 3565
0 0 6 14 10 23 14 0 6 0 0 0 104 262 26 4 0 1 0 0 0 7 64 695 845 1040 1737 1724 683 286 1344 952 2449 2454 2810 2809 3477 3055 3460 3639 3695 3818 3756 3753
0 0 0 8 17 0 0 0 0 0 2 0 25 147 4 0 0 3 0 0 0 0 67 756 1049 1770 2077 2407 1672 907 1303 2814 3156 2624 3091 3067 3012 3525 3115 3807 3728 4033 3954 3947
0 0 0 0 0 0 0 0 0 0 0 0 0 0 0 0 0 0 0 2 0 0 11 1055 1873 2583 3120 3479 3511 3519 3864 3275 2678 3249 3207 3968 3810 4020 3690 3680 3946 4084 4264 4153
0 0 0 0 0 0 0 0 0 0 0 1 0 0 0 0 0 0 0 0 0 0 781 1734 1788 1885 2239 2638 3539 3598 3439 3328 3990 3497 4408 4578 4166 4213 4140 3666 4031 4137 4028 4225
0 0 0 0 0 0 0 0 0 0 0 0 0 0 0 0 0 0 0 0 0 0 236 1320 1469 1572 2292 2171 2257 2484 2610 3274 3320 4230 4422 4540 4137 4005 4245 4071 3515 3276 4086 3960

GFSCGP_con_mucape_048.txt.gz
CAPE
0 0 0 0 0 0 0 0 0 0 0 64 10 62 48 596 518 522 458 401 312 267 228 323 188 125 192 145 99 66 33 342 378 502 299 179 156 118 231 461 784 744 922 1343
0 0 0 0 0 0 0 0 0 0 0 22 53 92 80 561 546 450 466 501 438 411 343 334 250 105 124 125 185 109 26 71 448 356 378 189 64 33 88 319 899 860 1053 1379
0 0 0 0 0 0 0 0 0 0 27 43 54 40 62 148 488 479 446 460 455 454 424 395 387 154 165 141 220 204 72 8 225 444 415 552 331 150 162 309 487 1010 1129 1337
0 0 0 0 0 0 0 0 0 11 25 32 11 1 14 75 179 393 407 361 323 314 323 381 406 281 248 270 247 192 227 166 91 527 307 443 455 587 317 249 261 1056 1173 1339
0 0 0 0 0 0 0 0 0 27 1 3 0 5 8 46 206 309 187 223 91 351 291 263 365 457 301 255 236 199 532 351 291 528 388 309 376 589 726 482 344 341 1218 1347
0 0 0 0 0 0 0 0 0 50 36 6 0 0 0 25 210 319 265 247 163 278 354 259 171 212 295 241 101 251 650 544 477 566 493 394 304 328 450 523 569 306 759 1123
0 0 0 0 0 0 0 0 0 16 29 0 0 0 0 20 206 159 279 324 241 391 359 337 220 184 177 270 208 184 416 828 681 621 645 533 463 432 493 490 345 386 597 740
0 0 0 0 0 0 0 0 0 0 1 0 0 0 0 0 1 194 335 393 508 207 322 338 309 312 258 289 435 312 351 557 898 748 674 653 635 565 484 541 492 161 312 980
0 0 0 0 0 0 0 0 0 0 0 0 0 0 0 0 0 71 340 542 629 423 240 425 349 357 334 407 571 581 429 397 856 906 840 837 699 631 663 685 407 307 190 1055
0 0 0 0 0 0 0 0 0 0 0 0 0 0 0 0 0 0 255 580 705 468 509 565 398 400 402 538 510 726 670 526 622 1023 843 718 919 1312 807 666 649 853 462 679
0 0 0 1 0 0 0 0 0 0 0 0 0 0 0 0 0 0 6 427 532 601 689 575 476 492 580 658 620 775 846 757 787 823 1158 1004 732 605 1603 1465 742 472 870 1187
11 0 0 0 0 0 0 0 0 0 0 0 0 0 0 0 0 1 2 203 386 481 608 568 632 613 714 766 716 694 971 933 903 1030 1107 1331 1231 934 640 1451 1943 1282 621 745
2 1 0 0 0 1 7 0 0 0 0 0 0 0 0 0 0 0 0 0 202 543 618 591 757 822 843 814 781 782 880 1175 1096 1175 1275 1382 1567 1524 1214 763 1259 1855 1632 1012
0 0 0 0 0 0 0 0 0 0 0 0 0 0 0 0 0 0 0 0 0 424 470 648 889 963 943 893 837 811 920 1322 1389 1454 1543 1463 1673 1928 1857 1565 1070 1296 1788 1510
0 0 0 0 0 0 0 0 0 0 0 0 0 0 0 0 0 0 0 0 1 396 837 980 1034 1051 1020 944 878 868 978 1174 1688 1788 1858 1912 1809 1867 2151 2112 1847 1460 1277 1714
0 0 0 0 0 0 0 0 0 0 0 0 0 0 0 0 10 0 20 0 20 466 1043 1240 1164 1124 1074 1025 957 912 968 1153 1500 1891 2018 2031 2144 2087 2075 2267 2315 2054 1816 1383
0 0 0 0 0 0 0 0 1 0 0 0 0 0 0 4 12 34 61 90 127 324 897 1331 1242 1192 1199 1189 1107 1007 1033 1023 1392 1832 1879 2177 2196 2416 2380 2357 2409 2546 2425 2196
0 0 0 0 3 0 0 3 4 0 0 0 0 8 54 233 256 283 251 182 235 372 783 1087 1344 1303 1316 1307 1214 1135 1082 1096 1130 1378 2085 2197 2541 2537 2703 2636 2602 2589 2673 2784
0 0 0 0 10 0 18 5 14 3 0 0 0 99 228 193 142 129 151 234 399 518 412 718 1210 1330 1390 1520 1538 1431 1333 1279 1236 1309 1371 2245 2399 2808 2850 2925 2915 2859 2948 2899
0 0 0 1 19 2 0 10 24 0 0 11 7 200 175 39 60 54 77 103 254 386 490 760 1029 982 1077 1386 1742 1848 1773 1682 1547 1521 1533 1572 2087 2633 2882 2983 2971 3104 3081 3115
45 20 3 11 31 3 0 32 7 9 0 42 148 143 65 0 0 34 21 19 86 292 564 1012 1433 1769 1959 1454 1134 1094 1963 2135 2064 2085 1879 1845 1814 1977 2542 2753 2922 2921 3086 3094
49 52 14 0 26 33 0 23 1 1 19 1 24 29 0 0 0 8 2 0 21 135 689 1501 2476 2841 3172 2585 1086 450 650 1021 1801 2341 2263 2540 2576 2362 2477 2653 2723 2916 2960 3120
14 22 10 0 20 2 0 2 0 1 35 57 30 10 0 0 0 0 0 0 0 86 946 1579 1901 2368 3125 3298 2709 3122 3155 2640 2708 1306 2010 2534 2805 2932 2991 2992 2916 2976 3154 3203
0 0 9 0 2 2 0 0 0 3 11 50 33 2 0 0 0 4 2 0 0 1 861 1408 1905 2026 2329 2548 2974 3236 3162 3114 3312 2969 2078 2485 2782 2625 2896 3015 3108 3218 3405 3442
0 0 0 0 0 1 0 0 0 0 5 32 0 0 0 0 0 0 0 0 0 0 956 1432 1678 1881 2139 2046 2304 2449 2412 2379 2760 3134 3673 3201 3087 3183 3024 2968 3285 3412 3687 3653
0 0 0 6 0 0 0 0 0 0 0 100 0 0 0 0 0 0 30 20 0 0 563 1465 1510 1422 1701 2044 1958 1837 1784 2014 1947 2333 3093 3459 3953 3992 3562 3377 3210 3479 3706 3848

GFSCGP_con_mucape_051.txt.gz
CAPE
0 0 0 0 0 0 0 0 9 9 22 65 82 58 688 484 490 331 189 161 213 210 110 80 136 176 184 198 160 17 0 33 195 147 365 446 314 342 532 727 912 889 1061 1054
0 0 0 0 0 0 0 0 0 29 40 13 77 65 510 533 477 483 257 195 224 190 140 60 106 186 178 149 112 0 0 0 184 108 351 264 129 123 195 404 724 687 1054 1192
0 0 0 0 0 0 0 0 0 19 50 6 52 65 12 568 478 518 369 218 221 240 149 94 93 153 182 145 23 0 11 0 125 114 182 126 126 74 123 174 356 690 761 1116
0 0 0 0 0 0 0 0 0 30 96 29 0 0 17 281 490 471 433 299 232 253 194 157 148 133 178 67 63 30 0 0 53 169 173 133 38 6 6 30 217 672 863 1027
0 0 0 0 0 0 0 0 0 42 110 52 28 4 0 97 435 426 427 420 362 292 256 201 278 181 142 48 46 71 31 2 6 158 101 46 27 0 33 13 109 314 935 1001
0 0 0 0 0 0 0 0 0 39 98 36 10 20 0 7 122 386 414 395 401 400 367 312 259 352 233 75 49 45 40 84 100 81 73 18 56 77 197 250 88 186 610 934
0 0 0 0 0 0 0 0 0 4 61 0 0 22 0 0 0 22 242 399 387 418 392 404 354 330 398 268 157 68 49 101 160 42 98 49 46 66 111 229 327 248 203 791
0 0 0 0 0 0 0 0 0 0 0 0 0 0 0 0 0 23 90 274 278 302 247 425 307 334 359 413 343 202 103 92 112 82 143 116 82 54 74 79 253 430 392 359
0 0 0 0 0 0 0 0 0 0 0 0 0 0 0 0 0 1 40 121 110 180 178 201 339 280 321 358 432 358 227 215 162 163 200 204 177 140 113 109 97 104 292 305
0 0 0 0 0 0 0 0 0 0 0 0 0 0 0 0 0 0 82 124 164 164 202 230 323 339 361 294 296 315 297 275 309 284 295 310 293 270 254 230 199 213 420 294
0 0 0 0 0 0 0 0 0 0 0 0 0 0 0 0 0 0 0 105 158 179 178 259 234 353 383 332 331 290 261 244 305 451 406 401 413 401 428 448 416 361 340 339
1 0 0 0 0 0 0 0 0 0 0 0 0 0 0 0 0 0 0 84 194 239 351 327 271 275 344 349 312 338 311 355 317 473 497 493 545 664 749 529 516 488 509 561
0 0 0 0 0 0 9 0 0 0 0 0 0 0 0 0 0 0 9 0 97 351 472 443 351 301 346 370 347 425 486 420 456 347 575 646 590 550 637 1139 1078 774 728 647
0 0 0 0 0 0 6 0 0 0 0 0 0 0 0 0 0 0 0 0 0 210 413 456 374 423 463 420 425 496 595 613 552 515 533 761 887 827 637 560 823 1231 1217 1163
0 7 0 0 1 0 0 0 0 0 0 0 0 0 0 0 0 0 0 0 0 0 161 317 437 517 506 479 477 492 556 769 728 695 779 774 975 1098 1122 985 759 693 1133 1178
0 7 0 0 0 0 0 0 1 0 0 0 0 0 0 0 0 11 0 0 0 0 138 289 476 570 548 570 528 602 634 769 936 883 910 970 1001 1218 1429 1421 1344 1113 973 1151
0 0 0 0 6 39 12 8 4 7 0 0 0 0 0 41 37 46 32 2 0 0 214 336 435 534 630 654 585 700 743 820 1179 1175 1170 1218 1284 1291 1494 1750 1797 1673 1489 1337
0 0 0 0 1 32 16 0 0 2 0 0 0 2 87 128 190 201 131 63 55 22 182 308 435 684 706 678 657 775 824 921 1192 1502 1555 1623 1687 1738 1695 1741 1965 2050 1971 1821
0 0 0 11 17 0 9 0 2 0 0 0 57 92 49 196 202 285 276 282 216 398 683 801 889 929 891 888 876 938 951 995 1193 1407 1743 1866 1942 1939 2087 2110 2031 2166 2256 2320
0 0 3 67 77 16 5 0 0 0 0 0 43 66 34 41 27 136 197 416 691 790 892 1159 1346 1290 1212 1191 1194 1157 1078 1121 1109 1249 1653 1844 1992 2179 2202 2380 2418 2344 2425 2419
0 0 41 112 113 31 10 8 0 14 0 0 90 56 14 4 1 88 149 644 1334 1933 2041 1891 1586 1479 1441 1481 1492 1462 1381 1383 1353 1298 1282 1521 2108 2244 2456 2508 2574 2683 2669 2673
0 10 71 87 20 83 33 12 5 2 0 0 25 39 1 0 9 39 80 372 1144 1829 2396 2606 2337 2028 1487 1475 1615 1763 1842 1856 1944 1955 1929 1894 1828 2016 2301 2557 2737 2794 2884 2961
0 4 35 48 0 7 0 11 15 0 0 0 3 43 0 0 9 35 22 143 654 1448 2080 2497 2799 2811 2717 2681 2707 2796 2600 2247 1520 1858 2171 2184 2178 2223 2258 2313 2501 2709 2843 2826
0 0 34 4 8 25 29 15 9 1 0 0 0 6 0 0 7 40 13 4 427 1163 1655 2086 2126 2114 2074 2002 2054 2335 2660 2875 3027 3208 2786 2149 2316 2461 2593 2614 2592 2561 2593 2737
0 0 1 0 0 57 4 14 21 4 0 0 1 0 0 0 0 15 11 0 78 459 1236 1666 1824 1886 1875 1806 1612 1422 1454 1638 2011 2245 2854 3172 3429 2947 2470 2624 2928 2963 2985 2972
0 0 16 10 3 16 12 0 3 2 0 0 2 0 2 0 1 8 4 0 0 292 772 1170 1510 1701 1814 1875 1793 1524 1370 1259 1087 1137 1318 2446 2925 3352 3585 3278 2768 2681 3105 3240

GFSCGP_con_mucape_054.txt.gz
CAPE
0 0 0 0 0 0 0 0 0 29 83 50 90 98 495 318 290 250 199 82 4 9 0 59 76 136 223 247 319 194 0 27 86 72 54 114 151 237 354 163 450 516 645 740
0 0 0 0 0 0 0 0 0 3 62 20 42 67 520 341 275 242 174 125 46 25 16 36 71 88 142 180 233 235 39 0 52 53 67 68 292 275 394 493 647 775 810 943
0 0 0 0 0 0 0 0 0 0 52 7 23 12 224 396 331 186 143 107 85 105 95 29 40 76 90 122 187 182 125 0 0 0 48 98 301 205 157 281 541 741 760 1050
0 0 0 0 0 0 0 0 0 0 43 40 52 0 0 350 329 275 229 189 161 96 114 78 43 48 71 125 119 169 175 12 0 14 32 76 302 283 66 87 228 527 617 840
0 0 0 0 0 0 0 0 0 0 22 74 40 9 0 85 326 340 291 265 266 165 121 124 85 48 62 73 111 89 153 114 0 0 13 35 79 87 53 0 24 196 590 699
0 0 0 0 0 0 0 0 0 0 0 73 11 22 0 0 162 372 365 332 316 311 136 143 101 72 27 56 68 100 82 71 7 0 7 0 9 25 0 0 0 6 328 656
0 0 0 0 0 0 0 0 0 0 0 0 0 52 0 0 10 186 339 388 372 356 233 143 120 81 45 40 52 55 102 56 10 9 0 0 0 0 0 0 0 0 12 436
0 0 0 0 0 0 0 0 0 0 0 0 0 2 0 0 0 107 174 313 304 340 318 215 131 132 128 80 76 79 65 45 52 96 8 14 19 0 0 0 0 0 0 120
0 0 0 0 0 0 0 0 0 0 0 0 0 0 0 0 0 0 40 77 218 315 324 293 255 197 155 156 126 73 37 22 36 80 56 104 116 0 0 0 0 0 1 49
0 0 0 0 0 0 0 0 0 0 0 0 0 0 0 0 0 0 0 6 72 288 321 310 298 295 297 226 189 215 117 36 69 54 55 114 178 35 1 5 11 10 1 119
0 0 0 0 0 0 0 0 0 0 0 0 0 0 0 0 0 0 6 46 103 233 317 309 263 241 226 275 275 273 251 197 93 128 123 99 128 144 54 27 55 42 27 0
0 0 0 0 0 0 0 0 0 0 0 0 0 0 0 0 0 0 0 26 163 205 215 189 177 157 162 202 268 280 260 250 273 261 209 192 198 193 141 103 115 105 102 64
1 0 0 0 0 0 0 0 0 0 0 0 0 0 0 0 0 0 0 9 40 109 177 162 146 129 193 161 182 201 203 241 253 310 315 290 266 280 249 210 194 197 205 203
29 0 0 0 0 0 0 0 0 0 0 0 0 0 0 0 0 0 0 0 28 70 142 153 125 131 231 211 203 208 211 204 222 260 353 350 377 397 450 455 437 304 337 377
0 0 0 0 2 0 0 0 0 0 0 0 0 0 0 0 0 0 0 0 6 15 80 154 205 220 204 230 254 242 236 233 255 273 408 473 461 424 429 571 895 919 491 450
1 0 0 0 14 0 0 0 4 0 0 0 0 0 0 0 0 0 0 0 0 0 0 53 243 311 272 250 300 304 429 424 360 330 382 507 626 619 563 435 427 635 1034 923
0 0 0 0 10 14 0 0 0 0 0 0 0 0 0 0 0 0 0 1 0 0 0 0 42 236 270 325 357 349 492 573 582 519 504 525 624 856 883 906 834 631 590 851
0 0 0 5 16 0 0 0 0 0 0 0 0 0 3 2 43 46 14 11 2 24 7 0 0 218 288 338 403 416 449 626 726 676 710 805 842 884 1060 1237 1250 1221 1012 869
0 0 0 36 4 0 0 0 0 0 0 0 0 92 227 225 278 364 411 233 81 112 108 74 117 278 339 385 455 504 541 634 939 959 991 1040 1107 1126 1205 1381 1560 1619 1621 1478
0 0 0 17 14 123 15 0 0 0 0 0 3 127 229 38 88 210 618 872 724 557 588 567 263 353 462 516 569 600 608 742 1079 1243 1324 1412 1434 1533 1568 1530 1588 1811 1935 2004
0 0 0 16 44 47 32 2 0 1 0 0 0 0 76 0 4 242 1088 1500 1397 793 733 986 585 603 658 654 650 672 680 800 964 1200 1542 1690 1805 1800 1857 1923 2004 1997 2093 2205
0 0 0 35 11 56 33 14 1 1 0 0 3 0 6 8 166 513 1256 1571 1581 1178 846 1094 1247 1343 1044 1026 959 948 937 929 979 1059 1389 1703 1837 2037 2090 2114 2251 2413 2376 2431
0 0 0 0 0 1 6 30 5 0 23 0 12 4 11 40 174 466 1124 1540 1829 1806 1766 1887 1956 1656 1484 1589 1490 1526 1484 1420 1380 1363 1501 1664 1762 2046 2222 2391 2473 2540 2654 2749
0 0 0 0 0 17 4 0 0 0 8 1 24 2 27 58 177 333 702 1423 1821 2033 1804 1795 1877 1995 2031 1948 2134 2433 2444 2113 1880 1908 1947 2003 2064 2100 2117 2262 2492 2680 2782 2855
0 0 0 0 7 0 0 0 0 0 0 0 13 1 22 76 114 154 341 733 1366 1540 1892 1594 1390 1294 1385 1562 1653 1790 1996 2276 2621 2895 2957 2737 2284 2187 2187 2214 2360 2391 2508 2704
0 0 0 0 0 1 0 0 0 0 12 6 0 0 27 48 44 113 102 291 507 801 1157 1330 1549 1506 1461 1400 1272 1171 1041 1207 1288 1455 1540 2044 2620 3164 2906 2368 2411 2605 2634 2591

GFSCGP_con_mucape_057.txt.gz
CAPE
0 0 0 0 0 0 0 0 0 89 174 123 107 91 649 424 190 198 213 156 80 26 0 72 209 357 473 643 567 585 622 758 515 401 384 485 492 633 795 1039 1306 1562 1547 1667
0 0 0 0 0 0 0 0 0 3 77 82 73 88 330 590 406 218 123 143 101 22 14 81 220 260 392 565 617 631 650 702 694 428 606 624 866 885 1117 1282 1473 1691 1663 1934
0 0 0 0 0 0 0 0 0 0 3 53 71 48 87 614 557 393 100 106 69 34 22 62 218 241 311 477 619 653 845 849 815 851 662 697 839 767 876 1196 1550 1724 1859 1997
0 0 0 0 0 0 0 0 0 0 0 0 48 22 17 285 700 524 437 208 125 55 36 15 139 253 296 567 436 710 806 915 723 974 915 1356 765 825 859 1117 1282 1803 1926 2004
0 0 0 0 0 0 0 0 0 0 0 0 0 7 0 104 628 747 618 491 380 215 80 23 39 158 183 287 380 258 793 1110 1127 1166 1224 993 1196 886 942 782 1316 1816 2037 1948
0 0 0 0 0 0 0 0 0 0 0 0 0 0 0 0 268 692 746 688 552 447 408 383 210 125 216 145 280 298 770 903 1123 999 1167 1561 1658 1233 846 832 846 938 1328 1722
0 0 0 0 0 0 0 0 0 0 0 0 0 0 0 0 6 226 624 754 740 634 492 493 451 339 320 509 464 544 661 841 942 970 1172 1336 1537 1762 1529 1293 781 995 824 1260
0 0 0 0 0 0 0 0 0 0 0 0 0 0 0 0 0 2 181 509 696 758 620 554 532 604 673 698 742 655 689 814 824 900 1213 1403 1550 747 680 1138 652 619 491 803
0 0 0 0 0 0 0 0 0 0 0 0 0 0 0 0 0 0 9 246 629 778 755 643 604 527 702 709 853 770 891 875 828 503 1126 1347 1394 1330 944 1375 1117 672 1060 450
0 0 0 0 0 0 0 0 0 0 0 0 0 0 0 0 0 0 0 102 415 728 828 793 670 684 689 542 685 761 893 924 962 833 899 1094 1243 1324 1333 1270 1345 1305 860 759
0 0 0 0 0 0 0 0 0 0 0 0 0 0 0 0 0 0 0 2 71 427 756 810 836 805 779 519 752 838 722 1029 986 831 940 1044 1063 924 999 1016 1165 1526 1045 1067
0 0 0 0 0 0 0 0 0 0 0 0 0 0 0 0 0 0 0 14 38 198 614 761 794 795 762 965 894 821 717 598 800 980 1053 1033 1104 1139 844 1186 1098 1373 1592 1097
11 0 0 0 0 2 13 0 0 0 0 0 0 0 0 0 0 0 0 0 46 279 525 719 691 879 969 1118 1116 982 838 618 575 933 718 939 953 992 1373 1331 1283 1368 1447 1430
55 0 0 0 0 0 25 7 0 0 0 0 0 0 0 0 0 0 0 0 0 21 296 510 600 879 1065 1229 1322 1308 980 712 681 674 730 1168 1300 1357 1328 1605 1644 1327 1606 1535
29 0 0 0 0 0 0 1 0 0 0 0 0 0 0 0 0 0 0 0 0 0 5 350 588 1001 1083 1232 1399 1425 1240 1142 955 1161 1140 1315 1473 1528 1648 1748 1775 1538 1698 1759
51 0 0 0 0 2 0 0 0 0 0 0 0 0 0 0 0 0 0 8 24 79 76 11 413 683 1091 1266 1148 1275 1283 1184 1281 1361 1407 1585 1709 1774 1818 1913 1846 2027 1800 1670
32 11 0 0 0 0 0 0 0 0 0 0 0 0 0 0 0 0 0 0 0 0 75 169 52 536 1079 1152 1167 1155 1284 1308 1350 1454 1557 1811 1900 1894 1953 1999 2163 2304 2299 1732
14 0 30 0 0 0 0 0 9 0 0 0 0 0 0 48 0 28 7 0 0 0 4 46 245 116 1279 812 792 1079 1108 1507 1461 1539 1595 1839 1985 1984 2046 2085 2090 2143 2079 2483
38 53 35 0 0 14 121 0 11 0 0 0 0 0 0 11 54 192 157 96 66 51 85 41 294 511 68 1226 1321 1416 1540 1679 1661 1704 1727 1791 1954 2103 2218 2281 2316 2273 1949 2009
14 87 76 0 0 72 37 4 2 0 0 0 0 0 103 90 101 57 392 602 513 435 469 455 1213 706 150 1400 1387 1557 1523 1852 1905 1985 1957 1998 1998 2113 2302 2476 2624 2679 2421 2105
25 34 0 16 0 0 20 13 18 5 1 4 9 9 193 43 0 202 634 1007 1061 620 584 1186 806 890 1633 1598 1334 1698 1812 1974 1894 1803 1742 2234 2358 2451 2529 2722 2875 2630 2683 2766
0 0 0 0 0 0 2 31 22 30 12 13 43 133 231 33 92 400 1007 1126 739 738 670 555 1294 954 1132 1546 1706 1931 2180 2202 2487 2514 2237 2638 2778 2272 2215 3023 2778 2996 3125 3222
0 0 0 0 0 0 3 0 24 67 37 32 64 141 116 71 325 881 1137 907 1204 1092 973 683 482 744 1476 1511 1380 1615 1892 2202 2556 2756 3015 2950 3023 2801 3269 3298 3225 2890 3194 2944
1 0 0 0 0 0 0 0 2 27 42 21 46 24 31 228 642 1028 1174 1012 1230 1425 1237 1160 1012 1059 1003 1075 1451 1901 2192 1883 2199 2592 2907 2908 2865 2935 3189 2923 2950 2968 3079 3129
0 0 0 2 7 0 0 0 0 1 25 7 11 7 15 317 552 780 1058 1086 1198 1215 1480 1269 1277 1352 1342 1513 1634 1942 1865 2496 2364 2090 2072 2194 2325 2677 3017 3115 2811 3184 3515 3151
0 0 0 0 0 0 0 0 0 0 1 1 11 9 25 209 496 749 1012 1007 791 978 1241 1162 1376 1392 1504 1589 1697 1756 1889 2106 2331 2293 2352 2378 2860 2240 2549 2642 2091 2393 2570 2520

GFSCGP_con_mucape_060.txt.gz
CAPE
0 0 0 0 0 0 0 0 0 0 219 350 449 429 927 706 770 792 783 619 422 345 312 240 184 166 100 282 550 668 521 576 585 401 296 451 651 942 1164 1184 1566 2007 1869 2080
0 0 0 0 0 0 0 0 0 0 21 262 399 342 340 933 699 825 824 754 514 420 322 241 353 238 141 295 443 749 727 786 820 261 469 355 743 890 1056 1371 1855 2107 2079 2230
0 0 0 0 0 0 0 0 0 0 0 74 263 371 304 533 811 721 717 757 590 460 429 265 375 294 207 331 581 739 958 952 913 630 321 937 1131 1295 1577 1626 1626 1978 2186 2271
0 0 0 0 0 0 0 0 0 0 0 0 87 276 259 279 876 849 764 742 697 555 416 363 356 389 289 356 607 892 1085 1151 990 887 953 1798 1197 874 682 1126 992 1484 2190 2199
0 0 0 0 0 0 0 0 0 0 0 0 0 106 136 231 468 968 891 722 631 590 443 355 374 535 416 398 573 938 1306 1948 1855 1647 1490 1074 1581 453 580 847 1589 2057 2473 2314
0 0 0 0 0 0 0 0 0 0 0 0 0 7 40 100 212 452 866 818 765 578 450 368 351 476 549 492 459 823 1878 2078 2076 1602 977 1795 2073 1477 839 1457 1318 1267 1334 1904
0 0 0 0 0 0 0 0 0 0 0 0 0 0 0 40 151 176 436 800 897 920 667 438 329 325 627 642 623 770 1645 2394 2163 1554 1304 1345 1595 1944 1599 1583 1255 1661 829 1036
0 0 0 0 0 0 0 0 0 0 0 0 0 0 0 0 3 55 178 628 969 1070 1010 918 619 450 424 637 696 800 1464 2252 2047 1814 2329 2274 2322 1142 1294 1468 1103 974 725 735
0 0 0 0 0 0 2 0 0 0 0 0 0 0 0 0 0 0 14 179 392 702 957 1033 1100 1063 786 609 1081 1297 1754 1695 1892 1355 2370 2441 2427 2134 1335 2353 1543 1077 1803 739
0 0 0 0 0 0 0 0 0 0 0 0 0 0 0 0 0 0 0 4 134 424 872 1008 1108 1193 1158 839 784 868 1039 1680 1505 1508 1623 1673 1636 2104 2122 1755 2180 1843 1262 1400
0 0 0 0 0 0 0 0 25 4 1 0 0 0 0 0 0 0 0 0 16 425 901 1041 1094 1139 1215 1062 815 928 1002 1178 1342 1584 1869 1779 1546 1472 1681 1584 1723 1932 1711 1580
0 0 0 0 0 11 2 36 16 57 0 0 0 1 0 0 0 0 0 0 11 81 474 904 965 1070 1182 1234 977 890 1013 1088 1187 1760 2303 1892 1841 1859 1381 1744 1788 1908 1987 1833
3 0 0 0 0 0 0 1 32 46 59 32 10 0 0 0 0 0 0 0 29 76 132 492 757 1042 1202 1260 1255 954 997 1018 1044 1520 1284 1474 1564 1501 1914 2006 1870 2266 2038 2168
0 0 0 0 0 0 4 29 43 16 37 17 36 32 6 0 0 0 0 0 2 48 195 389 737 909 1321 1548 2081 1911 1114 978 989 1074 1138 1813 1831 1840 1674 2417 2460 1957 2465 2369
39 0 0 0 0 0 0 0 0 0 5 0 35 41 53 0 0 0 0 0 0 0 2 214 685 1055 1599 1865 2260 2037 1359 1537 1370 2034 1280 1829 2467 2327 2412 2668 2806 2564 2624 2288
100 34 0 0 0 0 0 0 0 0 0 0 0 5 43 17 0 0 0 11 33 31 53 8 323 722 1208 1569 2141 2427 2418 1892 1842 2481 2175 2431 2922 2912 2964 3090 3126 3313 3141 2684
119 108 76 0 0 0 0 0 0 0 0 0 0 0 2 15 1 50 18 5 0 4 64 187 281 258 735 1214 1617 2009 2641 2184 2377 2722 2661 2850 3175 3271 3262 3268 3475 3478 3413 2996
117 194 129 0 18 0 0 0 27 0 0 0 0 0 1 1 91 1 0 3 0 15 40 108 180 325 475 703 879 1574 1781 2787 2820 3028 2997 3103 3304 3300 3403 3521 3649 3696 3242 3289
88 199 139 76 68 4 24 69 20 24 23 79 8 0 0 0 215 319 0 79 14 56 148 261 375 544 712 751 895 1361 1559 2212 2374 2983 3177 3244 3349 3271 3256 3368 3518 3388 3049 3258
125 248 277 136 0 0 113 26 51 7 177 0 0 2 0 0 1 66 1 183 221 156 231 469 793 1261 1363 1352 775 1132 1544 1866 2701 2816 2994 3228 3376 3475 3439 3482 3628 3557 2818 2796
206 167 259 221 126 28 4 37 15 141 92 0 0 0 1 39 0 0 191 265 312 278 216 565 1582 1946 1788 1656 835 2021 1996 2185 2424 2084 2097 2944 3112 3539 3553 3873 3703 3421 3176 3195
126 212 208 187 131 11 8 9 37 17 2 39 25 19 5 2 4 82 292 390 367 348 408 790 1889 1865 1422 1005 1118 2880 2827 2452 2560 2568 2486 3277 3288 2595 2578 4035 3672 3490 3698 3772
25 90 93 77 85 9 0 0 2 2 58 83 83 55 52 47 89 254 456 488 543 542 574 570 1188 1736 2075 1527 1503 2067 3363 3085 2931 2877 3304 3161 2941 2865 3514 3377 3521 3190 3573 3228
0 0 0 1 3 15 0 0 0 0 32 77 123 111 89 92 244 391 566 645 718 756 664 712 585 1150 1401 1916 2212 2093 2379 2585 2906 3259 3279 3031 3091 3050 2893 3088 3213 3121 3104 3151
0 0 0 0 0 0 0 4 0 0 0 5 58 94 114 217 294 472 595 595 832 948 949 828 655 601 815 1224 1423 1759 2406 2515 2692 2877 3015 3168 3204 3084 3322 3498 2977 3281 3700 3097
0 0 0 0 0 0 0 0 0 0 0 0 7 79 97 261 361 473 547 745 894 1061 1002 1069 880 774 770 806 927 1164 2134 2592 2642 2648 2652 2680 2868 3258 3266 3357 2979 2570 2754 2787

GFSCGP_con_mucape_063.txt.gz
CAPE
0 0 0 0 0 0 0 0 0 0 283 227 252 305 339 772 730 999 922 576 582 571 485 305 224 121 69 94 273 433 882 2143 1114 809 690 697 813 998 1774 1641 1673 1759 1877 1916
0 0 0 0 0 0 0 0 0 0 43 238 222 292 410 648 706 948 975 750 580 636 518 336 253 149 80 175 452 1238 1374 2284 1359 794 1221 934 1281 787 811 814 1714 1773 1628 2016
0 0 0 0 0 0 0 0 0 0 0 142 226 282 297 363 628 808 926 975 514 650 687 503 343 206 122 258 476 1417 1956 2246 1763 1494 1200 1244 1307 1422 866 1560 1406 1874 1908 2058
0 0 0 0 0 0 0 0 0 0 0 10 79 250 161 68 687 726 918 1003 915 486 683 671 557 387 237 205 381 1523 1796 2354 1891 2012 826 1877 1016 805 651 1182 928 1578 1901 1980
0 0 0 0 0 0 0 0 0 0 0 0 2 30 381 386 690 663 830 956 950 808 559 658 623 606 400 254 377 581 2174 2571 2202 2060 1843 1140 1796 650 595 626 2912 2946 3367 2019
0 0 0 0 0 0 0 0 0 0 0 0 0 15 93 51 164 636 792 852 916 917 750 640 618 671 580 347 361 946 2256 2854 2822 2474 2000 2567 2094 1991 456 903 1535 1007 1631 1852
0 0 0 0 0 0 0 0 0 0 0 0 0 0 8 142 184 159 666 797 853 869 899 771 641 593 750 904 888 1237 2415 2966 2868 2697 1872 2059 2676 2745 3015 2515 1027 1299 579 708
0 0 0 0 0 0 0 0 0 0 0 0 0 0 0 1 89 99 35 539 796 819 829 858 787 688 1102 1209 1276 1463 2319 3146 3107 2699 2621 2151 2587 910 862 1890 976 692 473 618
0 0 0 0 0 0 0 0 0 0 5 0 0 0 0 0 0 64 2 310 423 824 860 815 864 816 1099 1279 1643 1654 2196 3038 3107 2201 3016 3134 2495 1759 856 2192 2675 1570 1942 807
0 0 0 0 0 0 5 2 0 0 3 0 0 0 0 0 0 0 14 94 259 625 920 1007 989 843 822 914 1048 1578 2089 2964 2572 2575 2873 2769 2546 2549 2398 2884 3391 2365 2440 2675
0 0 0 0 0 0 0 0 9 31 4 3 0 0 0 0 0 0 0 0 198 791 800 921 1042 1159 924 821 919 1091 1517 2238 2366 2652 2710 2437 2374 1997 2461 2948 3126 3050 2813 3270
0 0 0 0 0 0 0 2 0 65 42 13 0 10 0 1 0 0 2 8 27 129 537 756 876 1155 1286 1296 1026 1039 1100 1197 1819 2262 2754 2633 2829 2228 2183 2633 2739 3382 3453 3186
4 0 0 0 0 0 0 0 33 25 22 79 14 2 8 1 0 0 0 0 30 106 354 679 793 1039 1234 1466 1759 1156 1026 991 1154 2069 1891 2484 2596 2636 2271 2904 2757 3225 3552 3636
0 0 0 0 2 0 7 0 15 72 77 36 26 51 22 11 6 1 0 0 4 205 430 346 645 888 1177 1773 2469 2276 1338 1081 1040 1241 1460 2061 2512 2525 2381 2803 3143 3140 3574 3705
25 0 0 0 0 0 0 0 31 61 90 100 38 46 62 37 22 41 8 18 40 67 92 192 211 945 2530 2536 2925 2615 1688 1852 1427 1885 1669 2093 2682 2682 2793 2635 3211 3216 3587 3644
73 42 75 0 14 6 0 0 0 0 5 2 10 6 18 17 27 53 8 34 160 124 13 25 307 720 1104 1760 3124 2897 2602 2253 1882 2306 1906 2111 2877 2991 2966 2926 3171 3576 3711 3862
240 203 89 6 47 46 0 0 0 0 0 0 7 0 3 8 25 183 149 235 62 57 64 106 194 406 842 1363 2175 2602 2958 2459 2498 2855 2517 2609 2977 3089 3134 3117 3396 3647 3905 4090
256 260 241 210 117 0 17 0 7 12 0 0 0 11 7 2 4 3 255 133 123 163 165 197 206 268 472 768 1271 1866 2285 3126 3108 2825 3557 2984 3355 3442 3568 3627 3617 3882 4051 4100
119 189 228 140 154 52 36 221 206 183 102 1 31 0 1 27 5 1 155 66 134 298 484 548 517 470 481 504 750 1585 2055 3271 3223 3679 3244 3590 3538 3676 3904 3877 3975 4074 4171 4199
129 217 270 203 149 59 83 190 86 142 141 423 150 130 149 99 47 38 55 21 21 42 185 435 796 975 1061 1098 940 832 1533 2343 3394 3683 3571 3769 3782 4032 4086 4116 4189 4261 4320 4236
289 294 294 257 211 142 57 129 41 148 91 80 61 36 160 192 253 43 0 0 0 0 0 14 455 1955 2116 1944 1455 1621 1717 2476 3080 3341 3649 4086 4066 4186 4309 4426 4472 4473 4384 3629
130 256 298 358 262 156 435 210 63 130 48 36 30 31 22 45 0 0 0 0 0 8 28 120 459 1741 3137 2437 2241 2951 2452 3008 3467 3549 3691 4087 4273 3688 3822 4474 4513 4549 4508 4451
6 110 250 204 224 335 249 98 109 30 12 12 0 15 13 3 0 0 0 24 75 138 183 244 539 1125 2009 2130 2307 3344 3094 4065 3858 3907 3990 4115 4207 4222 4189 4392 4530 4007 4377 3521
0 0 0 34 92 22 0 22 0 1 0 0 2 2 16 0 3 20 32 25 113 136 219 287 774 1139 1585 1713 1905 1833 3145 3928 4121 4145 4305 4208 4184 4137 4173 3665 3684 3374 3128 3423
0 0 0 0 0 0 0 0 1 8 3 0 0 1 30 12 20 76 134 118 183 182 159 276 558 933 1242 1618 1876 1952 1925 2355 3043 3920 3767 4029 3321 3406 3985 3620 3536 3254 3404 2719
0 0 0 0 0 0 0 0 0 0 0 0 0 3 54 52 73 121 132 242 360 408 341 329 407 833 1151 1587 1698 1827 1943 2062 2669 3079 3205 3003 3053 3206 3161 3445 2676 2483 2486 2474

GFSCGP_con_mucape_066.txt.gz
CAPE
0 0 0 0 0 0 0 0 0 0 0 43 57 165 94 109 265 352 448 719 444 354 479 444 275 32 166 220 387 736 1397 2015 1532 1676 1561 1341 1193 1973 622 801 1627 3043 2605 2507
0 0 0 0 0 0 0 0 0 0 0 97 331 139 61 0 19 310 431 471 682 389 304 394 331 62 95 274 397 1155 1285 1942 1402 1807 1814 1696 1330 1558 968 1290 2159 2641 2666 3037
0 0 0 0 0 0 0 0 0 0 0 81 90 70 63 29 26 284 518 321 473 609 489 429 324 163 148 283 555 1031 1310 1798 1454 1825 1592 2492 2795 2238 1720 2489 2474 2791 2832 3028
0 0 0 0 0 0 0 0 0 0 0 0 15 140 11 47 196 14 207 397 371 612 603 454 352 291 123 359 746 989 1494 2120 1387 2148 1296 1976 1501 1492 1582 1832 2237 2492 3182 3068
0 0 0 0 0 0 0 0 0 0 0 0 0 7 206 179 51 4 48 313 281 487 601 519 331 358 176 498 675 976 1357 2024 1351 1434 2023 1852 1704 1424 2190 1598 2761 2624 3641 3526
0 0 0 0 0 0 0 0 0 0 0 0 0 0 0 254 101 15 7 309 387 268 564 742 494 447 316 426 528 1119 1310 1665 1684 1391 1522 2150 1428 2410 1941 1956 1796 2478 2586 2836
0 0 0 0 0 0 0 0 0 0 0 0 0 0 0 32 167 11 0 372 687 578 558 830 857 709 538 378 517 836 1350 1475 1562 1521 1089 2157 1602 1835 2870 3104 1870 1539 2041 1749
0 0 0 0 0 0 0 0 0 0 0 0 0 0 0 0 309 297 128 168 62 809 719 764 910 938 820 633 533 719 1405 1571 1586 1925 1102 1318 2241 1472 1729 2759 1698 2752 1530 1976
0 0 0 0 0 0 0 0 0 0 0 0 0 0 0 0 0 484 121 29 8 182 754 883 954 932 1161 959 709 897 1373 1652 1903 1667 1859 1048 1996 1981 1107 2265 2808 2042 2510 2199
0 0 0 0 0 0 0 0 1 0 0 0 0 0 0 0 0 0 186 157 175 93 189 434 1013 988 1168 1116 1116 978 1462 1772 2042 1745 2010 1635 997 1692 1777 1052 2916 2133 2688 2442
0 0 0 0 0 0 0 0 0 1 13 0 0 0 0 30 0 0 327 159 4 0 5 102 339 1091 1047 1132 1321 1203 1290 1984 2321 2285 1936 1917 1619 1258 1141 1616 1283 2098 2105 4008
0 0 0 0 0 0 0 0 0 16 1 6 2 0 0 0 10 0 0 259 160 91 55 63 46 435 1078 1103 1145 1403 1361 1702 2218 2398 2194 2046 2300 1675 1405 884 2044 2625 3407 2866
1 0 0 0 0 0 0 0 0 0 0 23 22 0 0 4 16 26 0 3 354 476 250 201 229 718 976 1049 1185 1249 1384 1313 2082 2446 2355 2244 2123 2208 1814 1086 1508 2408 2155 2806
0 0 0 0 0 0 0 0 0 0 5 0 0 0 0 23 1 17 15 43 55 508 402 562 899 884 1253 1247 1199 1260 1304 1348 1485 2119 2216 2278 2215 2174 1882 1914 1158 1959 2837 2580
0 0 2 0 0 0 0 0 0 0 0 3 0 0 0 72 100 17 83 133 79 62 226 381 1221 428 836 1927 1714 1510 1349 1243 1337 1634 1844 2190 2326 2199 2270 1929 2099 1865 2008 2490
51 43 36 0 0 0 0 0 0 0 0 0 0 0 0 0 10 11 106 332 370 515 428 649 718 1248 1622 2030 2258 2133 1753 1575 1365 1463 1694 1985 2207 2319 2430 2240 2246 2373 2340 2645
124 227 119 1 27 17 0 0 0 0 0 0 0 0 0 0 56 1 115 191 217 328 412 411 311 485 998 1107 2111 2575 2249 1942 1742 1821 1823 1905 2338 2297 2327 2504 2108 2595 2472 2632
76 111 242 69 90 0 0 0 0 0 0 0 0 0 0 0 19 0 0 26 158 294 379 477 207 364 304 450 570 2791 2646 2538 2572 1948 2360 2068 2349 2284 2509 2372 2509 2174 2605 2609
84 157 290 155 34 35 5 27 151 157 60 0 194 22 0 0 0 32 195 272 125 100 141 238 310 524 931 1164 1166 1374 2958 2637 2402 2859 2234 2516 2071 2459 2523 2592 2553 2463 2514 2862
199 223 279 180 87 26 15 111 61 34 14 166 86 62 143 205 7 63 86 16 4 21 12 40 0 115 760 1485 1254 1119 1323 3116 2572 2274 2827 2839 2310 2601 2665 2676 2696 2672 2759 2779
201 378 195 223 169 27 189 142 70 96 70 77 12 29 8 47 160 119 0 4 0 0 0 0 1 52 663 2030 2204 1564 1569 1678 3228 2725 2498 3087 3567 2719 3121 3175 3161 3150 3103 3131
98 92 197 153 205 69 317 174 108 105 45 5 4 25 73 4 21 5 0 0 0 0 0 0 0 0 135 1649 2107 2186 2411 2084 2653 3482 3004 3670 3120 3518 3321 3612 3703 3545 3598 3573
37 12 149 165 128 350 125 10 5 10 15 8 0 4 34 27 0 0 0 0 0 0 0 0 0 48 213 868 1797 1994 2654 3166 2768 3487 3521 3558 4016 3654 3586 3880 3859 3899 3839 3686
0 0 0 3 46 19 1 2 2 0 10 17 26 17 18 0 0 0 0 0 0 0 0 0 0 138 303 628 1467 1694 2029 2418 3267 3296 4043 3663 4104 3919 3700 3688 3798 3856 3777 3783
0 0 0 0 0 0 0 0 0 0 0 0 10 0 0 0 0 0 0 0 0 0 0 0 0 64 301 650 1207 1633 1486 1901 2565 4210 3976 3721 3760 3434 3839 3390 3740 3769 3746 3624
0 0 0 0 0 0 0 0 0 0 0 0 0 0 0 0 0 0 0 0 0 0 5 26 68 69 233 549 805 1447 1855 2404 2671 3526 3731 3637 3390 3545 3530 3456 3134 3213 3390 3183

GFSCGP_con_mucape_069.txt.gz
CAPE
0 0 0 0 0 0 0 0 0 0 0 0 228 326 263 154 113 482 322 246 68 194 230 149 53 38 15 28 0 81 202 196 806 866 688 773 705 505 965 1490 1408 1605 1465 884
0 0 0 0 0 0 0 0 0 0 0 60 412 320 218 80 159 201 81 254 102 205 264 123 82 81 14 31 0 131 352 343 829 757 711 477 468 943 438 457 1159 1577 1635 1073
0 0 0 0 0 0 0 0 0 0 0 46 203 223 128 49 36 49 172 128 225 180 207 235 125 111 41 9 6 0 705 465 674 428 489 791 958 959 788 616 900 1433 1750 1425
0 0 0 0 0 0 0 0 0 0 0 0 60 103 132 85 75 160 207 194 311 182 140 245 158 87 98 0 30 11 750 513 643 522 132 558 559 695 658 767 1459 1567 1419 1763
0 0 0 0 0 0 0 0 0 0 0 0 0 0 138 100 72 97 110 132 215 304 212 173 235 103 66 14 51 185 844 511 271 721 160 269 358 607 633 821 1185 1618 1664 1692
0 0 0 0 0 0 0 0 0 0 0 0 0 0 22 66 54 14 80 0 167 278 313 186 218 113 26 56 0 316 752 398 315 304 798 202 330 332 804 914 1091 1392 1893 1974
0 0 0 0 0 0 0 0 0 0 0 0 0 0 0 160 163 20 39 51 113 196 320 233 261 174 44 34 102 187 388 807 254 204 325 1012 337 228 1082 1106 1349 1303 1568 1768
0 0 0 0 0 0 0 0 0 0 0 0 0 0 0 34 301 145 227 9 95 313 371 303 283 228 161 104 233 241 292 513 436 114 78 386 981 200 498 1125 1391 1190 1367 1223
0 0 0 0 0 0 0 0 0 0 0 0 0 0 0 0 195 188 206 35 354 372 284 262 249 330 296 175 139 344 337 293 603 381 0 152 1049 281 398 708 1119 1202 1127 1262
0 0 0 0 0 0 0 0 0 0 0 0 0 0 0 0 16 228 147 339 365 439 191 262 368 290 262 270 224 245 501 399 623 574 256 22 361 1021 441 504 764 1307 542 1226
0 0 0 0 0 0 0 0 0 0 0 0 0 0 0 0 0 66 275 330 217 157 155 323 406 436 422 357 210 242 629 564 645 510 711 142 24 772 898 539 303 1079 981 1365
0 0 0 0 0 0 0 0 0 0 0 0 0 0 0 0 0 24 256 415 481 366 402 141 159 146 457 521 475 267 409 731 771 716 740 816 146 250 628 755 260 511 920 912
0 0 0 0 0 0 0 0 0 0 0 0 0 0 0 0 0 22 223 285 290 281 358 273 136 56 0 343 595 468 405 858 903 1065 702 998 869 106 405 303 610 312 1517 707
0 0 0 0 0 0 0 0 0 0 0 0 0 0 0 0 0 1 11 211 277 382 301 250 178 123 26 412 614 618 538 790 1143 1213 1245 969 996 966 204 186 53 1059 944 2042
0 0 0 0 0 0 0 0 0 0 0 0 0 0 0 0 0 0 65 291 370 356 227 247 95 170 284 426 514 652 760 693 1232 1534 1500 1362 1169 1093 1184 658 408 16 1246 926
0 0 0 0 0 0 0 0 0 0 0 0 0 0 0 0 0 0 10 105 188 173 250 348 137 251 460 710 331 264 798 896 848 1506 1735 1620 1446 1318 1261 1298 1013 748 337 1647
1 1 3 0 0 0 0 0 0 0 0 0 0 0 0 0 0 15 148 83 171 140 129 153 206 268 329 243 129 16 382 886 1016 1051 1607 1669 1647 1545 1399 1383 1279 1175 932 546
0 3 20 0 19 0 0 0 0 0 0 2 0 0 0 0 0 0 61 49 73 145 106 153 155 352 336 374 224 383 620 979 919 1048 1248 1589 1609 1571 1570 1483 1473 1280 1291 971
0 12 8 26 23 0 0 0 73 1 0 21 15 0 0 0 0 0 0 0 0 63 80 112 122 142 147 800 359 197 266 736 1047 1249 1183 1419 1535 1590 1605 1496 1499 1562 1487 1591
1 18 40 22 1 0 53 139 101 39 0 0 0 1 0 0 3 0 0 0 0 0 0 9 73 57 0 0 515 648 74 438 877 1171 1500 1472 1399 1618 1478 1612 1468 1663 1576 1378
0 7 4 20 30 3 141 121 107 13 0 1 0 11 0 2 2 0 0 0 0 0 0 0 2 0 0 1 26 708 369 493 1087 1348 1721 1773 1505 1542 1588 1565 1633 1543 1653 1534
0 33 3 17 8 4 14 159 91 4 0 2 0 10 0 0 8 10 0 0 0 0 0 0 0 3 0 11 55 181 133 634 1299 1528 2054 2077 2022 1618 1816 1718 1816 1778 1735 1742
0 0 0 12 59 2 0 0 0 0 0 0 0 0 0 0 0 4 19 0 0 0 0 0 0 0 0 7 23 22 337 1131 1507 1766 1937 2190 2373 2066 1838 2009 1942 2002 1973 1940
0 0 0 0 0 1 0 0 0 0 0 0 0 0 1 2 1 0 0 1 0 0 0 0 0 0 0 0 69 127 244 1082 1503 1596 2027 2653 2604 2714 2214 2517 2253 2329 2285 2316
0 0 0 0 0 0 0 0 0 0 0 0 0 13 7 4 0 1 0 0 0 0 0 0 0 0 0 0 6 102 136 532 1286 1463 1891 2790 2610 3004 2794 2734 2836 2558 2638 2601
0 0 0 0 0 0 0 0 0 0 0 0 0 1 0 1 1 0 0 0 0 2 0 0 0 9 0 0 0 74 235 303 1179 1759 2540 3141 2854 3149 3017 2781 2721 3035 3010 2997

GFSCGP_con_mucape_072.txt.gz
CAPE
0 0 0 0 0 0 0 0 0 0 0 1 255 367 365 333 170 410 254 156 92 77 167 57 40 31 23 4 60 325 328 176 104 239 424 408 604 754 969 804 764 1073 1021 456
0 0 0 0 0 0 0 0 0 0 0 66 412 436 302 206 343 371 401 241 142 111 149 202 89 75 35 0 0 0 236 160 190 263 154 372 468 734 969 821 1056 1040 892 241
0 0 0 0 0 0 0 0 0 0 4 290 280 287 250 127 292 437 514 277 173 126 90 219 197 118 70 28 34 0 130 151 303 215 282 358 369 398 907 889 983 1198 1213 812
0 0 0 0 0 0 0 0 0 0 0 0 151 129 191 127 165 399 414 97 91 146 104 252 183 159 132 53 48 39 237 176 383 211 305 452 726 507 408 407 477 1052 1398 1015
0 0 0 0 0 0 0 0 0 0 0 0 13 0 1 60 149 268 457 148 229 183 196 260 239 133 135 145 78 260 304 236 437 351 159 399 324 688 441 390 630 872 1163 1261
0 0 0 0 0 0 0 0 0 0 0 0 0 0 0 48 82 83 460 397 283 169 202 252 338 266 170 123 117 394 324 268 407 352 199 101 329 267 488 534 888 1097 1002 1296
0 0 0 0 0 0 0 0 0 0 0 0 0 0 0 12 151 131 222 370 237 329 291 247 297 322 233 149 109 177 354 260 306 426 337 56 126 225 494 641 881 970 1277 1298
0 0 0 0 0 0 0 0 0 0 0 0 0 0 0 0 129 187 189 199 267 294 397 285 256 302 285 191 167 135 344 245 208 410 494 465 111 122 213 728 785 940 1144 1450
0 0 0 0 0 0 0 0 0 0 0 0 0 0 0 0 4 165 176 155 309 288 374 375 293 310 331 239 166 184 217 191 198 128 131 316 591 262 161 670 945 921 816 1051
0 0 0 0 0 0 0 0 0 0 0 0 0 0 0 0 0 34 187 139 211 378 365 345 391 304 293 321 149 121 167 223 272 145 110 43 242 635 464 229 607 1253 1010 963
0 0 0 0 0 0 0 0 0 0 0 0 0 0 0 0 0 36 132 144 71 346 431 459 396 356 306 243 170 88 70 157 346 333 158 63 16 183 792 335 265 808 1220 1094
0 0 0 0 0 0 0 0 0 0 0 0 0 0 0 0 4 135 244 59 51 226 335 430 516 449 386 274 176 163 246 146 140 388 345 151 20 30 480 804 255 223 635 911
0 0 0 0 0 0 0 0 0 0 0 0 0 0 0 0 9 149 228 184 189 119 233 327 267 265 359 356 319 244 244 398 265 377 385 394 166 0 94 503 755 431 394 788
0 0 0 0 0 0 0 0 0 0 0 0 0 0 0 0 0 0 259 140 134 192 289 299 165 62 7 29 214 363 370 484 490 477 458 516 552 230 7 159 353 660 454 350
0 0 0 0 0 0 0 0 0 0 0 0 0 0 0 0 0 9 47 211 217 191 180 141 79 40 29 29 0 391 455 521 687 640 672 450 744 696 349 81 153 173 496 360
0 0 0 0 0 0 0 0 0 0 0 0 0 0 0 0 88 33 102 105 66 216 199 190 122 340 357 179 157 204 467 513 755 808 839 812 567 873 832 627 374 65 18 517
0 0 0 0 0 0 0 0 0 0 0 0 0 0 0 0 11 0 0 14 23 39 74 177 186 285 349 290 166 79 292 685 631 1053 1079 1117 1050 858 899 976 849 698 451 17
0 0 0 0 0 0 0 0 0 0 4 0 0 0 0 0 7 3 0 0 0 1 83 59 146 200 263 145 98 151 126 494 784 788 1122 1526 1457 1339 1134 1039 1177 1118 981 875
0 0 0 0 0 0 0 0 0 16 14 6 0 0 0 0 37 0 0 0 0 0 21 47 0 125 181 185 166 246 284 378 628 750 929 1019 1750 1652 1502 1406 1308 1266 1231 1162
0 0 0 0 0 0 0 29 84 29 48 1 0 1 0 0 5 0 0 0 0 0 0 0 1 0 54 29 20 335 233 502 553 929 1024 1003 1033 1554 1689 1630 1543 1447 1364 1263
0 0 0 0 0 0 0 0 87 24 0 0 0 0 0 0 0 0 0 0 1 0 0 0 0 0 0 0 0 176 290 190 156 487 520 807 930 1365 1550 1654 1599 1520 1496 1391
0 0 0 0 0 0 0 0 8 0 0 0 0 0 0 0 0 0 0 0 0 0 0 0 0 0 1 0 0 13 262 231 123 179 112 457 1006 1485 1753 1590 1581 1467 1431 1518
0 0 0 0 0 1 0 0 0 0 0 0 0 0 0 0 0 0 0 0 0 0 0 0 0 0 0 0 0 0 0 5 198 150 239 323 865 1471 1663 1805 1515 1540 1453 1464
0 0 0 0 0 0 0 0 0 0 0 0 0 0 0 0 0 0 0 0 0 0 0 0 0 0 0 0 0 0 0 0 0 134 353 707 939 1381 1835 1804 1790 1682 1488 1420
0 0 0 0 0 0 0 0 0 0 0 0 0 0 0 0 5 0 0 0 0 0 0 0 0 0 0 0 0 0 0 0 0 10 199 915 1455 1462 2125 1772 1875 1883 1721 1568
0 0 0 0 0 0 0 0 0 0 0 0 0 0 0 0 0 0 0 0 0 0 7 0 0 0 0 0 0 0 0 0 0 25 160 770 1722 1888 2279 2407 2051 2003 2063 1919

GFSCGP_con_mucape_075.txt.gz
CAPE
0 0 0 0 0 0 0 0 0 7 0 0 176 288 263 282 394 262 177 84 48 66 81 132 131 5 30 87 140 93 247 246 505 424 423 335 400 495 737 779 818 660 858 503
0 0 0 0 0 0 0 0 0 0 3 11 242 318 199 442 254 466 274 112 52 83 102 126 123 28 1 34 84 126 277 173 427 280 373 349 410 587 803 904 992 1015 880 511
0 0 0 0 0 0 0 0 0 0 0 244 146 310 286 286 279 372 425 291 90 23 57 132 124 71 0 5 41 130 147 102 188 246 320 337 488 629 797 855 806 1093 1008 394
0 0 0 0 0 0 0 0 0 0 0 0 161 98 265 171 253 268 494 443 256 71 49 115 138 99 37 0 32 175 209 151 75 186 153 305 414 560 770 755 837 1213 1189 924
0 0 0 0 0 0 0 0 0 0 0 0 0 0 0 179 232 269 536 481 374 226 85 100 172 182 96 0 0 64 158 135 84 96 111 186 376 369 407 741 767 648 1152 1304
0 0 0 0 0 0 0 0 0 0 0 0 0 0 0 76 140 202 426 498 489 280 209 89 136 206 171 90 85 57 0 36 82 110 78 142 206 422 487 414 465 546 898 1376
0 0 0 0 0 0 0 0 0 0 0 0 0 0 0 5 44 76 151 393 500 445 139 169 150 202 203 173 110 54 60 82 107 97 97 90 157 223 357 554 474 595 857 989
0 0 0 0 0 0 0 0 0 0 0 0 0 0 0 0 0 0 47 128 304 343 213 203 192 208 210 213 128 59 46 59 79 135 110 116 48 74 188 314 492 655 872 1013
0 0 0 0 0 0 0 0 0 0 0 0 0 0 0 0 0 6 24 40 385 355 230 231 207 212 233 267 257 162 101 57 64 100 114 122 72 30 115 118 434 704 798 1008
0 0 0 0 0 0 0 0 0 0 0 0 0 0 0 0 46 55 41 2 98 350 266 143 215 232 274 300 320 297 259 216 119 79 89 114 128 89 51 51 353 862 815 885
0 0 0 0 0 0 0 0 0 0 0 0 0 0 0 0 8 47 59 15 0 146 204 203 324 256 205 257 322 340 363 311 258 234 112 78 109 219 338 201 81 177 768 1020
0 0 0 0 0 0 0 0 0 0 0 0 0 0 0 0 0 18 69 55 0 88 165 191 265 312 282 242 248 350 346 314 240 237 252 106 30 50 159 289 310 260 159 615
0 0 0 0 0 0 0 0 0 0 0 0 0 0 0 0 0 0 115 125 65 68 306 279 266 304 281 279 213 204 238 304 277 177 226 222 56 27 31 99 254 311 320 174
0 0 0 0 0 0 0 0 0 0 0 0 0 0 0 0 0 0 54 229 122 162 211 379 382 297 291 300 243 219 229 198 169 185 258 189 190 117 68 26 53 261 327 332
0 0 0 0 0 0 0 0 0 0 0 0 0 0 0 0 0 0 0 243 279 232 213 212 369 342 273 386 231 183 271 244 229 211 244 268 238 235 165 78 2 21 179 226
0 0 0 0 0 0 0 0 0 0 0 0 0 0 0 11 9 0 0 2 116 209 286 224 161 266 282 257 198 80 105 209 293 338 364 357 317 341 419 335 188 33 0 85
0 0 0 0 0 0 0 0 0 0 0 0 0 0 0 23 0 0 0 0 0 1 132 218 175 176 249 199 216 152 85 152 411 491 416 433 476 503 526 619 493 296 117 44
0 0 0 0 0 0 0 0 0 0 0 0 0 0 0 2 2 1 0 0 0 0 24 80 99 148 107 115 326 202 143 101 248 614 720 700 708 641 599 672 642 546 423 241
0 0 0 0 0 0 0 0 0 0 0 0 0 1 0 0 31 2 2 0 0 0 0 111 119 177 154 74 24 146 233 319 246 263 686 729 1006 1011 1053 1020 955 873 767 670
0 0 0 0 0 0 0 0 0 0 0 0 0 0 0 0 41 52 1 0 0 0 0 0 93 67 118 255 99 91 190 290 287 386 405 476 972 1377 1407 1378 1474 1376 1176 1025
0 0 0 0 0 0 0 0 0 0 0 0 0 0 0 0 0 20 24 0 0 0 0 0 0 0 6 0 1 66 159 211 249 428 377 752 794 874 1042 1136 1392 1461 1441 1408
0 0 0 0 0 0 0 0 0 0 0 0 0 0 0 0 0 0 1 1 0 0 0 0 0 0 0 0 0 0 3 29 112 173 193 170 889 840 657 932 1262 1485 1487 1454
0 0 0 0 0 0 0 0 0 0 0 0 0 0 0 0 0 0 0 0 0 0 0 0 0 0 0 0 0 0 1 22 11 92 131 124 182 825 943 734 1347 1443 1516 1554
0 0 0 0 0 0 0 0 0 0 0 0 0 0 0 0 0 0 0 0 0 0 0 0 0 0 0 0 0 0 0 0 12 131 162 123 186 203 420 775 1359 1431 1467 1557
0 0 0 0 0 0 0 0 0 0 0 0 0 0 0 0 0 0 0 0 0 0 0 0 0 0 0 0 0 0 0 0 0 0 115 209 221 217 593 1042 1295 1577 1477 1529
0 0 0 0 0 0 0 0 0 0 0 0 0 0 0 0 0 0 0 0 0 0 0 0 0 0 0 0 0 0 0 0 0 0 5 90 64 136 682 1198 1367 1772 1714 1600

GFSCGP_con_mucape_078.txt.gz
CAPE
0 0 0 0 0 0 0 0 8 2 0 0 23 139 334 422 315 294 208 72 46 48 62 54 41 2 11 27 31 19 98 100 212 152 212 301 290 344 397 468 312 389 573 464
0 0 0 0 0 0 0 0 7 13 0 4 188 211 318 324 268 402 285 136 46 46 75 78 6 0 0 0 25 8 80 94 209 156 257 290 275 344 460 486 561 676 743 597
0 0 0 0 0 0 0 0 0 12 0 196 128 157 373 432 213 402 393 201 85 54 65 99 78 41 0 0 1 19 49 91 178 222 371 283 225 305 528 514 603 853 788 731
0 0 0 0 0 0 0 0 0 0 0 0 92 0 113 361 545 231 333 412 203 66 65 88 117 146 73 38 39 6 19 59 141 261 243 242 257 396 532 461 598 816 909 756
0 0 0 0 0 0 0 0 0 0 0 0 0 0 0 310 287 270 211 321 398 167 83 92 113 112 134 43 0 60 31 26 128 216 218 228 305 399 498 511 591 688 1027 1018
0 0 0 0 0 0 0 0 0 0 0 0 0 0 0 55 123 135 140 123 353 355 206 88 91 84 114 73 0 7 71 111 115 166 126 142 201 280 300 452 524 670 540 955
0 0 0 0 0 0 0 0 0 0 0 0 0 0 0 0 0 0 0 78 320 417 289 137 89 99 114 113 40 7 71 101 82 49 72 91 97 183 237 238 254 446 455 678
0 0 0 0 0 0 0 0 0 0 0 0 0 0 0 0 0 13 0 3 267 524 412 270 137 139 183 184 138 59 62 82 88 64 68 4 4 73 214 348 383 403 403 652
0 0 0 0 0 0 0 0 0 0 0 0 0 0 0 0 0 0 0 15 71 410 475 379 259 164 172 198 236 196 176 100 87 60 64 0 0 3 87 173 250 322 421 690
0 0 0 0 0 0 0 0 0 0 0 0 0 0 0 0 0 0 0 0 4 27 417 430 394 279 186 175 208 252 236 189 101 119 113 67 20 8 0 36 134 254 440 603
0 0 0 0 0 0 0 0 0 0 0 0 0 0 0 0 0 0 0 3 35 45 288 443 355 366 175 231 201 254 269 259 148 177 226 188 49 28 0 0 41 302 424 675
0 0 0 0 0 0 0 0 0 0 0 0 0 0 0 0 0 0 48 57 162 130 151 423 418 287 245 236 238 268 266 278 275 236 290 269 184 39 0 0 0 3 259 380
0 0 0 0 0 0 0 0 0 0 0 0 0 0 0 0 0 17 53 113 209 347 398 365 273 265 229 229 226 201 179 240 218 235 341 271 195 133 84 68 1 0 36 102
0 0 0 0 0 0 0 0 0 0 0 0 0 0 0 0 0 0 78 105 150 243 475 539 575 448 357 240 212 197 249 232 223 246 230 293 200 154 117 30 59 34 6 33
0 0 0 0 0 0 0 0 0 0 0 0 0 0 0 0 0 0 0 146 59 102 287 275 553 411 432 368 270 244 217 232 217 204 205 240 239 95 101 0 0 0 0 0
0 0 0 0 0 0 0 0 0 0 0 0 0 0 0 0 0 0 0 0 50 45 30 190 297 344 666 651 224 394 354 319 184 232 285 268 218 142 81 56 48 18 0 0
0 0 0 0 0 0 0 0 0 0 0 0 0 0 0 0 0 0 0 0 0 0 2 30 136 203 304 258 385 223 207 116 106 211 216 238 282 274 236 226 139 114 121 75
0 0 0 0 0 0 0 0 0 0 0 0 0 0 0 0 0 0 0 0 0 0 0 0 1 36 123 139 186 170 242 216 139 234 416 296 323 356 357 357 370 368 350 348
0 0 0 0 0 0 0 0 0 0 0 0 0 0 0 0 0 0 0 0 0 0 0 0 0 0 39 69 17 52 163 359 251 174 445 586 656 451 426 457 518 457 532 526
0 0 0 0 0 0 0 0 0 0 0 0 0 0 0 0 0 0 0 0 0 0 0 0 0 0 23 6 0 10 64 212 382 266 293 666 593 708 752 814 762 655 715 837
0 0 0 0 0 0 0 0 0 0 0 0 0 0 0 0 0 0 0 0 0 0 0 0 0 0 0 0 0 39 85 77 92 322 340 287 371 577 1090 1074 1030 894 903 955
0 0 0 0 0 0 0 0 0 0 0 0 0 0 0 0 0 0 0 0 0 0 0 0 0 0 0 0 0 0 3 0 16 9 114 321 362 554 683 779 1254 1645 1222 1220
0 0 0 0 0 0 0 0 0 0 0 0 0 0 0 0 0 0 0 0 0 0 0 0 0 0 0 0 0 0 0 0 0 0 0 22 101 110 299 726 344 319 987 1337
0 0 0 0 0 0 0 0 0 0 0 0 0 0 0 0 0 0 0 0 0 0 0 0 0 0 0 0 0 0 0 0 0 0 0 0 15 65 48 9 33 195 941 1393
0 0 0 0 0 0 0 0 0 0 0 0 0 0 0 0 0 0 0 0 0 0 0 0 0 0 0 0 0 0 0 0 0 0 0 0 0 20 5 21 94 233 555 1320
0 0 0 0 0 0 0 0 0 0 0 0 0 0 0 0 0 0 0 0 0 0 0 0 0 0 0 0 0 0 0 0 0 0 0 0 0 0 2 0 22 315 694 1037

GFSCGP_con_mucape_081.txt.gz
CAPE
0 0 0 0 0 0 0 51 39 4 5 0 0 1 199 752 256 383 195 118 63 58 124 171 139 130 21 57 45 260 632 791 732 679 519 817 1068 1119 1378 1388 1249 1129 1521 1537
0 0 0 0 0 0 0 1 2 0 0 0 200 257 281 376 357 313 373 154 189 116 95 89 104 109 70 83 142 289 576 820 830 683 728 909 1071 1094 1383 1520 1460 1121 1454 1651
0 0 0 0 0 0 0 0 0 0 0 322 295 337 345 555 549 614 614 333 172 193 169 116 67 88 125 126 176 355 645 834 869 849 846 931 1113 1238 1388 1463 1619 1636 1633 1636
0 0 0 0 0 0 0 0 2 0 0 0 116 3 370 398 486 451 689 610 407 259 220 222 93 50 65 184 238 450 571 796 860 993 882 1119 1020 1011 1109 1401 1674 1717 1867 1622
0 0 0 0 0 0 0 0 0 0 0 0 0 0 0 264 340 339 271 439 399 316 246 242 162 58 25 139 253 350 624 749 889 946 1174 1186 1453 1095 1301 1342 1670 1901 2232 1972
0 0 0 0 0 0 0 0 0 0 0 0 0 0 0 0 6 23 35 235 349 469 304 244 205 151 117 126 204 303 547 831 881 973 1076 1277 1594 1363 1347 1482 1497 1560 1815 2127
0 0 0 0 0 0 0 0 0 0 0 0 0 0 0 0 0 1 15 9 44 429 640 309 206 185 230 198 191 266 492 800 726 846 956 1086 1375 1635 1721 1701 1466 1537 1574 1587
0 0 0 0 0 0 0 0 0 0 0 0 0 0 0 0 0 0 6 34 78 235 534 632 275 227 283 229 263 299 446 862 704 740 1251 1128 1217 1095 1172 1557 1216 1354 1470 1612
0 0 0 0 0 0 0 0 0 0 0 0 0 0 0 0 0 16 36 75 103 73 616 732 534 229 304 259 268 358 558 746 668 693 1134 1154 1076 1036 1187 1311 1588 1362 1741 1452
0 0 0 0 0 0 0 0 0 0 0 0 0 0 0 0 0 2 24 61 186 273 105 779 850 416 297 283 241 270 399 596 943 726 866 798 698 882 1058 1146 1492 1493 1622 1848
0 0 0 0 0 0 0 0 0 0 0 0 0 0 0 0 5 2 86 177 344 621 235 480 844 771 438 298 260 251 291 386 553 604 1036 1011 768 609 745 799 1067 1444 1602 1884
0 0 0 0 0 0 0 0 0 0 0 0 0 0 0 0 4 2 157 109 410 364 591 692 639 724 415 423 428 367 297 295 346 649 839 940 1042 805 582 689 807 1163 1490 1665
0 0 0 0 0 0 0 0 0 0 0 0 0 0 0 0 0 2 2 1 137 274 429 326 477 596 489 367 366 300 316 360 360 390 344 487 600 778 804 775 769 814 1017 1368
0 0 0 0 0 0 0 0 0 0 0 0 0 0 0 0 0 0 1 0 34 199 282 421 732 548 335 461 520 347 320 320 332 441 464 480 590 573 684 1189 1071 868 912 1086
0 0 0 0 0 0 0 0 0 0 0 0 0 0 0 1 1 0 0 0 30 67 185 444 282 276 349 507 378 324 321 358 341 378 515 558 943 934 697 547 1142 1071 1025 998
0 0 0 0 0 0 0 0 0 0 0 0 0 0 0 0 0 0 0 0 0 0 24 62 153 306 290 274 277 178 216 237 543 508 531 855 804 929 1064 871 719 1322 1190 1049
0 0 0 0 0 0 0 0 0 0 0 0 0 0 0 0 0 0 0 0 0 0 0 1 0 18 89 97 229 260 185 185 379 441 688 924 881 865 930 861 995 1216 1084 1023
0 0 0 0 0 0 0 0 0 0 0 0 0 0 0 0 0 0 0 0 0 0 0 0 0 0 5 53 104 79 196 268 353 482 620 920 902 915 1010 973 876 1036 774 917
0 0 0 0 0 0 0 0 0 0 0 0 0 0 0 0 0 0 0 0 0 0 0 0 0 0 0 0 0 15 5 247 350 388 276 227 531 765 987 1091 1063 938 770 714
0 0 0 0 0 0 0 0 0 0 0 0 0 0 0 0 0 1 0 0 0 0 0 0 0 0 0 0 0 0 22 8 112 313 350 215 375 470 522 1016 1347 1318 1266 926
0 0 0 0 0 0 0 0 0 0 0 0 0 0 0 0 0 0 0 0 0 0 0 0 0 0 0 0 0 0 0 14 8 42 257 281 315 308 393 556 794 1214 1535 1616
0 0 0 0 0 0 0 0 0 0 0 0 0 0 0 0 0 0 0 0 0 0 0 0 0 0 0 0 0 0 0 0 0 12 74 100 180 215 303 429 506 608 1139 1189
0 0 0 0 0 0 0 0 0 0 0 0 0 0 0 0 0 0 0 0 0 0 0 0 0 0 0 0 0 0 0 0 0 0 3 10 47 116 138 284 371 571 610 817
0 0 0 0 0 0 0 0 0 0 0 0 0 0 0 0 0 0 0 0 0 0 0 0 0 0 0 0 0 0 0 0 0 0 0 0 1 0 33 84 167 463 414 224
0 0 0 0 0 0 0 0 0 0 0 0 0 0 0 0 0 0 0 0 0 0 0 0 0 0 0 0 0 0 0 0 0 0 0 0 0 0 0 0 1 61 273 73
0 0 0 0 0 0 0 0 0 0 0 0 0 0 0 0 0 0 0 0 0 0 0 0 0 0 0 0 0 0 5 0 0 0 0 0 0 0 0 0 0 0 0 36

GFSCGP_con_mucape_084.txt.gz
CAPE
0 0 0 0 0 24 46 93 56 281 350 63 10 258 1045 1054 779 388 255 272 202 35 86 304 311 154 0 0 70 493 676 875 1016 1050 990 1357 1372 1460 1502 1510 1566 1558 1665 1750
0 0 0 0 0 0 4 9 0 32 37 0 0 2 741 919 561 816 598 287 227 40 212 413 392 344 121 0 0 313 715 1002 945 790 1065 1111 1347 1333 1538 1471 1855 1569 1683 1547
0 0 0 0 0 0 1 30 0 0 14 5 86 163 235 493 375 420 338 576 362 99 180 493 475 391 289 0 164 309 793 995 1137 1074 1359 1812 1774 1863 1929 1823 1751 1692 1892 1894
0 0 0 0 0 0 5 7 0 0 0 101 97 443 519 325 468 542 577 508 748 494 210 282 504 499 383 187 132 408 834 1050 1182 1441 1406 1588 1152 1011 1090 1392 1385 1900 1954 1841
0 0 0 0 0 0 14 0 0 0 0 0 0 100 338 381 341 649 507 678 710 605 557 423 491 558 432 453 311 293 888 1252 1275 1536 1639 1516 1716 1003 1113 1053 1839 1979 2186 2046
0 0 0 1 0 0 0 0 0 0 0 0 0 48 52 88 139 140 137 236 706 890 811 666 602 597 534 439 547 550 959 1618 1802 1708 1938 1866 1565 1508 1207 1415 1516 1484 1609 1928
0 0 0 0 10 0 0 0 0 4 0 0 0 0 34 0 0 37 175 227 179 914 735 874 910 758 628 475 494 676 964 1663 1670 1556 1714 1923 2045 2024 1787 1469 1283 1313 1374 1436
0 0 0 0 0 0 0 0 0 1 0 4 0 18 0 0 0 95 224 344 296 376 993 894 731 941 783 688 660 860 979 1503 1721 1600 1709 1888 2063 1715 1656 1329 788 1247 1305 1506
13 0 0 0 0 0 0 0 0 0 3 2 0 0 0 0 9 77 191 291 564 410 491 965 974 930 861 836 947 1028 1233 1567 1662 1570 1693 1924 2070 1980 1322 1127 1425 1246 1259 1300
0 0 0 0 0 0 0 0 0 0 0 3 0 0 0 0 0 52 165 530 552 802 529 837 1225 1250 916 912 969 1123 1293 1548 1702 1546 1524 1675 1825 1996 1864 1580 1522 1477 983 1656
0 0 0 0 0 0 0 0 0 0 0 0 9 0 0 2 7 36 338 442 845 650 804 967 1207 1206 1105 987 1027 981 1174 1411 1679 1546 1418 1479 1514 1598 1770 1598 1520 1532 1542 1739
0 0 0 0 0 0 0 0 0 1 0 0 10 0 0 7 6 7 181 461 550 313 698 870 934 853 1165 981 1005 983 991 1036 1304 1527 1635 1556 1582 1540 1423 1554 1349 1382 1636 1609
0 0 0 0 0 0 0 0 0 0 0 4 0 0 0 17 17 19 18 141 353 321 299 393 951 903 1000 778 739 958 988 965 976 1135 1086 1323 1398 1490 1418 1298 1433 1395 1519 1652
0 0 0 0 0 0 0 0 0 0 2 17 1 0 8 19 18 37 9 9 236 305 428 236 440 395 349 349 379 588 707 844 864 1000 1082 1085 1061 1097 1122 1293 1297 1376 1564 1570
0 0 0 0 0 0 0 0 0 0 0 1 1 0 6 15 9 11 18 7 0 44 211 391 323 231 184 200 317 223 355 409 851 895 1032 1197 1331 1251 1154 1542 1216 1246 1498 1603
0 0 0 0 0 0 0 0 0 0 0 0 0 0 6 8 10 4 4 5 0 0 0 0 90 247 292 265 261 151 144 294 311 868 1133 1116 1304 1375 1504 1577 1473 1256 1512 1697
0 0 0 0 0 0 0 0 0 0 0 0 0 0 0 2 0 2 1 0 0 0 0 0 0 0 0 52 146 322 217 142 155 289 820 1020 1433 1523 1589 1483 1643 1715 1518 1438
0 0 0 0 0 0 0 0 0 0 0 0 0 0 0 0 0 0 0 0 0 0 0 0 0 0 0 0 4 41 125 327 414 289 220 357 370 915 1439 1678 1887 1655 1614 1639
0 0 0 0 0 0 0 0 0 0 0 0 0 0 0 0 0 0 0 0 0 0 0 0 0 0 0 0 0 0 0 2 296 324 397 225 119 233 594 1428 1593 1846 1811 1987
0 0 0 0 0 0 0 0 0 0 0 0 0 0 0 0 0 5 0 0 0 0 0 0 0 0 0 0 0 0 0 0 0 10 181 214 191 132 325 558 1082 1936 2677 1651
0 0 0 0 0 0 0 0 0 0 0 0 0 0 0 0 0 0 0 0 0 0 0 0 0 0 0 0 0 0 0 0 0 0 0 10 174 195 149 195 324 899 1797 2089
4 7 1 3 0 0 0 0 0 0 0 0 0 0 0 0 0 0 0 0 0 0 0 0 0 0 0 0 0 0 0 0 0 0 0 0 2 29 234 200 242 252 597 1181
0 2 10 0 13 0 0 1 0 0 0 0 0 0 0 0 0 0 0 0 0 0 0 0 0 0 0 0 1 0 0 0 0 0 0 0 0 0 19 43 70 87 119 518
0 0 0 0 0 0 0 0 0 0 0 0 0 0 0 0 0 0 0 0 0 0 0 0 0 0 2 2 5 4 2 2 3 6 0 0 0 0 0 0 0 20 48 99
3 0 0 0 0 0 0 0 0 0 0 0 0 0 0 0 0 3 0 0 0 0 0 0 0 0 20 31 19 8 8 7 1 6 1 0 0 0 0 0 0 0 0 12
0 0 0 0 0 0 0 0 0 0 0 0 0 0 2 4 0 7 8 11 0 0 0 0 0 0 0 0 31 37 28 19 10 19 1 0 0 0 0 0 0 0 0 0

GFSCGP_con_mucape_087.txt.gz
CAPE
0 0 0 0 0 21 118 136 78 227 331 344 299 552 1043 299 484 423 376 179 141 141 113 28 91 22 10 11 402 660 637 907 1005 983 901 2175 1399 2293 2827 2445 1763 1662 1948 1600
0 0 0 0 0 4 75 140 82 136 277 151 242 439 950 812 668 682 444 279 229 181 56 115 213 32 12 4 146 609 805 1146 1284 1123 1665 1027 1450 1793 1399 1592 1671 2215 1543 1629
0 0 0 0 0 0 98 190 109 65 19 13 48 390 943 724 936 691 589 416 283 176 42 274 282 197 64 35 0 466 861 1292 1248 1435 1315 1234 1937 1767 1302 1583 1448 1543 1626 1552
0 0 0 0 0 0 59 101 40 90 81 146 168 235 524 871 671 826 493 525 510 271 123 328 242 443 178 2 0 369 950 1117 1108 1811 1941 2595 1269 1304 1456 2355 1915 1884 1588 1930
0 0 0 0 0 0 7 140 49 9 21 55 144 202 47 898 996 906 975 816 677 427 224 329 341 371 288 96 162 437 1066 1746 2094 2006 2521 1742 2360 1178 1093 1700 2415 2081 2255 1817
0 0 0 0 0 0 21 80 53 16 29 70 48 171 251 442 455 426 628 756 985 866 428 374 496 516 697 184 192 392 1233 1921 1735 1753 1904 2257 1645 1738 1449 1523 1364 1377 1489 1754
4 0 0 9 12 0 42 19 59 27 19 40 21 168 119 57 154 260 257 424 697 1025 713 694 357 639 893 330 264 400 1373 1960 1758 1694 1857 2078 2005 1771 1878 1793 1563 1193 1429 1534
3 1 11 0 54 14 4 9 22 10 21 29 64 210 35 34 180 270 392 549 401 518 1009 741 817 719 872 741 333 574 1306 2149 2016 1842 2642 2881 2391 1794 1265 1513 2281 1022 2560 1291
31 18 0 0 3 0 20 6 3 42 70 81 93 18 77 111 160 276 379 479 1278 502 1123 1061 1123 439 646 853 832 852 1587 1816 2080 2057 2284 2741 2870 2569 1800 2470 1889 1518 1698 1512
26 16 0 0 0 0 0 2 47 10 68 98 130 56 131 97 158 357 374 321 771 1118 689 1163 928 664 222 508 700 710 1050 1581 2093 2161 2108 2046 2182 2402 2225 1538 1835 1656 1871 1266
2 8 0 0 0 0 0 0 24 70 34 143 118 167 75 88 170 173 364 541 409 689 869 1275 786 339 768 985 840 992 1112 1442 1912 2155 2194 2237 2068 2120 2309 2009 1796 1818 1618 1711
0 1 0 0 0 0 0 9 4 21 21 3 37 88 82 85 238 251 456 585 554 380 599 700 293 140 200 704 662 277 922 1237 1580 1966 2163 1974 1873 2029 1947 2200 2013 2244 2248 1791
0 0 29 0 0 0 0 0 0 15 49 79 58 79 129 114 173 187 365 382 324 493 463 593 377 401 513 540 508 377 524 628 1084 1661 1792 2007 1949 1902 1867 2126 2048 2248 2209 2270
0 3 25 10 15 0 0 0 0 0 5 42 233 204 227 141 145 32 25 148 403 303 192 267 480 463 504 452 369 478 547 595 714 942 1249 1757 1859 1965 1959 2462 2249 1905 2649 2371
0 2 3 0 0 0 0 0 0 0 0 74 327 318 188 68 115 52 27 17 18 91 150 139 147 157 233 172 171 277 520 622 634 838 1216 1019 1753 1811 1793 1862 1980 1834 2690 2618
3 13 0 0 0 0 0 0 0 0 0 5 128 164 33 25 20 25 33 16 1 0 0 0 81 63 102 168 318 68 83 262 381 438 620 811 1407 1761 2281 2110 1908 1967 1802 2746
15 37 4 0 0 0 0 0 0 0 0 3 233 149 20 31 18 15 18 16 11 8 0 0 0 0 0 14 38 233 398 80 81 142 502 531 636 811 1038 1674 2430 2670 2787 2417
5 17 25 0 0 0 0 0 0 0 0 1 54 40 11 17 10 0 0 0 0 0 0 0 0 0 0 0 0 0 9 415 401 208 102 243 443 615 768 941 1657 2391 2439 2446
0 0 14 2 0 5 0 0 0 0 0 0 0 0 0 0 5 1 0 0 0 0 0 0 0 0 0 0 0 0 0 0 0 31 132 170 142 209 261 780 807 1034 2151 2722
0 0 1 2 0 0 22 0 0 0 0 0 0 0 0 0 0 7 0 0 0 0 0 0 0 0 0 0 0 0 0 0 0 0 0 0 52 75 119 120 182 416 615 1774
0 0 0 4 5 33 0 0 0 0 58 0 0 2 0 0 0 0 0 0 0 0 0 0 0 0 0 0 0 0 0 0 0 0 0 0 0 0 52 78 145 267 320 308
9 10 9 8 43 24 0 0 0 6 0 0 0 0 0 0 0 0 0 0 0 0 0 0 0 0 0 0 0 0 0 0 0 0 0 0 0 0 0 0 6 82 132 283
37 46 108 42 190 32 0 0 0 0 1 0 0 0 0 0 0 0 0 0 0 0 0 0 0 0 1 3 1 0 0 0 0 0 0 1 0 0 0 0 0 0 17 36
1 0 1 0 8 0 0 0 0 0 0 0 0 0 0 0 0 0 0 0 0 0 0 0 0 0 6 7 9 16 12 2 0 0 0 0 0 0 0 0 0 0 0 4
25 5 0 0 10 5 1 0 0 0 0 0 0 0 0 0 0 0 0 1 1 1 1 1 3 0 1 7 7 16 22 24 17 2 0 0 0 0 0 0 0 0 0 0
0 5 20 124 2 1 7 1 0 0 0 0 0 0 0 0 1 1 2 4 6 6 9 9 10 11 2 0 6 22 17 25 47 33 6 0 0 0 0 0 0 0 0 0

GFSCGP_con_mucape_090.txt.gz
CAPE
0 0 0 0 0 6 28 97 241 132 454 681 652 434 451 232 45 25 51 50 44 66 95 18 15 18 73 379 824 1322 1522 2028 1791 1764 1521 1979 1537 2656 2470 540 899 2462 2368 1956
0 0 0 0 0 0 6 52 148 21 44 151 620 518 501 392 190 124 124 42 70 54 71 25 27 16 30 368 817 1579 1927 2107 2350 1898 2431 2103 1657 2034 2183 1879 2615 2558 2425 2234
0 0 0 0 0 0 0 2 139 127 43 23 149 280 514 376 739 423 237 167 82 85 49 49 128 56 30 294 750 1389 2125 1939 2185 2645 2098 408 394 296 788 2423 2389 2392 2277 2358
0 0 0 0 0 0 0 62 66 81 5 61 232 571 606 693 651 644 504 361 178 114 91 127 128 87 27 132 393 1369 2154 1795 1554 2632 2227 1918 876 886 1709 2270 1306 2397 2657 2457
0 0 0 0 0 0 0 146 7 36 22 27 15 352 202 259 545 670 678 499 167 95 83 130 189 221 116 147 140 1146 1812 2304 1654 2219 2560 2261 2037 832 434 1184 1759 2265 2839 2661
0 0 0 0 0 0 17 17 63 32 45 19 3 25 391 79 65 586 587 450 414 410 80 212 223 146 179 13 51 917 1849 2385 2721 2345 2445 2028 1741 509 1141 2115 2642 2110 2295 2482
0 0 0 0 0 0 0 1 106 62 0 3 37 66 275 3 28 256 875 712 615 608 592 126 207 232 242 15 222 1087 1871 2241 2244 2360 2367 2545 1904 2101 794 1331 521 1227 1069 1763
0 30 0 0 0 0 0 23 99 53 31 11 1 258 69 0 241 104 735 563 207 411 794 356 238 563 568 347 257 896 1904 2310 2275 2377 2676 3128 3055 2451 1859 2225 1968 926 1795 1568
17 52 0 21 28 49 6 0 54 73 38 65 224 68 86 222 293 375 420 627 801 574 775 1049 604 656 750 404 211 708 1921 2392 2471 2305 2831 3142 3221 2963 1947 2765 3297 2600 2226 902
45 68 49 0 0 0 5 7 5 29 88 114 280 174 287 323 382 263 234 370 456 609 868 757 460 495 674 720 417 1151 1758 2310 2720 2458 2554 2753 2957 3166 3265 3344 2244 3102 1870 496
5 21 2 0 0 19 0 0 0 22 63 90 189 201 274 242 307 214 149 262 387 455 634 391 306 164 551 385 232 290 823 2180 2623 2790 2801 2670 2644 2873 3179 3092 3231 2824 2584 1219
31 46 22 0 0 0 10 32 27 8 45 151 241 151 114 164 235 133 193 172 168 106 504 368 254 172 225 187 108 257 308 719 1692 2579 2958 2907 2806 2779 2901 3003 2987 3334 3288 3045
4 11 84 1 0 0 0 0 2 5 31 216 43 176 181 296 183 78 100 294 98 54 221 278 128 73 21 14 61 132 32 150 536 1671 2641 2712 2672 2844 2898 3163 2939 3295 3241 3109
2 2 33 28 29 0 0 0 0 0 0 56 265 302 250 158 135 106 95 100 222 124 107 69 49 89 44 33 111 160 80 71 132 397 1172 1222 2422 2446 2608 3138 3048 3012 3244 3009
0 1 0 3 1 0 0 0 0 0 0 383 437 309 292 104 45 42 7 13 36 26 56 37 47 59 66 93 142 195 193 234 118 141 559 398 630 1893 3164 2999 2826 2853 3345 2961
0 0 0 0 0 0 0 0 0 0 0 168 254 177 119 35 34 23 13 7 6 0 0 0 0 19 27 34 37 52 131 229 283 253 344 186 378 495 1099 1699 2617 2512 2696 2682
4 6 0 0 0 0 0 0 0 0 0 523 428 113 67 76 8 20 14 7 4 2 0 0 0 0 0 0 5 37 50 28 79 195 256 321 170 353 853 1008 1044 2063 2545 2787
18 50 11 0 5 0 0 0 0 0 0 378 412 274 83 2 0 0 0 0 0 0 0 0 0 0 0 0 0 0 0 16 38 57 68 86 187 290 488 544 617 793 1045 2159
0 1 16 9 0 6 0 0 0 0 0 181 304 130 30 2 0 0 0 0 0 0 0 0 0 0 0 0 0 0 0 7 0 0 14 74 125 78 120 176 384 472 541 799
0 0 0 35 0 0 6 0 0 0 0 8 51 45 4 0 0 0 0 0 0 0 0 0 0 0 0 0 0 0 0 0 0 0 0 0 1 0 39 61 87 113 327 247
0 0 0 6 36 73 0 0 0 0 69 14 6 0 1 1 1 0 0 0 0 0 0 0 0 0 0 0 0 0 0 0 0 0 0 1 1 2 12 0 36 50 56 88
15 4 3 0 40 81 0 0 0 37 42 0 2 1 1 0 0 0 0 0 0 0 0 0 0 0 0 0 0 0 2 5 3 2 0 0 4 0 0 2 0 1 48 54
138 94 228 163 270 36 0 8 4 0 0 0 0 0 0 0 0 0 0 0 0 0 0 0 0 0 0 3 0 0 9 9 18 9 3 1 0 0 0 0 0 0 0 75
45 0 104 153 226 102 7 6 0 0 0 0 0 0 0 0 0 0 0 0 0 0 0 0 0 0 0 1 1 6 15 19 18 16 19 6 0 0 0 0 0 0 0 0
235 49 4 49 22 9 2 0 0 0 0 0 0 0 0 0 0 0 0 0 0 0 0 0 1 0 1 4 4 5 17 10 12 14 12 6 0 0 1 4 3 0 0 0
19 3 227 177 23 39 25 1 0 0 0 0 0 0 0 0 0 0 0 0 0 0 0 2 1 1 1 7 2 15 14 18 1 3 5 4 1 0 0 0 0 0 0 0

GFSCGP_con_mucape_093.txt.gz
CAPE
0 0 0 0 0 0 0 78 131 55 32 1 185 158 198 143 49 9 4 5 14 10 1 9 24 32 129 0 139 109 81 834 303 980 741 733 815 937 632 620 834 1283 965 622
0 0 0 0 0 0 0 4 185 132 63 64 148 212 199 195 53 14 11 5 7 4 5 0 15 20 91 70 91 540 184 520 126 722 873 871 884 948 821 547 672 1143 1057 952
0 0 0 0 0 0 5 3 90 57 61 90 156 81 276 237 113 123 78 52 4 6 1 1 0 5 23 83 203 694 558 653 877 635 646 530 566 494 612 883 1035 1379 1393 1117
0 0 0 0 0 0 2 3 36 101 53 21 13 3 8 131 173 147 56 101 42 9 5 3 0 0 4 83 305 836 690 426 440 893 541 381 98 371 360 765 1178 1049 1181 1447
0 0 0 0 0 0 1 122 244 124 65 239 96 38 111 84 197 148 77 215 121 51 23 28 5 0 5 97 281 852 580 403 132 758 652 342 391 362 451 807 1213 1328 1220 1475
0 0 0 0 0 0 12 23 117 90 62 9 159 137 91 122 227 337 378 280 253 146 113 80 57 16 10 62 252 533 910 557 393 654 879 653 511 362 418 642 949 1067 1244 1301
0 0 0 0 0 0 0 0 4 59 41 10 0 200 99 147 205 136 271 242 368 216 129 143 150 107 42 46 284 426 985 1022 1022 814 935 619 689 319 618 623 743 943 1295 1381
0 0 0 0 0 0 16 14 1 2 2 1 39 95 69 105 55 213 447 299 324 382 216 197 204 127 99 85 217 454 762 1174 910 1147 1160 919 790 827 457 643 358 734 765 1041
1 0 0 0 0 0 4 7 0 27 21 22 243 74 7 7 16 137 283 113 164 272 859 439 262 176 160 125 168 491 899 915 926 1738 1281 1721 1120 871 984 981 1227 705 1014 1757
38 0 0 0 0 0 0 0 41 19 24 77 170 119 134 253 259 363 316 167 273 384 592 477 471 379 164 188 183 789 1013 1229 1238 1084 1621 1749 1440 1108 1172 1503 1603 1200 778 929
1 0 2 31 0 0 0 0 1 20 15 37 79 66 164 225 222 327 324 255 278 373 377 398 377 208 172 258 144 431 439 561 773 1449 1656 1789 1785 1697 1582 1566 1755 1577 830 685
0 0 4 0 0 0 35 0 27 33 25 89 110 90 279 66 89 138 156 214 162 540 322 428 368 225 126 45 72 238 235 230 381 673 1118 1725 2042 1912 1797 1824 2115 1480 1087 962
25 9 14 14 0 0 0 56 0 24 82 62 36 103 212 69 55 53 91 117 175 285 514 238 267 91 11 7 124 121 142 116 173 385 431 1335 2094 2037 1840 1899 2109 2120 1876 1161
12 35 14 0 0 0 0 25 11 8 78 86 94 187 430 92 78 24 150 115 94 124 178 142 82 106 66 26 85 65 83 33 52 67 160 396 618 1206 1816 2221 2165 2382 2298 2119
20 53 2 6 0 0 0 0 15 19 233 8 101 274 290 152 49 32 50 77 165 168 241 348 163 76 62 98 67 27 0 9 1 72 71 88 253 480 629 654 1655 1982 2125 2361
0 23 30 13 0 0 0 0 0 42 483 135 136 282 122 120 41 0 5 4 16 27 67 52 93 80 93 55 83 100 86 52 17 84 108 42 72 238 96 91 853 1512 1685 1832
0 25 30 0 3 0 0 0 0 0 462 450 354 284 158 58 5 0 9 6 0 0 0 0 0 13 77 9 4 0 60 89 79 124 139 160 115 65 165 248 537 943 1103 1484
0 0 1 20 0 0 0 0 0 0 411 497 439 264 137 57 0 2 0 0 0 0 0 0 0 0 0 0 0 0 0 40 77 91 96 97 129 134 220 305 429 561 760 987
1 0 0 0 0 0 3 0 0 42 759 475 437 288 79 30 10 0 0 0 0 0 0 0 0 0 0 0 0 0 0 0 2 6 9 61 71 82 84 122 306 263 428 515
0 0 0 0 0 0 0 0 0 12 527 453 330 189 127 96 44 1 0 0 0 0 0 0 0 0 0 0 0 0 0 0 0 0 0 0 0 0 0 21 58 76 87 185
0 0 0 0 4 12 0 0 0 0 76 321 256 233 152 18 17 8 0 0 0 0 0 0 0 0 0 0 0 0 0 0 0 0 0 0 0 0 0 0 0 0 32 61
30 0 0 0 0 38 0 0 12 69 54 71 69 52 11 0 0 0 0 0 0 0 0 0 0 0 0 0 0 0 0 0 0 0 0 0 0 0 0 0 0 0 0 0
48 6 56 94 58 0 0 0 13 58 35 33 37 10 0 0 0 0 0 0 0 0 0 0 0 0 0 0 0 0 0 0 0 0 0 0 0 0 0 0 0 0 0 0
76 10 18 102 146 36 0 0 0 0 7 12 18 3 0 0 0 0 0 0 0 0 0 0 0 0 0 0 0 0 0 0 0 0 0 0 0 0 0 0 0 0 0 0
187 41 0 5 79 28 12 0 0 0 0 0 0 2 0 0 0 0 0 0 0 0 0 0 0 0 0 0 0 0 0 0 0 0 0 0 0 0 0 0 0 0 0 0
61 11 30 142 41 36 74 2 0 0 0 0 0 0 0 0 0 0 0 0 0 0 0 0 0 0 0 0 0 0 0 0 0 0 0 0 0 0 0 0 0 0 0 0

GFSCGP_con_mucape_096.txt.gz
CAPE
0 0 0 0 0 0 0 0 75 135 214 59 122 278 253 181 171 109 18 15 24 35 48 52 94 86 82 0 20 99 310 611 688 585 736 556 564 541 761 842 981 1122 847 438
0 0 0 7 9 0 23 33 216 144 87 127 40 339 235 214 102 138 6 18 12 51 42 45 96 104 51 83 0 18 374 469 611 481 490 616 632 589 508 578 601 1009 670 347
0 0 0 0 1 3 48 12 165 215 77 27 24 95 142 284 189 76 67 37 18 23 34 73 114 76 52 64 116 225 454 246 193 641 510 609 704 540 746 659 591 961 921 875
0 0 0 0 0 0 33 12 92 349 175 121 27 0 73 110 149 126 143 122 15 15 9 66 146 122 100 187 270 91 212 126 347 534 518 496 507 520 512 727 820 941 1233 1036
0 0 0 0 0 0 19 119 123 263 80 98 14 2 2 0 153 136 215 145 47 10 15 39 138 182 133 174 386 210 257 314 760 630 546 451 324 294 285 604 830 1032 973 1301
0 0 0 0 0 0 10 113 261 133 123 58 29 89 103 6 65 145 156 99 172 66 39 37 87 150 180 188 507 262 169 126 548 759 723 371 308 313 447 603 825 938 905 1311
0 0 0 0 0 0 39 29 94 66 65 11 70 125 34 70 152 190 185 164 299 285 130 98 33 124 189 225 459 547 231 137 103 459 755 589 504 389 430 608 822 934 915 1173
0 0 0 0 0 0 22 0 0 60 54 25 125 77 71 167 457 180 364 345 187 237 208 54 87 50 155 217 348 776 391 242 369 407 741 613 595 443 512 614 667 740 827 1155
0 0 0 0 0 0 0 0 0 4 22 25 59 62 92 168 267 431 271 184 164 274 326 185 132 81 93 160 336 482 775 556 446 788 590 578 678 728 590 494 474 433 602 868
0 0 0 0 0 0 0 0 0 0 10 47 76 91 46 100 193 250 133 118 99 260 671 549 337 294 206 216 303 368 595 728 695 1047 798 916 703 658 557 544 748 953 806 1129
0 0 0 0 0 0 0 0 0 13 7 8 95 152 298 204 287 177 151 199 189 114 204 215 304 289 240 167 222 321 337 490 662 732 1042 1007 1251 1116 607 848 1228 1164 926 1001
0 0 0 0 0 0 0 0 7 21 17 149 122 159 417 208 218 115 105 234 297 482 189 227 325 296 249 195 163 34 151 198 365 472 645 708 949 1163 1264 1164 1278 1047 925 692
0 0 1 3 0 0 0 1 25 56 30 24 13 110 297 254 144 85 124 177 202 193 156 154 176 236 345 191 155 162 126 92 129 195 274 405 643 1064 1054 1395 1475 1346 1190 781
1 0 6 12 6 0 0 0 56 46 44 56 74 144 318 122 13 3 4 100 44 85 127 179 265 206 167 129 93 113 64 156 141 19 84 94 250 418 846 1141 1169 1292 1346 1117
0 0 0 28 1 0 0 0 35 38 22 14 301 223 237 16 35 4 28 54 56 77 99 66 165 121 118 66 96 145 122 123 141 108 46 34 74 181 198 260 382 877 1221 1412
0 16 0 0 0 0 0 0 92 71 130 241 266 167 165 77 2 5 6 18 38 84 141 82 131 159 113 108 165 134 120 71 49 4 6 29 52 69 127 134 68 417 796 1378
0 0 3 11 0 0 0 0 13 101 264 422 228 166 131 127 94 4 9 10 84 232 163 196 219 154 153 116 167 162 280 242 136 79 47 84 69 28 27 92 70 237 533 666
0 0 0 0 0 2 0 0 61 407 366 352 263 116 115 123 89 6 0 0 1 10 41 81 79 39 14 31 26 78 206 360 221 100 98 131 99 78 86 81 123 221 246 301
0 0 0 0 0 24 6 0 26 311 401 463 347 254 208 64 37 8 2 0 0 0 0 0 0 0 0 0 0 0 3 35 85 103 161 142 147 147 114 147 124 131 180 140
0 0 0 0 0 0 0 0 0 247 513 528 351 247 180 106 66 25 0 0 0 0 0 0 0 0 0 0 0 0 0 0 0 0 0 0 0 0 27 103 110 85 91 88
0 0 0 0 0 0 0 0 0 0 27 427 332 338 270 190 97 40 4 7 0 0 0 0 0 0 0 0 0 0 0 0 0 0 0 0 0 0 0 0 0 0 3 38
0 0 0 0 0 0 0 0 5 0 143 354 204 276 287 245 164 155 104 57 18 0 0 0 0 0 0 0 0 0 0 0 0 0 0 0 0 0 0 0 0 0 0 0
2 0 5 14 0 0 0 0 0 0 327 260 186 202 305 205 151 152 119 72 5 0 0 0 0 0 0 0 0 0 0 0 0 0 0 0 0 0 0 0 0 0 0 0
0 0 78 40 2 0 0 3 38 6 78 209 228 98 93 55 38 17 7 0 0 0 0 0 0 0 0 0 0 0 0 0 0 0 0 0 0 0 0 0 0 0 0 0
0 0 0 5 14 0 0 0 0 0 1 7 21 33 37 31 23 13 1 0 0 0 0 0 0 0 0 0 0 0 0 0 0 0 0 0 0 0 0 0 0 0 0 0
31 28 11 0 0 3 1 5 10 15 20 21 7 0 0 0 0 2 5 0 0 0 0 0 0 0 0 0 0 0 0 0 0 0 0 0 0 0 0 0 0 0 0 0

GFSCGP_con_mucape_099.txt.gz
CAPE
0 0 6 37 10 29 22 84 151 132 270 79 149 173 65 77 118 8 1 9 33 94 163 178 241 265 343 232 302 271 387 727 422 344 263 288 257 493 665 933 773 820 659 531
0 0 1 48 27 1 78 54 229 147 73 156 240 214 154 173 105 34 6 14 29 100 189 188 144 228 226 189 260 245 367 604 389 346 334 358 371 466 604 698 799 947 821 526
0 0 0 8 33 3 0 16 252 272 94 100 82 90 282 189 187 146 14 27 27 91 117 187 157 193 199 108 164 175 333 536 400 425 519 478 492 469 528 560 490 807 649 469
0 0 0 0 6 24 26 25 69 196 141 66 16 29 63 115 159 109 64 13 16 64 140 196 210 175 175 112 104 160 241 232 420 363 388 455 430 314 421 523 461 781 923 846
0 0 0 0 0 15 56 82 127 119 99 55 8 9 0 25 99 98 44 42 31 23 69 137 173 177 163 131 87 154 267 141 267 424 418 366 353 440 355 472 621 769 1016 1043
0 0 0 0 0 4 82 55 177 132 126 47 23 0 0 35 80 86 115 97 40 12 35 130 163 170 134 187 114 230 269 175 208 278 376 412 418 127 345 288 587 635 895 840
0 0 0 0 0 0 25 10 47 46 63 12 12 33 0 4 0 110 109 109 34 34 34 78 107 106 122 239 209 145 171 203 485 521 560 517 291 326 283 427 554 609 732 850
0 0 0 0 0 0 0 0 4 5 0 3 27 20 14 79 49 118 114 179 297 84 114 32 68 135 162 163 372 222 155 146 489 600 532 512 377 359 276 492 599 693 700 783
0 0 0 0 0 0 0 0 0 0 0 0 49 9 1 156 258 179 137 206 185 147 178 135 55 138 165 169 387 381 176 143 118 211 436 533 532 490 385 421 589 694 701 699
0 0 0 0 0 0 0 0 0 0 0 0 24 0 32 124 317 209 182 193 146 322 385 306 103 48 75 160 259 573 425 262 217 240 294 494 555 557 529 467 469 427 373 461
0 0 0 0 0 0 0 0 0 0 1 0 11 0 284 81 189 186 169 150 137 129 295 294 305 159 69 194 299 412 577 488 474 657 588 509 575 492 561 456 529 770 888 805
0 0 0 0 0 0 0 0 0 0 0 0 43 34 228 151 120 131 300 149 170 133 111 188 215 187 109 156 308 299 257 267 264 557 723 826 761 815 824 722 524 931 1021 950
3 0 5 16 6 0 0 0 9 21 4 70 0 52 350 164 105 106 51 78 116 180 328 221 234 244 192 167 160 130 88 107 131 209 402 507 487 683 857 886 900 864 962 873
3 0 21 48 27 0 0 0 0 0 1 1 18 203 285 221 112 85 118 93 66 48 167 343 181 334 311 266 170 204 140 92 88 103 96 119 122 171 296 553 691 781 961 1075
18 1 15 40 23 8 0 0 0 0 0 0 63 193 255 234 121 5 35 23 38 51 79 88 87 176 201 181 150 165 125 86 136 156 56 37 74 90 96 147 261 367 706 982
7 25 13 23 45 0 0 0 0 14 121 81 184 192 128 139 195 125 25 29 9 88 67 97 95 119 135 106 140 142 134 92 79 106 160 121 89 66 63 63 114 141 224 478
5 15 41 21 7 2 4 0 4 75 338 207 119 93 236 141 99 116 126 85 20 43 65 26 124 166 148 148 210 151 85 66 46 29 37 46 76 26 41 29 56 76 105 153
1 19 32 22 49 27 2 11 202 468 456 347 284 168 238 115 130 114 107 94 32 110 67 112 93 196 163 123 113 144 207 193 101 110 67 47 44 18 28 44 56 60 53 92
1 0 0 0 13 6 0 1 60 96 293 392 203 191 188 181 152 152 121 84 77 25 149 164 211 36 59 74 72 66 154 258 259 228 92 70 29 44 64 44 100 68 34 81
0 0 0 0 0 0 0 0 0 122 256 413 294 228 209 157 164 97 72 61 16 7 16 2 0 0 0 0 0 0 0 0 31 83 212 286 307 316 202 164 105 160 117 69
0 0 0 0 0 0 0 0 0 0 0 445 408 309 240 218 154 66 47 11 0 0 0 0 0 0 0 0 0 0 0 0 0 0 0 0 0 0 0 0 61 124 130 150
0 0 0 0 0 0 0 0 0 0 428 456 379 295 222 224 159 61 45 51 37 21 0 0 0 0 0 0 0 0 0 0 0 0 0 0 0 0 0 0 0 0 0 0
0 0 0 0 0 0 0 0 0 0 559 523 438 339 281 160 102 93 76 66 100 29 5 0 0 0 0 0 0 0 0 0 0 0 0 0 0 0 0 0 0 0 0 0
0 0 4 0 0 0 0 0 59 93 359 375 370 287 256 196 134 131 90 93 70 0 0 0 0 0 0 0 0 0 0 0 0 0 0 0 0 0 0 0 0 0 0 0
0 0 5 0 0 0 0 0 2 56 106 143 171 187 187 217 170 119 67 104 69 28 0 0 0 0 0 0 0 0 0 0 0 0 0 0 0 0 0 0 0 0 0 0
0 0 0 4 13 20 10 0 0 0 8 17 21 28 60 61 64 51 65 47 16 2 0 0 0 0 0 0 0 0 0 0 0 0 0 0 0 0 0 0 0 0 0 0

GFSCGP_con_mucape_105.txt.gz
CAPE
0 0 0 24 30 2 10 16 156 390 181 149 162 309 99 14 45 145 135 158 222 242 288 325 380 449 449 541 672 786 1080 1408 1179 1044 1005 998 1020 1318 1404 1437 1443 1421 1778 1679
0 0 0 11 22 29 172 324 245 154 60 108 24 140 294 151 142 163 157 200 189 187 234 328 385 419 447 566 740 981 1169 1386 1223 1083 1051 908 1179 1175 1627 1682 1695 1706 1641 1543
0 0 0 11 17 34 17 29 232 239 156 161 24 106 93 96 59 86 63 175 204 201 237 340 303 386 436 504 770 916 1189 1199 1139 1057 1052 1103 1182 1340 1468 1574 1568 1732 1555 1107
0 0 0 6 32 61 33 17 316 172 97 56 23 0 111 140 36 90 80 39 131 194 249 350 380 412 385 483 630 786 1107 1239 1040 1159 1133 1344 1086 1726 2047 2260 1370 1567 1552 1363
0 0 0 0 23 75 53 17 334 293 210 157 111 1 71 203 166 48 28 56 38 143 210 290 355 436 408 459 489 646 927 1204 978 1104 1241 1179 1017 1118 1692 1323 1692 1417 2089 1671
0 0 0 0 15 80 49 140 229 175 152 100 119 115 54 237 320 226 88 68 51 56 174 249 330 414 413 433 394 466 772 994 1114 1032 1201 1408 1320 1119 988 1188 1503 2126 1662 2306
0 0 0 0 0 19 68 48 48 15 39 0 0 126 62 129 98 266 171 140 72 47 145 291 321 372 368 367 361 389 676 841 957 936 982 1097 1144 1379 1375 1200 1118 1419 1461 1637
0 0 0 0 0 0 6 15 14 5 0 1 23 119 108 86 95 135 304 206 103 55 83 256 331 337 358 342 366 356 467 708 794 910 1005 1000 1047 992 879 972 1044 1237 1525 1914
0 0 0 0 0 0 0 0 0 6 0 39 160 75 50 218 375 191 235 290 68 18 69 233 339 394 250 198 381 367 418 622 664 612 889 962 905 876 921 1128 1191 1226 1480 1268
0 0 0 0 0 0 0 0 0 0 15 1 110 132 183 408 267 300 393 352 126 50 123 178 198 310 309 225 410 414 408 378 467 700 856 969 1102 1056 1092 1067 1211 1304 1328 1558
0 0 0 0 0 0 0 0 0 0 0 30 92 166 203 457 522 639 603 443 304 101 211 306 381 405 423 399 609 657 687 703 246 552 984 1038 1204 1148 1255 1199 1134 1264 1294 1386
0 0 0 0 0 0 0 0 0 0 0 17 72 149 418 407 556 391 419 561 636 410 384 518 506 462 402 268 442 712 794 663 696 678 781 827 913 1088 1165 1255 1225 1119 1218 1565
0 2 28 3 0 0 0 0 0 0 15 72 10 93 515 648 600 516 419 422 337 401 513 500 676 469 361 256 172 386 375 412 596 559 731 921 1033 1168 1337 1263 1335 1591 1511 1691
2 0 26 27 7 0 0 0 0 3 3 39 27 315 526 534 535 753 402 346 336 278 241 260 473 421 244 125 78 113 178 111 147 163 159 258 591 625 532 582 700 1052 1416 1654
22 25 3 5 1 0 0 18 4 3 0 48 127 510 663 396 574 747 388 322 275 237 187 210 320 477 438 293 97 32 83 86 76 67 45 47 65 183 199 234 229 419 760 1017
19 45 21 22 10 19 0 13 38 45 29 146 160 512 637 442 369 525 788 735 595 243 121 338 453 328 239 171 51 70 76 152 161 149 65 82 56 155 87 98 67 123 242 344
18 72 60 61 20 24 27 3 163 206 263 363 451 539 732 439 505 533 711 553 460 424 382 223 469 586 281 76 7 62 86 112 128 194 157 87 49 12 40 70 73 43 78 133
1 10 15 127 71 68 2 10 23 435 513 555 528 541 609 389 643 694 184 252 294 275 109 221 237 412 449 236 181 200 192 186 184 102 140 154 129 95 71 37 32 78 36 19
0 0 0 21 51 16 4 3 11 10 60 571 630 550 684 340 546 194 255 163 176 131 116 242 179 198 309 279 287 295 134 104 116 95 113 69 82 73 96 89 50 54 59 43
7 0 0 0 0 32 7 0 0 39 34 656 549 669 503 502 265 228 290 243 126 138 144 139 236 199 137 267 248 136 105 75 93 141 131 153 112 93 71 0 0 1 18 33
0 0 2 0 5 0 0 0 0 0 4 276 698 440 403 395 372 208 132 189 155 135 138 139 154 121 138 148 92 82 127 197 197 209 207 182 158 135 118 47 15 1 59 47
0 0 0 0 0 0 0 0 5 0 0 199 822 493 415 242 174 135 220 186 103 79 80 77 114 47 8 0 0 0 0 0 0 0 0 24 22 27 0 2 6 0 98 19
6 0 8 0 0 0 0 0 0 0 0 106 501 394 322 267 152 142 130 64 40 44 46 15 0 0 0 0 0 0 0 0 0 0 0 0 0 0 0 0 0 0 0 0
0 0 30 11 0 0 0 0 0 0 63 94 359 439 338 239 125 173 103 74 0 0 0 0 0 0 0 0 0 0 0 0 0 0 0 0 0 0 0 0 0 0 0 0
5 0 1 12 24 0 0 0 0 0 2 179 368 389 281 169 156 123 137 47 6 0 0 0 0 0 0 0 0 0 0 0 0 0 0 0 0 0 0 0 0 0 0 0
0 29 267 164 16 21 0 0 0 0 0 46 167 174 122 114 138 149 112 32 1 0 5 1 0 0 0 0 0 0 0 0 0 0 0 0 0 0 0 0 0 0 0 0

GFSCGP_con_mucape_108.txt.gz
CAPE
0 0 0 98 0 1 109 223 146 298 293 118 94 116 95 76 196 204 225 192 204 177 285 407 354 231 456 739 945 1077 1086 1333 1327 1204 892 871 918 1061 1292 1267 1635 1833 2104 2138
0 0 0 102 0 0 38 150 343 271 199 120 29 173 14 6 64 254 210 162 156 177 282 400 478 423 368 577 781 992 1115 1495 1938 1114 1005 844 1001 994 1008 1357 1319 1546 1947 2196
0 0 6 0 41 9 228 227 300 278 156 59 8 37 203 1 55 198 227 193 205 245 288 377 487 548 468 589 912 1171 1215 1158 1382 1144 1368 1290 1989 1820 1800 1431 1030 1258 1606 1774
0 0 0 1 36 23 1 35 297 297 206 75 22 0 80 0 5 222 211 265 261 196 330 409 450 503 527 565 943 1300 1379 1315 1132 1612 1255 1357 1417 1607 738 962 1112 1493 1773 1470
0 0 0 0 18 58 2 18 68 220 142 145 85 52 7 160 66 77 117 157 237 260 253 353 520 522 463 555 778 1182 1587 1567 1170 1682 1404 1872 790 623 825 804 1401 1715 1674 1451
0 0 0 0 0 45 27 42 45 207 160 22 167 168 0 115 359 23 71 192 154 232 274 315 422 513 537 543 694 954 1562 1751 1500 1562 1256 1278 1000 895 1095 1127 2180 1071 1171 1451
0 0 0 0 0 5 62 121 117 26 89 84 49 147 94 105 177 418 86 110 158 154 237 328 389 579 650 691 723 857 1335 1785 1562 1379 1213 1213 928 1068 1046 1251 1055 1189 1050 1253
0 0 0 0 0 0 37 64 94 82 89 141 120 195 245 168 306 418 530 236 235 275 199 212 423 566 681 753 830 774 1145 1498 1498 1425 1326 1399 1366 793 1567 1317 1157 1028 2325 1119
0 0 0 0 0 0 0 15 30 57 110 122 129 196 309 237 324 398 558 579 385 268 260 251 409 590 770 792 903 864 947 1359 1250 1153 1508 1382 1337 927 1995 1014 1975 1381 1545 1458
0 0 0 0 0 0 0 0 46 24 77 136 276 201 130 544 516 560 481 663 579 358 356 310 403 680 743 839 832 878 987 1173 1127 938 1151 914 889 1283 1091 965 726 1328 1625 1831
0 0 2 0 0 0 0 0 1 11 28 105 182 223 486 677 662 789 600 682 774 588 343 405 617 714 829 721 470 713 1061 1122 946 983 1009 884 894 711 1273 1247 908 1005 1358 2115
6 11 53 0 0 0 0 0 0 0 0 40 85 327 716 671 861 1005 1072 979 929 738 412 513 513 628 666 980 952 772 754 995 1180 990 902 1291 924 776 635 1001 817 1082 992 1595
53 36 86 69 10 0 0 0 0 3 2 45 61 107 907 1004 986 969 984 1136 1044 755 672 681 548 756 1020 795 633 1110 1072 963 1110 1091 974 1046 1174 688 806 855 1127 1051 1150 1030
8 88 100 108 128 64 1 0 0 2 36 47 75 193 1055 1072 1121 988 980 1087 1160 1102 990 1089 1221 643 501 886 393 352 328 249 820 1018 1081 1184 1143 653 960 1050 1298 1097 996 1215
69 138 115 84 9 5 15 2 0 0 3 51 68 83 292 1189 1077 912 746 726 662 655 432 551 986 977 672 634 234 177 165 184 155 205 728 924 1056 1233 1103 1216 1201 1269 1452 1393
65 230 178 108 26 3 7 54 17 5 29 15 70 108 869 1204 974 727 711 547 493 454 432 346 292 1003 884 595 360 241 170 170 160 119 58 38 120 148 521 683 713 836 978 1193
197 252 290 217 104 80 56 48 229 199 229 302 137 751 1189 1068 781 879 548 588 419 408 285 269 355 338 608 581 227 172 266 298 258 219 125 39 32 33 29 37 198 486 587 654
206 231 206 150 225 194 94 38 68 504 515 593 760 852 1246 932 811 701 537 578 514 583 335 220 306 535 397 222 157 33 50 32 233 230 157 69 64 72 36 37 32 98 275 412
91 248 216 168 208 249 85 30 25 131 246 721 867 906 937 568 487 453 694 346 352 269 256 128 295 382 621 142 0 25 87 141 172 171 262 170 113 129 61 18 16 14 40 248
0 115 220 219 131 165 96 17 1 22 353 913 999 913 645 385 551 493 413 178 229 106 129 130 328 323 550 398 209 179 200 324 212 267 111 92 102 110 107 96 85 32 11 17
50 59 4 130 155 136 12 12 0 170 214 43 719 714 693 552 614 266 163 110 138 133 182 235 259 108 372 326 275 280 280 140 92 109 107 131 175 90 89 19 3 0 2 33
248 155 43 59 25 110 80 120 318 188 115 158 834 866 611 331 216 173 144 193 148 119 102 96 231 277 210 191 152 150 234 170 221 188 183 175 149 121 131 102 68 83 35 30
162 175 409 197 306 248 110 120 213 294 305 201 829 835 537 310 177 228 159 226 130 153 137 127 122 87 31 76 45 195 113 24 8 7 57 142 88 19 12 1 0 0 0 0
120 160 401 353 323 193 79 188 159 276 458 584 688 726 476 310 149 217 272 271 165 124 55 33 32 112 106 0 0 0 0 1 0 1 0 0 0 0 0 0 0 0 0 0
273 223 206 199 381 239 142 138 185 275 430 525 463 456 468 362 151 140 216 146 72 119 140 145 8 0 0 0 0 0 0 0 0 0 0 0 0 0 0 0 0 0 0 0
217 161 173 301 530 452 319 63 60 130 345 501 419 281 272 266 129 145 201 184 45 4 7 2 0 0 0 0 0 0 0 0 0 0 0 0 0 0 0 0 0 0 0 0

GFSCGP_con_mucape_111.txt.gz
CAPE
0 0 0 76 106 25 31 55 85 104 242 0 0 18 2 134 191 89 64 86 142 119 118 71 117 152 266 458 606 1270 1456 1248 1232 1129 1356 1221 2012 1435 1612 1725 1619 1762 1911 1980
0 0 0 108 113 23 0 180 66 191 181 0 0 107 16 71 193 122 88 104 163 122 103 143 108 165 193 424 703 1363 1435 1376 1799 1147 1846 1377 1125 1895 1572 1630 1568 1693 2123 2091
0 0 0 18 87 0 16 179 237 257 106 103 0 0 27 8 181 257 101 96 82 147 107 124 323 167 240 310 597 815 1794 1348 1628 1969 1324 1645 1841 2301 1379 1755 1361 1705 1729 1907
0 0 0 15 62 32 10 245 164 192 139 117 76 0 9 23 116 80 119 91 111 184 119 161 414 377 229 389 473 1056 1119 1833 1082 1891 1969 1678 909 1239 1272 1166 1248 2265 1593 1432
0 0 0 1 68 37 15 8 305 211 126 101 26 21 0 0 0 44 182 140 120 197 185 215 240 457 418 466 485 704 1128 1514 1610 1457 1468 1378 1918 1135 990 1533 2285 1790 1778 1656
3 0 0 0 84 10 0 2 178 182 121 122 66 65 120 206 38 63 100 245 107 117 204 182 412 335 344 331 349 624 1063 1447 1501 1437 1390 1451 1773 1437 1389 1198 1453 1329 1684 1465
1 0 0 0 43 0 0 66 223 160 137 153 103 120 53 133 87 109 125 150 257 161 168 204 415 221 476 448 269 507 1176 1446 1314 1301 1165 1198 1406 1208 1277 1508 1305 1317 1093 1342
0 0 0 0 16 2 8 114 207 148 113 100 144 158 155 61 122 166 129 126 175 282 261 254 274 308 406 399 387 370 1103 1545 1399 1149 1165 1221 1259 934 1087 1079 993 861 1399 930
8 2 0 0 0 3 1 83 207 40 63 174 165 230 394 282 274 401 291 157 119 318 225 283 412 428 442 551 584 614 1389 1543 1345 1106 1297 1415 1315 1068 1182 1395 1537 2066 1501 1653
30 32 10 0 0 0 0 26 67 142 78 26 144 98 140 456 496 556 605 231 222 298 340 319 244 288 785 494 653 713 1110 1400 1278 962 1124 1120 938 1107 1069 1236 1134 1578 647 1994
3 3 33 0 0 0 0 0 10 74 108 64 90 273 318 615 520 577 641 702 406 392 534 531 282 498 664 776 975 856 1043 1538 1456 1176 1222 1008 732 684 986 1087 1106 1267 1404 1589
0 20 1 20 2 0 0 0 0 7 32 23 3 88 57 709 797 842 749 699 826 772 450 458 383 756 1134 1253 1403 1366 1167 1306 1556 1931 2284 1375 1218 814 562 776 945 1123 1425 1497
66 3 77 29 25 0 0 0 0 1 18 47 60 494 908 1030 1068 1069 1023 968 1024 1084 801 580 514 1250 1342 1203 1376 1358 1207 1523 1607 1843 1412 1332 2240 1203 831 645 677 978 1540 1662
3 13 78 65 21 2 30 0 11 7 32 26 31 959 1162 1316 1228 1432 1372 1195 1215 1294 1377 855 743 854 1060 1299 1558 1574 1316 1464 1379 1207 1217 1882 1823 1486 1070 1190 751 814 1154 1433
33 64 24 4 7 56 26 3 0 15 11 82 85 119 659 1267 1288 1244 1249 1398 1557 1564 1359 1226 1137 1220 1221 1236 908 447 267 223 359 335 922 975 1885 2268 1525 1443 1214 973 1088 1204
104 99 62 129 1 5 52 42 31 19 12 3 11 20 255 1129 1373 1212 1121 1166 1193 1017 883 1422 1375 1258 988 1160 674 355 301 545 381 366 476 701 1210 824 1444 1650 1345 1610 1169 1269
238 216 168 165 78 25 58 41 58 65 53 42 181 737 126 1284 1434 1080 839 1054 873 797 464 438 708 1251 1342 977 737 747 618 585 469 348 301 166 317 341 407 325 684 1067 975 1061
307 284 270 284 236 149 126 113 95 143 286 306 316 311 808 1215 1345 950 884 885 762 623 508 370 343 423 914 869 694 436 405 335 576 342 232 106 41 32 30 75 129 118 269 818
215 354 254 244 434 35 14 112 134 213 511 510 572 720 1405 1016 898 688 680 796 621 447 332 285 278 551 355 379 279 168 278 94 102 106 132 71 97 108 76 69 29 16 163 177
169 216 320 296 265 5 0 37 13 64 253 81 871 1047 891 679 710 691 565 497 456 316 251 268 205 279 520 676 477 92 33 6 33 88 151 156 193 126 108 166 168 253 82 79
23 46 196 199 239 245 103 6 34 69 268 190 724 1098 782 686 924 860 388 536 211 174 132 94 378 409 205 406 354 60 83 158 219 236 217 240 110 84 115 151 103 47 43 20
422 438 252 238 11 164 106 190 298 385 314 220 672 1039 918 423 786 539 280 254 155 121 232 361 292 88 430 457 466 420 147 139 181 148 207 178 66 111 79 28 3 0 1 22
19 162 697 392 501 304 200 254 188 340 498 602 532 1053 1034 779 494 309 243 180 218 225 193 158 175 260 283 86 189 242 146 141 136 95 83 159 187 113 87 54 32 4 7 6
190 238 124 444 399 321 280 213 269 294 482 726 746 776 903 602 450 242 230 214 145 154 106 102 118 45 242 69 94 127 136 138 108 219 244 238 253 205 173 117 54 0 0 0
452 500 120 311 628 410 304 300 230 321 446 644 845 742 608 567 384 245 209 335 202 159 164 111 23 16 47 92 86 90 21 0 28 4 0 0 0 0 0 0 0 0 0 0
341 195 390 416 788 696 661 303 159 223 367 540 662 674 539 498 284 235 308 389 294 166 193 172 92 99 27 0 0 0 1 0 0 0 0 0 0 0 0 0 0 0 0 0

GFSCGP_con_mucape_114.txt.gz
CAPE
0 0 0 0 59 60 28 93 130 96 121 55 0 0 41 112 97 143 97 66 87 57 63 54 120 332 118 360 1033 1547 1020 2610 1757 1862 510 1359 1971 1715 1105 2433 2658 3079 2631 2184
0 0 0 1 78 32 35 149 164 215 70 0 0 0 13 24 87 173 99 97 62 60 42 72 75 200 168 849 1226 1758 1944 2534 2026 2223 1377 1099 1849 996 1790 2625 2826 1350 2496 2469
0 0 0 0 7 61 107 157 247 193 91 12 0 0 0 0 55 114 167 95 94 94 13 87 116 179 503 1051 1087 1633 1870 2365 2105 1907 1693 480 1059 2034 1838 1847 2238 2178 2598 2646
0 0 0 0 19 98 144 353 150 220 1 0 0 0 0 0 8 106 195 140 139 78 149 120 62 78 291 1134 956 1594 1998 2231 1684 1778 1939 1171 1410 1511 2040 2076 2222 1909 2496 2171
0 0 0 0 0 156 20 87 322 122 116 68 44 0 0 0 0 77 123 127 94 204 83 171 71 142 61 228 1053 1545 2025 2509 2307 2638 1410 1873 1909 1926 2185 2303 2164 2860 2798 2266
0 0 0 0 13 50 3 206 63 46 58 98 69 4 0 1 0 0 98 108 110 46 116 156 134 124 518 294 811 1055 1878 1999 1887 2373 1715 1965 1300 471 1841 1726 1858 1965 2185 2339
0 1 2 0 0 114 17 113 229 108 207 126 52 56 16 23 9 5 8 66 110 64 127 88 111 374 411 265 724 1363 2017 1953 2011 2085 2004 1786 1104 487 1998 1795 1877 1134 1925 2031
0 0 0 0 0 77 15 9 158 0 109 78 55 37 55 3 36 57 41 53 164 207 198 194 88 246 222 324 442 957 2019 2048 1820 1945 2337 2068 1915 1768 1724 1891 1487 889 957 2239
14 0 0 0 0 11 13 7 33 224 9 111 0 4 72 74 36 32 47 79 164 139 142 116 570 285 250 215 384 1763 1976 1869 1809 1705 2237 2306 2289 2239 2016 2042 264 687 1939 1802
4 5 1 1 0 0 0 14 40 197 93 7 31 81 41 191 136 246 161 166 223 145 149 159 222 304 64 128 200 1565 1884 2017 1699 1390 1775 1700 2027 2187 2551 2332 2200 1654 1353 249
0 0 4 11 0 0 0 0 0 16 107 95 68 259 279 273 121 578 314 305 214 54 75 241 166 229 282 447 830 1331 1497 1767 1534 1490 1391 1618 1317 1432 2197 2206 2490 2580 546 87
0 0 4 9 0 0 0 0 0 2 5 15 69 47 45 194 319 536 520 412 500 293 415 623 532 127 290 1149 934 940 1155 1057 1339 1507 1317 1891 1548 1661 1551 1914 2042 1984 2226 1682
2 3 0 7 5 9 0 0 0 0 0 26 2 255 240 314 511 736 701 714 594 456 438 570 267 310 529 1108 521 227 0 750 1638 926 1882 1292 1470 1647 1980 1785 1998 2388 2604 2820
0 0 26 9 6 24 18 34 0 0 0 0 0 313 188 244 1061 795 1022 985 502 404 935 618 1226 955 116 177 1628 2005 1827 1691 2116 1725 1555 1737 1751 1142 949 1743 2282 1962 2823 2329
0 0 0 0 0 0 0 2 31 0 0 0 3 487 504 581 1040 1173 1217 1345 855 999 832 641 763 1276 1524 1400 1196 887 782 629 507 459 468 1165 903 790 1181 1022 1602 2367 1909 2489
26 16 0 2 0 10 1 3 20 14 0 0 0 19 142 952 675 840 1441 1608 1697 1013 651 1125 1288 1100 1224 1296 999 571 455 219 124 162 311 428 926 898 418 421 629 1622 1694 1680
75 140 136 84 71 1 0 24 8 48 21 79 78 1103 474 60 5 0 969 1410 1279 987 1092 938 847 1255 1417 869 813 520 393 392 432 534 605 677 455 252 266 288 437 278 863 1010
166 188 121 166 74 110 76 9 12 16 509 510 843 1301 770 155 19 491 1028 1182 917 708 611 838 647 722 1047 860 682 748 806 652 882 620 422 301 151 170 160 236 251 161 230 332
120 187 163 180 5 67 42 75 1 1 17 112 300 966 187 556 488 711 1031 1101 804 775 487 348 460 805 752 723 666 571 349 363 310 211 259 192 134 33 4 25 76 80 58 143
145 213 242 276 122 31 103 26 21 17 133 154 60 446 351 454 421 644 671 723 573 486 367 332 496 348 465 952 644 364 264 262 158 109 98 91 40 74 128 24 1 1 18 10
126 404 105 245 255 222 69 111 6 3 284 116 181 555 108 353 603 473 468 439 400 347 307 292 269 458 518 512 395 357 182 56 78 106 92 112 71 126 122 43 17 8 0 18
12 90 530 363 258 188 76 39 34 420 209 242 202 599 699 1049 618 578 393 446 360 261 146 127 427 403 272 332 378 324 481 69 60 189 166 220 123 216 28 64 81 52 0 2
124 292 408 291 248 248 147 197 221 238 341 360 457 1020 893 723 419 382 263 570 276 290 249 399 194 137 158 229 384 378 473 81 16 54 99 122 230 158 81 54 14 16 0 0
98 152 95 122 412 304 269 181 168 190 165 200 530 848 892 593 465 259 302 374 419 370 163 87 95 137 172 297 88 405 277 299 118 109 102 100 121 75 164 74 16 72 41 2
493 701 212 116 490 578 351 275 115 145 233 263 580 785 854 654 400 254 349 271 265 240 254 299 107 89 51 51 141 130 136 101 107 147 126 117 130 157 169 115 73 72 34 0
225 185 178 493 901 904 688 444 148 61 129 179 351 852 789 562 294 230 412 249 338 229 102 135 134 64 9 1 37 87 61 87 57 62 60 55 166 11 11 3 0 0 0 0

GFSCGP_con_mucape_117.txt.gz
CAPE
0 0 0 0 59 71 192 281 103 110 143 0 0 19 44 41 69 107 64 28 40 23 39 15 75 21 37 183 224 182 213 569 567 862 537 619 296 734 1286 1288 1409 1426 1240 1497
0 0 0 0 43 77 57 193 102 141 53 57 0 0 0 25 44 105 123 75 34 40 26 69 76 30 33 262 712 378 766 652 541 729 890 944 582 793 1172 1659 1264 1193 1460 1276
0 0 0 5 19 63 39 115 80 138 80 19 0 0 0 12 47 59 67 125 72 53 26 64 90 21 87 442 561 687 837 758 763 475 374 573 932 892 989 1321 1257 1131 1268 1745
0 0 0 0 47 13 173 215 145 166 31 0 0 0 0 0 24 38 34 64 85 70 35 72 56 34 139 195 356 490 598 757 674 517 242 283 492 431 627 808 1045 1124 1464 1341
0 0 0 0 2 177 213 112 141 70 6 1 0 0 0 0 0 0 30 64 67 34 9 61 41 69 150 284 473 474 705 632 475 465 566 138 539 584 943 1175 1207 1132 1465 994
0 0 0 0 14 175 384 383 123 86 9 0 10 3 0 0 0 5 11 33 46 41 33 78 73 139 291 207 336 510 570 1034 715 690 505 484 394 381 816 1138 874 1034 883 1306
0 0 0 0 112 159 231 112 44 39 1 0 27 25 50 37 0 3 0 8 63 32 34 58 98 107 292 349 473 673 427 668 633 813 535 589 339 314 538 655 605 712 691 929
0 0 0 0 1 114 233 184 29 40 0 68 6 21 39 47 2 4 11 6 95 103 54 68 76 154 86 506 492 725 560 803 372 820 785 569 184 35 553 755 605 497 543 636
0 0 0 0 0 16 53 38 0 95 60 21 16 17 0 38 38 0 0 48 93 111 39 71 130 100 239 212 236 751 862 944 398 775 1041 733 796 756 623 775 443 264 839 1229
0 0 0 0 0 2 0 25 68 194 56 0 80 9 0 45 65 86 2 28 103 169 144 118 135 74 165 177 158 851 860 969 599 961 1097 598 750 866 848 734 212 617 568 741
0 0 0 12 2 0 0 5 0 37 76 62 27 126 83 83 204 136 81 20 56 136 140 119 151 168 154 234 167 961 962 997 816 1038 926 796 772 1043 740 1099 851 831 492 344
0 2 0 0 1 0 0 1 0 0 0 46 77 21 242 61 236 159 116 103 49 140 139 88 189 315 154 121 300 1095 1188 1008 916 885 851 777 958 787 1055 715 908 988 648 98
0 6 3 2 10 23 10 4 1 0 0 0 0 65 227 243 119 2 86 297 109 97 145 135 198 228 398 298 506 806 883 1051 805 972 819 937 615 790 783 961 824 896 688 654
0 2 1 1 0 0 6 1 0 1 0 0 0 347 138 106 123 204 382 436 290 167 92 135 162 175 217 208 455 398 541 706 524 626 359 501 537 617 771 863 836 766 1039 1017
0 0 0 0 0 0 0 0 0 34 84 22 62 283 367 397 414 751 1009 608 331 297 119 318 256 182 167 179 224 390 466 152 280 186 267 382 388 447 553 487 424 594 982 849
0 0 18 34 1 2 0 14 30 189 65 273 381 638 614 668 827 720 841 977 407 557 798 706 396 218 201 152 51 457 698 350 391 142 225 234 278 339 291 328 388 391 270 435
15 60 79 34 16 13 69 0 6 50 79 83 618 383 390 201 236 404 541 730 297 594 705 639 821 447 307 195 248 438 542 429 334 234 348 415 309 191 160 148 163 278 274 224
62 145 159 59 25 9 41 2 0 17 64 327 428 649 68 96 58 0 223 805 556 608 543 574 503 518 633 702 550 408 351 370 453 541 323 166 123 110 123 70 37 137 136 81
21 52 75 150 118 35 117 2 1 2 89 86 492 279 532 567 568 554 649 550 485 414 421 315 521 729 806 580 593 487 387 533 401 294 144 64 49 49 42 93 22 72 63 94
19 3 33 69 122 47 69 1 1 1 196 172 448 150 16 179 190 430 492 496 296 219 205 232 634 641 702 767 826 663 447 373 305 286 149 90 63 3 1 0 0 2 62 34
0 7 21 116 166 203 177 21 2 25 129 156 575 354 188 122 455 331 497 339 148 108 90 265 376 404 881 784 813 776 457 397 393 283 133 192 73 39 23 0 0 1 1 0
0 0 192 102 79 89 97 175 61 102 170 311 930 703 477 564 491 156 158 115 157 143 154 279 471 426 371 451 505 483 421 325 258 191 164 110 272 71 56 17 1 6 0 0
257 74 282 120 24 336 256 283 151 161 188 231 749 656 288 409 330 255 148 49 97 147 152 175 209 284 392 451 448 533 533 460 278 155 164 102 76 118 74 43 33 24 50 0
457 367 33 258 223 243 178 177 170 154 183 368 730 651 476 302 239 174 50 86 135 129 148 260 166 191 285 295 208 246 276 391 346 122 79 67 68 181 137 119 46 17 2 0
521 581 203 77 212 286 385 133 49 173 151 336 678 891 643 360 260 140 153 171 148 182 164 122 111 140 128 100 221 169 113 171 242 120 85 68 62 77 84 84 134 81 38 7
288 568 305 590 808 584 492 237 136 65 59 158 842 744 557 407 200 106 87 189 129 201 192 158 112 73 76 72 18 20 92 129 60 53 43 96 64 83 68 47 130 112 82 17

GFSCGP_con_mucape_120.txt.gz
CAPE
0 0 0 0 6 28 145 86 62 56 100 0 0 17 45 75 54 114 136 53 44 58 41 166 184 150 123 82 126 42 364 247 201 557 594 410 641 724 1139 1075 958 1254 1050 1085
0 0 0 0 70 25 157 104 128 122 81 80 0 0 39 55 62 79 115 88 40 47 67 112 62 122 183 149 147 74 351 187 336 420 542 406 481 493 1112 1121 1247 1310 1173 1319
0 0 0 21 52 54 60 57 85 121 114 41 21 0 0 35 61 68 89 105 23 31 50 62 44 139 212 199 74 161 233 231 512 387 615 536 503 686 833 872 912 1068 1141 1342
0 0 0 28 21 97 222 304 188 196 88 23 6 0 0 1 46 42 58 75 69 39 61 93 74 106 245 152 147 209 216 431 452 331 389 474 404 392 533 725 871 898 1100 1312
0 0 0 10 24 200 263 302 304 176 61 28 0 0 0 0 132 32 55 57 69 31 57 92 108 75 244 201 247 233 468 532 463 296 269 290 291 309 439 663 830 845 1146 1070
0 0 0 12 79 227 326 188 115 63 44 0 0 0 0 0 0 17 44 42 64 43 55 78 117 56 170 239 218 187 484 383 358 294 411 283 288 433 655 837 769 762 903 1061
0 0 191 748 505 462 281 178 22 12 0 0 25 0 0 0 24 0 16 32 51 52 36 59 75 80 127 238 260 265 521 274 245 259 420 287 411 331 585 764 767 749 815 743
0 0 24 368 440 277 266 108 0 0 0 0 14 3 0 0 6 18 10 61 47 74 85 32 84 108 128 170 273 384 356 452 495 436 393 456 406 220 473 605 551 510 539 608
0 1 17 168 396 237 208 137 48 71 80 31 0 20 6 0 0 0 1 31 35 92 85 68 118 169 227 195 307 396 325 497 525 467 387 392 218 134 328 640 529 539 479 665
0 0 0 0 15 198 78 37 9 120 76 0 0 0 0 0 20 0 0 9 30 51 106 72 49 213 248 337 398 417 378 325 302 406 649 488 305 432 629 691 614 374 658 861
0 0 8 0 0 11 0 0 2 66 104 107 0 0 2 0 13 27 0 3 7 4 40 98 82 84 229 382 442 634 463 471 302 342 888 557 575 592 810 531 455 208 526 629
0 15 6 11 4 0 0 36 41 0 0 28 24 0 53 0 68 20 30 5 35 4 77 95 143 159 99 325 503 725 651 631 395 400 732 560 384 787 716 635 877 662 611 392
1 16 17 15 13 9 16 6 16 0 0 0 0 0 105 26 47 64 19 28 38 38 86 108 203 138 168 172 266 805 743 743 559 476 722 758 564 485 673 617 692 817 784 538
0 6 26 15 12 7 15 34 37 2 2 0 0 0 129 103 40 57 22 105 68 84 79 103 141 148 168 148 398 667 842 826 686 678 842 605 482 598 654 650 679 813 701 594
0 0 24 16 17 21 10 40 32 10 12 81 118 136 125 123 126 279 689 541 251 196 52 79 145 245 236 260 328 674 808 635 528 484 604 774 751 590 405 521 586 753 738 740
0 0 0 11 1 9 7 39 66 26 58 137 370 283 221 219 425 503 685 666 477 311 109 202 159 258 275 366 314 553 430 249 171 197 323 320 356 340 293 295 373 347 319 530
0 0 0 7 4 1 0 13 60 53 260 351 226 200 122 95 312 424 433 429 577 575 448 389 265 201 255 239 196 126 85 155 74 121 159 220 258 170 170 132 204 219 205 181
0 0 0 2 13 1 41 45 67 148 242 305 186 298 232 364 573 652 333 178 365 413 460 434 298 165 189 184 272 322 201 165 149 165 214 272 230 169 115 101 90 138 132 103
0 0 1 65 29 15 64 60 12 37 52 341 203 101 89 128 162 230 493 437 374 348 257 268 302 325 183 247 228 194 156 353 213 208 264 240 180 93 84 109 43 60 28 92
0 2 16 13 43 0 72 1 0 0 10 183 167 65 66 26 46 428 434 236 163 70 104 147 216 246 346 377 280 283 236 201 217 200 190 132 99 64 61 108 85 6 1 60
0 0 0 43 41 60 123 104 16 0 0 61 363 216 68 99 130 112 230 88 82 47 24 71 185 328 406 303 309 384 303 237 185 229 154 94 70 86 90 23 0 0 0 35
0 0 9 1 16 2 132 149 90 95 130 155 656 479 456 303 208 303 131 118 73 73 40 149 203 451 517 578 461 459 381 297 338 270 255 247 95 110 99 69 32 5 0 5
92 37 99 13 0 133 164 138 164 155 343 469 566 574 536 292 290 279 197 40 52 92 132 114 139 122 206 277 457 593 497 353 226 277 199 189 150 205 101 111 75 22 14 0
141 55 99 19 20 154 263 253 180 162 648 607 447 360 149 189 125 122 39 12 25 43 110 115 74 103 111 221 302 240 412 360 303 154 185 219 171 168 77 138 71 48 12 23
240 249 105 113 70 173 245 222 153 130 771 783 686 545 391 271 200 110 29 13 56 96 55 62 52 30 56 71 88 107 116 173 166 79 126 117 83 125 60 223 149 66 32 30
299 138 83 187 134 247 178 160 104 65 699 848 774 656 515 309 141 52 21 29 2 18 154 88 67 16 30 35 63 87 74 130 100 49 80 94 137 87 109 53 106 79 38 66

GFSCGP_con_mucape_123.txt.gz
CAPE
0 0 0 0 0 0 70 123 84 56 3 0 7 10 27 14 19 88 98 48 103 162 147 133 126 168 149 93 188 190 155 167 180 329 409 349 552 675 693 841 754 804 877 837
0 0 0 0 0 33 149 201 130 131 47 43 0 0 0 37 55 60 75 48 60 120 112 95 128 160 124 85 194 76 106 178 389 458 400 400 527 671 913 1004 1014 905 948 989
0 0 0 0 0 118 153 157 85 102 120 64 32 0 0 13 53 72 70 73 31 67 77 114 119 121 67 63 127 0 120 131 294 332 448 359 431 605 858 905 956 1160 1019 1036
0 0 0 0 0 8 70 265 226 172 122 73 5 0 0 2 64 59 49 57 1 24 107 111 81 93 3 82 68 18 169 119 352 287 439 368 383 488 458 528 768 980 1105 1097
0 0 0 0 0 21 229 285 273 161 27 37 0 0 0 0 26 6 26 50 6 24 59 115 108 83 66 83 24 91 105 244 309 218 312 318 391 369 390 490 672 780 843 1092
0 0 0 0 37 94 473 253 156 91 29 0 5 0 0 0 11 10 34 52 41 44 67 123 94 119 158 58 98 91 122 258 304 254 236 313 303 308 342 474 592 624 691 883
0 0 710 740 599 460 314 183 21 3 15 0 18 0 0 0 0 0 30 35 53 26 75 76 56 160 133 43 154 173 185 304 265 238 188 198 223 227 345 462 565 565 657 803
30 5 1042 781 524 499 316 165 15 2 0 51 32 0 0 0 0 3 14 42 27 23 64 72 108 112 178 118 147 190 271 281 254 237 295 283 182 268 309 479 602 552 586 630
24 29 611 814 638 577 458 240 64 69 90 52 70 35 1 0 0 0 0 7 13 13 32 85 123 115 167 209 208 173 231 225 220 173 242 253 255 240 240 419 534 481 403 442
21 21 74 429 512 315 277 218 127 109 5 0 19 0 0 0 3 0 8 1 5 24 43 38 114 131 120 188 215 245 208 254 177 233 243 294 337 316 199 359 462 436 403 413
15 26 30 20 200 299 93 148 21 83 112 0 0 0 0 0 8 19 3 2 31 46 31 38 86 145 166 131 170 248 282 240 275 344 359 318 276 208 269 507 574 561 322 555
26 30 51 45 24 19 0 0 0 0 0 23 6 0 4 0 31 16 5 0 63 62 46 31 109 151 211 203 237 309 302 244 293 332 363 366 384 284 545 659 504 399 312 455
12 15 10 57 26 0 0 1 0 0 0 0 0 0 61 23 29 25 8 19 53 95 51 38 75 124 199 214 282 360 362 329 299 262 293 524 612 359 420 636 522 631 269 535
1 0 15 0 1 14 31 0 0 0 0 0 0 3 125 113 77 127 108 48 37 50 28 44 85 129 121 208 249 395 526 451 383 265 328 436 598 406 390 561 487 580 583 672
0 1 1 7 35 73 53 22 32 28 21 205 167 51 187 230 332 562 490 448 151 40 54 83 124 125 126 134 212 407 619 634 552 407 348 398 515 608 471 427 501 579 596 696
0 0 12 5 14 50 61 53 65 89 236 281 148 142 132 251 381 358 506 460 343 120 62 46 95 161 152 164 204 316 442 665 698 586 430 450 686 666 550 615 452 307 443 496
0 0 0 0 0 1 3 36 96 157 179 205 85 116 343 702 280 207 357 394 379 151 89 122 116 238 260 234 303 329 325 501 520 406 312 296 285 262 183 135 143 155 197 213
0 0 0 0 0 0 0 150 265 200 214 213 222 294 243 375 365 243 259 225 188 231 183 209 290 286 300 362 303 305 334 255 196 140 115 122 125 123 72 77 44 63 80 123
0 0 0 4 2 17 35 1 18 55 56 176 123 61 75 273 245 163 260 188 131 210 226 444 364 274 200 180 302 200 178 147 73 60 102 64 69 72 71 90 73 52 51 23
0 0 0 1 3 0 19 18 11 0 0 124 192 39 11 39 49 77 152 56 26 31 56 191 219 293 283 173 32 144 88 95 147 79 99 124 135 99 101 59 50 54 37 29
0 0 0 0 0 11 16 5 0 0 0 28 197 209 112 76 49 81 166 12 26 9 20 70 287 282 274 237 135 128 126 111 108 135 137 110 103 96 76 47 41 28 37 53
0 5 11 3 0 0 18 10 15 8 130 144 469 427 287 150 150 154 50 50 12 23 48 204 188 417 311 355 354 82 45 101 47 41 104 37 109 72 71 39 63 30 22 37
26 23 44 0 0 147 90 25 107 165 311 431 406 445 254 363 202 105 70 21 2 12 29 124 252 321 374 405 545 279 214 102 103 175 53 97 154 150 117 101 87 33 21 16
120 136 127 2 71 217 143 80 189 348 382 397 226 320 203 49 24 31 0 0 3 16 190 82 145 110 131 386 358 242 253 214 166 189 217 251 252 207 122 102 93 60 51 40
121 82 79 73 74 151 219 99 244 576 537 428 330 288 135 118 83 14 0 0 1 14 51 103 139 88 81 60 63 83 135 188 330 204 130 106 114 93 86 127 110 89 111 82
230 186 122 100 85 218 277 152 199 793 713 508 532 420 231 178 42 2 0 0 0 2 46 91 58 41 34 34 50 20 25 46 47 41 92 47 47 75 97 69 66 57 72 61